﻿<?xml version="1.0" encoding="utf-8"?><gpx creator="Garmin Desktop App" version="1.1" xsi:schemaLocation="http://www.topografix.com/GPX/1/1 http://www.topografix.com/GPX/1/1/gpx.xsd http://www.garmin.com/xmlschemas/WaypointExtension/v1 http://www8.garmin.com/xmlschemas/WaypointExtensionv1.xsd http://www.garmin.com/xmlschemas/TrackPointExtension/v1 http://www.garmin.com/xmlschemas/TrackPointExtensionv1.xsd http://www.garmin.com/xmlschemas/GpxExtensions/v3 http://www8.garmin.com/xmlschemas/GpxExtensionsv3.xsd http://www.garmin.com/xmlschemas/ActivityExtension/v1 http://www8.garmin.com/xmlschemas/ActivityExtensionv1.xsd http://www.garmin.com/xmlschemas/AdventuresExtensions/v1 http://www8.garmin.com/xmlschemas/AdventuresExtensionv1.xsd http://www.garmin.com/xmlschemas/PressureExtension/v1 http://www.garmin.com/xmlschemas/PressureExtensionv1.xsd http://www.garmin.com/xmlschemas/TripExtensions/v1 http://www.garmin.com/xmlschemas/TripExtensionsv1.xsd http://www.garmin.com/xmlschemas/TripMetaDataExtensions/v1 http://www.garmin.com/xmlschemas/TripMetaDataExtensionsv1.xsd http://www.garmin.com/xmlschemas/ViaPointTransportationModeExtensions/v1 http://www.garmin.com/xmlschemas/ViaPointTransportationModeExtensionsv1.xsd http://www.garmin.com/xmlschemas/CreationTimeExtension/v1 http://www.garmin.com/xmlschemas/CreationTimeExtensionsv1.xsd http://www.garmin.com/xmlschemas/AccelerationExtension/v1 http://www.garmin.com/xmlschemas/AccelerationExtensionv1.xsd http://www.garmin.com/xmlschemas/PowerExtension/v1 http://www.garmin.com/xmlschemas/PowerExtensionv1.xsd http://www.garmin.com/xmlschemas/VideoExtension/v1 http://www.garmin.com/xmlschemas/VideoExtensionv1.xsd" xmlns="http://www.topografix.com/GPX/1/1" xmlns:xsi="http://www.w3.org/2001/XMLSchema-instance" xmlns:wptx1="http://www.garmin.com/xmlschemas/WaypointExtension/v1" xmlns:gpxtrx="http://www.garmin.com/xmlschemas/GpxExtensions/v3" xmlns:gpxtpx="http://www.garmin.com/xmlschemas/TrackPointExtension/v1" xmlns:gpxx="http://www.garmin.com/xmlschemas/GpxExtensions/v3" xmlns:trp="http://www.garmin.com/xmlschemas/TripExtensions/v1" xmlns:adv="http://www.garmin.com/xmlschemas/AdventuresExtensions/v1" xmlns:prs="http://www.garmin.com/xmlschemas/PressureExtension/v1" xmlns:tmd="http://www.garmin.com/xmlschemas/TripMetaDataExtensions/v1" xmlns:vptm="http://www.garmin.com/xmlschemas/ViaPointTransportationModeExtensions/v1" xmlns:ctx="http://www.garmin.com/xmlschemas/CreationTimeExtension/v1" xmlns:gpxacc="http://www.garmin.com/xmlschemas/AccelerationExtension/v1" xmlns:gpxpx="http://www.garmin.com/xmlschemas/PowerExtension/v1" xmlns:vidx1="http://www.garmin.com/xmlschemas/VideoExtension/v1">

  <metadata>
    <link href="http://www.garmin.com">
      <text>Garmin International</text>
    </link>
    <time>2021-01-08T13:52:07Z</time>
    <bounds maxlat="46.260880976915359" maxlon="8.080240907147527" minlat="46.244872799143195" minlon="8.029162930324674" />
  </metadata>

  <trk>
    <name>CapannaLeone2020-01-09</name>
    <extensions>
      <gpxx:TrackExtension>
        <gpxx:DisplayColor>Yellow</gpxx:DisplayColor>
      </gpxx:TrackExtension>
      <gpxtrkx:TrackStatsExtension xmlns:gpxtrkx="http://www.garmin.com/xmlschemas/TrackStatsExtension/v1">
        <gpxtrkx:Distance>11781</gpxtrkx:Distance>
        <gpxtrkx:TotalElapsedTime>24371</gpxtrkx:TotalElapsedTime>
        <gpxtrkx:MovingTime>16496</gpxtrkx:MovingTime>
        <gpxtrkx:StoppedTime>7867</gpxtrkx:StoppedTime>
        <gpxtrkx:MovingSpeed>1</gpxtrkx:MovingSpeed>
        <gpxtrkx:MaxSpeed>2</gpxtrkx:MaxSpeed>
        <gpxtrkx:MaxElevation>2854</gpxtrkx:MaxElevation>
        <gpxtrkx:MinElevation>1993</gpxtrkx:MinElevation>
        <gpxtrkx:Ascent>956</gpxtrkx:Ascent>
        <gpxtrkx:Descent>947</gpxtrkx:Descent>
        <gpxtrkx:AvgAscentRate>0</gpxtrkx:AvgAscentRate>
        <gpxtrkx:MaxAscentRate>0</gpxtrkx:MaxAscentRate>
        <gpxtrkx:AvgDescentRate>0</gpxtrkx:AvgDescentRate>
        <gpxtrkx:MaxDescentRate>-0</gpxtrkx:MaxDescentRate>
      </gpxtrkx:TrackStatsExtension>
    </extensions>
    <trkseg>
      <trkpt lat="46.246939105913043" lon="8.02993331104517">
        <ele>2008.1199999999999</ele>
        <time>2020-01-09T07:27:41Z</time>
      </trkpt>
      <trkpt lat="46.246939105913043" lon="8.029933059588075">
        <ele>2008.1199999999999</ele>
        <time>2020-01-09T07:27:42Z</time>
      </trkpt>
      <trkpt lat="46.246935334056616" lon="8.029940435662866">
        <ele>1994.3199999999999</ele>
        <time>2020-01-09T07:27:45Z</time>
      </trkpt>
      <trkpt lat="46.246935166418552" lon="8.02995284087956">
        <ele>1994.3199999999999</ele>
        <time>2020-01-09T07:27:46Z</time>
      </trkpt>
      <trkpt lat="46.246935334056616" lon="8.029999528080225">
        <ele>1994.3199999999999</ele>
        <time>2020-01-09T07:27:49Z</time>
      </trkpt>
      <trkpt lat="46.246918821707368" lon="8.030119556933641">
        <ele>1998.0799999999999</ele>
        <time>2020-01-09T07:27:58Z</time>
      </trkpt>
      <trkpt lat="46.246920581907034" lon="8.030144618824124">
        <ele>1995.0599999999999</ele>
        <time>2020-01-09T07:28:00Z</time>
      </trkpt>
      <trkpt lat="46.246924102306366" lon="8.030200442299247">
        <ele>1996.6900000000001</ele>
        <time>2020-01-09T07:28:05Z</time>
      </trkpt>
      <trkpt lat="46.246938602998853" lon="8.030331702902913">
        <ele>1997.95</ele>
        <time>2020-01-09T07:28:15Z</time>
      </trkpt>
      <trkpt lat="46.246946314349771" lon="8.030371181666851">
        <ele>1998.2</ele>
        <time>2020-01-09T07:28:18Z</time>
      </trkpt>
      <trkpt lat="46.246977411210537" lon="8.030542843043804">
        <ele>1998.8</ele>
        <time>2020-01-09T07:28:30Z</time>
      </trkpt>
      <trkpt lat="46.247025020420551" lon="8.030772507190704">
        <ele>2000.05</ele>
        <time>2020-01-09T07:28:46Z</time>
      </trkpt>
      <trkpt lat="46.247044550254941" lon="8.030893206596375">
        <ele>2001.97</ele>
        <time>2020-01-09T07:28:59Z</time>
      </trkpt>
      <trkpt lat="46.247041029855609" lon="8.030894799157977">
        <ele>2001.3499999999999</ele>
        <time>2020-01-09T07:29:08Z</time>
      </trkpt>
      <trkpt lat="46.247053937986493" lon="8.030917765572667">
        <ele>2001.8599999999999</ele>
        <time>2020-01-09T07:29:11Z</time>
      </trkpt>
      <trkpt lat="46.24710607342422" lon="8.031153632327914">
        <ele>2004.01</ele>
        <time>2020-01-09T07:29:27Z</time>
      </trkpt>
      <trkpt lat="46.247158460319042" lon="8.031328143551946">
        <ele>2005.3399999999999</ele>
        <time>2020-01-09T07:29:40Z</time>
      </trkpt>
      <trkpt lat="46.247198944911361" lon="8.031524363905191">
        <ele>2006.6800000000001</ele>
        <time>2020-01-09T07:29:54Z</time>
      </trkpt>
      <trkpt lat="46.247232388705015" lon="8.031682195141912">
        <ele>2009.0799999999999</ele>
        <time>2020-01-09T07:30:06Z</time>
      </trkpt>
      <trkpt lat="46.247269185259938" lon="8.031824016943574">
        <ele>2011.25</ele>
        <time>2020-01-09T07:30:19Z</time>
      </trkpt>
      <trkpt lat="46.247314782813191" lon="8.031924599781632">
        <ele>2013.02</ele>
        <time>2020-01-09T07:30:30Z</time>
      </trkpt>
      <trkpt lat="46.247360548004508" lon="8.03200020454824">
        <ele>2014.78</ele>
        <time>2020-01-09T07:30:42Z</time>
      </trkpt>
      <trkpt lat="46.247355854138732" lon="8.032057452946901">
        <ele>2015.24</ele>
        <time>2020-01-09T07:30:56Z</time>
      </trkpt>
      <trkpt lat="46.247359961271286" lon="8.032057955861092">
        <ele>2013.8599999999999</ele>
        <time>2020-01-09T07:31:00Z</time>
      </trkpt>
      <trkpt lat="46.247362308204174" lon="8.03206130862236">
        <ele>2016.5899999999999</ele>
        <time>2020-01-09T07:31:11Z</time>
      </trkpt>
      <trkpt lat="46.247360212728381" lon="8.032063823193312">
        <ele>2014.71</ele>
        <time>2020-01-09T07:31:15Z</time>
      </trkpt>
      <trkpt lat="46.247368846088648" lon="8.032058542594314">
        <ele>2014.99</ele>
        <time>2020-01-09T07:31:52Z</time>
      </trkpt>
      <trkpt lat="46.247376222163439" lon="8.032144289463759">
        <ele>2014.95</ele>
        <time>2020-01-09T07:32:18Z</time>
      </trkpt>
      <trkpt lat="46.247381838038564" lon="8.032241268083453">
        <ele>2014.96</ele>
        <time>2020-01-09T07:32:28Z</time>
      </trkpt>
      <trkpt lat="46.247396087273955" lon="8.032367499545217">
        <ele>2017.21</ele>
        <time>2020-01-09T07:32:40Z</time>
      </trkpt>
      <trkpt lat="46.247426513582468" lon="8.032461628317833">
        <ele>2018.52</ele>
        <time>2020-01-09T07:32:49Z</time>
      </trkpt>
      <trkpt lat="46.247444115579128" lon="8.03252155892551">
        <ele>2019.6900000000001</ele>
        <time>2020-01-09T07:32:54Z</time>
      </trkpt>
      <trkpt lat="46.247463980689645" lon="8.032669415697455">
        <ele>2021.5899999999999</ele>
        <time>2020-01-09T07:33:06Z</time>
      </trkpt>
      <trkpt lat="46.24747060239315" lon="8.032812578603625">
        <ele>2023.02</ele>
        <time>2020-01-09T07:33:19Z</time>
      </trkpt>
      <trkpt lat="46.247467752546072" lon="8.032914837822318">
        <ele>2024.77</ele>
        <time>2020-01-09T07:33:30Z</time>
      </trkpt>
      <trkpt lat="46.247480660676956" lon="8.033028077334166">
        <ele>2026.71</ele>
        <time>2020-01-09T07:33:42Z</time>
      </trkpt>
      <trkpt lat="46.24749843031168" lon="8.033173587173224">
        <ele>2028.71</ele>
        <time>2020-01-09T07:33:57Z</time>
      </trkpt>
      <trkpt lat="46.247503124177456" lon="8.033306440338492">
        <ele>2030.03</ele>
        <time>2020-01-09T07:34:09Z</time>
      </trkpt>
      <trkpt lat="46.247509410604835" lon="8.033443065360189">
        <ele>2030.9300000000001</ele>
        <time>2020-01-09T07:34:20Z</time>
      </trkpt>
      <trkpt lat="46.247517792508006" lon="8.03356820717454">
        <ele>2030.78</ele>
        <time>2020-01-09T07:34:30Z</time>
      </trkpt>
      <trkpt lat="46.247528856620193" lon="8.033618498593569">
        <ele>2030.6300000000001</ele>
        <time>2020-01-09T07:34:34Z</time>
      </trkpt>
      <trkpt lat="46.247537909075618" lon="8.033794099465013">
        <ele>2031.4300000000001</ele>
        <time>2020-01-09T07:34:48Z</time>
      </trkpt>
      <trkpt lat="46.247598426416516" lon="8.033908344805241">
        <ele>2032.78</ele>
        <time>2020-01-09T07:35:01Z</time>
      </trkpt>
      <trkpt lat="46.247619548812509" lon="8.034060476347804">
        <ele>2034.96</ele>
        <time>2020-01-09T07:35:15Z</time>
      </trkpt>
      <trkpt lat="46.247557774186134" lon="8.034156868234277">
        <ele>2037.6099999999999</ele>
        <time>2020-01-09T07:35:29Z</time>
      </trkpt>
      <trkpt lat="46.247499519959092" lon="8.034236999228597">
        <ele>2039.8699999999999</ele>
        <time>2020-01-09T07:35:42Z</time>
      </trkpt>
      <trkpt lat="46.247464315965772" lon="8.034362811595202">
        <ele>2041.73</ele>
        <time>2020-01-09T07:35:56Z</time>
      </trkpt>
      <trkpt lat="46.247460627928376" lon="8.034476470202208">
        <ele>2043.1700000000001</ele>
        <time>2020-01-09T07:36:08Z</time>
      </trkpt>
      <trkpt lat="46.247443528845906" lon="8.034560875967145">
        <ele>2045.1900000000001</ele>
        <time>2020-01-09T07:36:19Z</time>
      </trkpt>
      <trkpt lat="46.247434392571449" lon="8.034610496833921">
        <ele>2045.72</ele>
        <time>2020-01-09T07:36:33Z</time>
      </trkpt>
      <trkpt lat="46.247431039810181" lon="8.034610832110047">
        <ele>2046.99</ele>
        <time>2020-01-09T07:36:38Z</time>
      </trkpt>
      <trkpt lat="46.247433889657259" lon="8.034616867080331">
        <ele>2046.3399999999999</ele>
        <time>2020-01-09T07:36:55Z</time>
      </trkpt>
      <trkpt lat="46.247417461127043" lon="8.034654669463635">
        <ele>2047.3900000000001</ele>
        <time>2020-01-09T07:37:08Z</time>
      </trkpt>
      <trkpt lat="46.247389717027545" lon="8.034737147390842">
        <ele>2049.0999999999999</ele>
        <time>2020-01-09T07:37:20Z</time>
      </trkpt>
      <trkpt lat="46.247362056747079" lon="8.034836137667298">
        <ele>2050.9699999999998</ele>
        <time>2020-01-09T07:37:32Z</time>
      </trkpt>
      <trkpt lat="46.247431039810181" lon="8.03489338606596">
        <ele>2052.98</ele>
        <time>2020-01-09T07:37:45Z</time>
      </trkpt>
      <trkpt lat="46.247494323179126" lon="8.034895649179816">
        <ele>2055.0799999999999</ele>
        <time>2020-01-09T07:37:56Z</time>
      </trkpt>
      <trkpt lat="46.247551487758756" lon="8.034924482926726">
        <ele>2056.8299999999999</ele>
        <time>2020-01-09T07:38:07Z</time>
      </trkpt>
      <trkpt lat="46.247554337605834" lon="8.035006457939744">
        <ele>2058.9699999999998</ele>
        <time>2020-01-09T07:38:18Z</time>
      </trkpt>
      <trkpt lat="46.247555511072278" lon="8.035137886181474">
        <ele>2061.8600000000001</ele>
        <time>2020-01-09T07:38:34Z</time>
      </trkpt>
      <trkpt lat="46.247563390061259" lon="8.03524031303823">
        <ele>2063.8200000000002</ele>
        <time>2020-01-09T07:38:47Z</time>
      </trkpt>
      <trkpt lat="46.247581075876951" lon="8.0353316757828">
        <ele>2065.77</ele>
        <time>2020-01-09T07:39:00Z</time>
      </trkpt>
      <trkpt lat="46.247583674266934" lon="8.035417003557086">
        <ele>2067.8000000000002</ele>
        <time>2020-01-09T07:39:13Z</time>
      </trkpt>
      <trkpt lat="46.247540842741728" lon="8.035482969135046">
        <ele>2069.54</ele>
        <time>2020-01-09T07:39:25Z</time>
      </trkpt>
      <trkpt lat="46.247518630698323" lon="8.035549186170101">
        <ele>2071.25</ele>
        <time>2020-01-09T07:39:37Z</time>
      </trkpt>
      <trkpt lat="46.247515026479959" lon="8.035551281645894">
        <ele>2070.29</ele>
        <time>2020-01-09T07:39:50Z</time>
      </trkpt>
      <trkpt lat="46.247513182461262" lon="8.035550024360418">
        <ele>2071.1100000000001</ele>
        <time>2020-01-09T07:40:01Z</time>
      </trkpt>
      <trkpt lat="46.247515948489308" lon="8.035540217533708">
        <ele>2071.5799999999999</ele>
        <time>2020-01-09T07:40:16Z</time>
      </trkpt>
      <trkpt lat="46.247513517737389" lon="8.035539044067264">
        <ele>2071.7199999999998</ele>
        <time>2020-01-09T07:40:46Z</time>
      </trkpt>
      <trkpt lat="46.247514942660928" lon="8.035541139543057">
        <ele>2071.5999999999999</ele>
        <time>2020-01-09T07:41:02Z</time>
      </trkpt>
      <trkpt lat="46.24751946888864" lon="8.035547342151403">
        <ele>2070.7199999999998</ele>
        <time>2020-01-09T07:41:27Z</time>
      </trkpt>
      <trkpt lat="46.247535729780793" lon="8.035596879199147">
        <ele>2072.1599999999999</ele>
        <time>2020-01-09T07:41:38Z</time>
      </trkpt>
      <trkpt lat="46.247578142210841" lon="8.035751860588789">
        <ele>2074.27</ele>
        <time>2020-01-09T07:41:51Z</time>
      </trkpt>
      <trkpt lat="46.247610496357083" lon="8.035877924412489">
        <ele>2075.75</ele>
        <time>2020-01-09T07:42:03Z</time>
      </trkpt>
      <trkpt lat="46.247655004262924" lon="8.035987140610814">
        <ele>2078.5700000000002</ele>
        <time>2020-01-09T07:42:16Z</time>
      </trkpt>
      <trkpt lat="46.247703703120351" lon="8.036098452284932">
        <ele>2081.6100000000001</ele>
        <time>2020-01-09T07:42:30Z</time>
      </trkpt>
      <trkpt lat="46.247741170227528" lon="8.036196269094944">
        <ele>2083.4400000000001</ele>
        <time>2020-01-09T07:42:42Z</time>
      </trkpt>
      <trkpt lat="46.247761957347393" lon="8.036272125318646">
        <ele>2084.6900000000001</ele>
        <time>2020-01-09T07:42:56Z</time>
      </trkpt>
      <trkpt lat="46.247787605971098" lon="8.036389471963048">
        <ele>2085.8200000000002</ele>
        <time>2020-01-09T07:43:08Z</time>
      </trkpt>
      <trkpt lat="46.247804956510663" lon="8.036497347056866">
        <ele>2087.75</ele>
        <time>2020-01-09T07:43:19Z</time>
      </trkpt>
      <trkpt lat="46.247825492173433" lon="8.036696501076222">
        <ele>2090.0599999999999</ele>
        <time>2020-01-09T07:43:38Z</time>
      </trkpt>
      <trkpt lat="46.247877376154065" lon="8.036806555464864">
        <ele>2092.04</ele>
        <time>2020-01-09T07:43:50Z</time>
      </trkpt>
      <trkpt lat="46.247948538511992" lon="8.036932703107595">
        <ele>2094.0100000000002</ele>
        <time>2020-01-09T07:44:05Z</time>
      </trkpt>
      <trkpt lat="46.248010145500302" lon="8.037045188248158">
        <ele>2096.4899999999998</ele>
        <time>2020-01-09T07:44:20Z</time>
      </trkpt>
      <trkpt lat="46.248032106086612" lon="8.037185166031122">
        <ele>2098.8600000000001</ele>
        <time>2020-01-09T07:44:35Z</time>
      </trkpt>
      <trkpt lat="46.24802908860147" lon="8.037341991439462">
        <ele>2100.8000000000002</ele>
        <time>2020-01-09T07:44:51Z</time>
      </trkpt>
      <trkpt lat="46.248006373643875" lon="8.037488842383027">
        <ele>2102.8400000000001</ele>
        <time>2020-01-09T07:45:06Z</time>
      </trkpt>
      <trkpt lat="46.247968319803476" lon="8.037594789639115">
        <ele>2104.8099999999999</ele>
        <time>2020-01-09T07:45:19Z</time>
      </trkpt>
      <trkpt lat="46.247925153002143" lon="8.037694366648793">
        <ele>2106.4299999999998</ele>
        <time>2020-01-09T07:45:32Z</time>
      </trkpt>
      <trkpt lat="46.247880980372429" lon="8.037805259227753">
        <ele>2109.4400000000001</ele>
        <time>2020-01-09T07:45:49Z</time>
      </trkpt>
      <trkpt lat="46.247867150232196" lon="8.03787793032825">
        <ele>2111.1100000000001</ele>
        <time>2020-01-09T07:46:02Z</time>
      </trkpt>
      <trkpt lat="46.247862204909325" lon="8.03786912932992">
        <ele>2111.0500000000002</ele>
        <time>2020-01-09T07:46:21Z</time>
      </trkpt>
      <trkpt lat="46.247863965108991" lon="8.037867872044444">
        <ele>2109.9000000000001</ele>
        <time>2020-01-09T07:46:33Z</time>
      </trkpt>
      <trkpt lat="46.247855415567756" lon="8.037876421585679">
        <ele>2109.9200000000001</ele>
        <time>2020-01-09T07:47:15Z</time>
      </trkpt>
      <trkpt lat="46.247852900996804" lon="8.037878097966313">
        <ele>2110.1900000000001</ele>
        <time>2020-01-09T07:47:41Z</time>
      </trkpt>
      <trkpt lat="46.247856505215168" lon="8.037885138764978">
        <ele>2111.3400000000001</ele>
        <time>2020-01-09T07:47:54Z</time>
      </trkpt>
      <trkpt lat="46.247861031442881" lon="8.037881115451455">
        <ele>2111.0999999999999</ele>
        <time>2020-01-09T07:48:12Z</time>
      </trkpt>
      <trkpt lat="46.247860612347722" lon="8.037937022745609">
        <ele>2111.23</ele>
        <time>2020-01-09T07:48:25Z</time>
      </trkpt>
      <trkpt lat="46.247866312041879" lon="8.03806166164577">
        <ele>2113.3000000000002</ele>
        <time>2020-01-09T07:48:37Z</time>
      </trkpt>
      <trkpt lat="46.247885590419173" lon="8.038100805133581">
        <ele>2114.0300000000002</ele>
        <time>2020-01-09T07:48:41Z</time>
      </trkpt>
      <trkpt lat="46.247932445257902" lon="8.038234915584326">
        <ele>2116.6799999999998</ele>
        <time>2020-01-09T07:48:55Z</time>
      </trkpt>
      <trkpt lat="46.247970331460238" lon="8.038350837305188">
        <ele>2118.7600000000002</ele>
        <time>2020-01-09T07:49:07Z</time>
      </trkpt>
      <trkpt lat="46.247989609837532" lon="8.038461478427053">
        <ele>2121.4000000000001</ele>
        <time>2020-01-09T07:49:20Z</time>
      </trkpt>
      <trkpt lat="46.248016683384776" lon="8.038577316328883">
        <ele>2124.48</ele>
        <time>2020-01-09T07:49:34Z</time>
      </trkpt>
      <trkpt lat="46.248047109693289" lon="8.038715198636055">
        <ele>2126.1300000000001</ele>
        <time>2020-01-09T07:49:48Z</time>
      </trkpt>
      <trkpt lat="46.248066388070583" lon="8.038814943283796">
        <ele>2127.48</ele>
        <time>2020-01-09T07:49:58Z</time>
      </trkpt>
      <trkpt lat="46.24807451851666" lon="8.038911838084459">
        <ele>2128.4899999999998</ele>
        <time>2020-01-09T07:50:07Z</time>
      </trkpt>
      <trkpt lat="46.248064460232854" lon="8.039000937715173">
        <ele>2129.5500000000002</ele>
        <time>2020-01-09T07:50:21Z</time>
      </trkpt>
      <trkpt lat="46.24805792234838" lon="8.039092300459743">
        <ele>2130.5799999999999</ele>
        <time>2020-01-09T07:50:35Z</time>
      </trkpt>
      <trkpt lat="46.248052138835192" lon="8.039205204695463">
        <ele>2132.3699999999999</ele>
        <time>2020-01-09T07:50:47Z</time>
      </trkpt>
      <trkpt lat="46.248022131621838" lon="8.039293214678764">
        <ele>2134.8899999999999</ele>
        <time>2020-01-09T07:51:00Z</time>
      </trkpt>
      <trkpt lat="46.24796848744154" lon="8.039373178035021">
        <ele>2136.5599999999999</ele>
        <time>2020-01-09T07:51:11Z</time>
      </trkpt>
      <trkpt lat="46.247945185750723" lon="8.039381979033351">
        <ele>2136.9499999999998</ele>
        <time>2020-01-09T07:51:23Z</time>
      </trkpt>
      <trkpt lat="46.247934959828854" lon="8.039419362321496">
        <ele>2136.8000000000002</ele>
        <time>2020-01-09T07:51:33Z</time>
      </trkpt>
      <trkpt lat="46.247932696714997" lon="8.039448531344533">
        <ele>2136.9200000000001</ele>
        <time>2020-01-09T07:51:35Z</time>
      </trkpt>
      <trkpt lat="46.247914340347052" lon="8.039622204378247">
        <ele>2137.29</ele>
        <time>2020-01-09T07:51:48Z</time>
      </trkpt>
      <trkpt lat="46.247907131910324" lon="8.039792021736503">
        <ele>2138.3400000000001</ele>
        <time>2020-01-09T07:52:02Z</time>
      </trkpt>
      <trkpt lat="46.247922973707318" lon="8.039950272068381">
        <ele>2139.5300000000002</ele>
        <time>2020-01-09T07:52:16Z</time>
      </trkpt>
      <trkpt lat="46.247937055304646" lon="8.040066948160529">
        <ele>2140.9400000000001</ele>
        <time>2020-01-09T07:52:28Z</time>
      </trkpt>
      <trkpt lat="46.247940408065915" lon="8.040179684758186">
        <ele>2142.5100000000002</ele>
        <time>2020-01-09T07:52:41Z</time>
      </trkpt>
      <trkpt lat="46.247964045032859" lon="8.040309604257345">
        <ele>2144.7600000000002</ele>
        <time>2020-01-09T07:52:56Z</time>
      </trkpt>
      <trkpt lat="46.247979048639536" lon="8.040410354733467">
        <ele>2146.3299999999999</ele>
        <time>2020-01-09T07:53:09Z</time>
      </trkpt>
      <trkpt lat="46.2479895260185" lon="8.040521834045649">
        <ele>2148.3899999999999</ele>
        <time>2020-01-09T07:53:24Z</time>
      </trkpt>
      <trkpt lat="46.247995141893625" lon="8.040588973090053">
        <ele>2149.6300000000001</ele>
        <time>2020-01-09T07:53:34Z</time>
      </trkpt>
      <trkpt lat="46.248020203784108" lon="8.040675474330783">
        <ele>2151.0300000000002</ele>
        <time>2020-01-09T07:53:45Z</time>
      </trkpt>
      <trkpt lat="46.248015174642205" lon="8.040787540376186">
        <ele>2152.9299999999998</ele>
        <time>2020-01-09T07:53:59Z</time>
      </trkpt>
      <trkpt lat="46.247997740283608" lon="8.040904132649303">
        <ele>2155.7800000000002</ele>
        <time>2020-01-09T07:54:15Z</time>
      </trkpt>
      <trkpt lat="46.247982233762741" lon="8.040982000529766">
        <ele>2157.4699999999998</ele>
        <time>2020-01-09T07:54:26Z</time>
      </trkpt>
      <trkpt lat="46.247946359217167" lon="8.041109489277005">
        <ele>2160.0700000000002</ele>
        <time>2020-01-09T07:54:43Z</time>
      </trkpt>
      <trkpt lat="46.247881902381778" lon="8.041238822042942">
        <ele>2161.5500000000002</ele>
        <time>2020-01-09T07:54:57Z</time>
      </trkpt>
      <trkpt lat="46.247836975380778" lon="8.041366897523403">
        <ele>2162.5500000000002</ele>
        <time>2020-01-09T07:55:11Z</time>
      </trkpt>
      <trkpt lat="46.247797077521682" lon="8.041483405977488">
        <ele>2163.4699999999998</ele>
        <time>2020-01-09T07:55:24Z</time>
      </trkpt>
      <trkpt lat="46.24775055795908" lon="8.041592286899686">
        <ele>2164.71</ele>
        <time>2020-01-09T07:55:36Z</time>
      </trkpt>
      <trkpt lat="46.247712085023522" lon="8.041679374873638">
        <ele>2167.5599999999999</ele>
        <time>2020-01-09T07:55:49Z</time>
      </trkpt>
      <trkpt lat="46.247683838009834" lon="8.041757997125387">
        <ele>2169.75</ele>
        <time>2020-01-09T07:56:02Z</time>
      </trkpt>
      <trkpt lat="46.24765433371067" lon="8.041817676275969">
        <ele>2172.0900000000001</ele>
        <time>2020-01-09T07:56:14Z</time>
      </trkpt>
      <trkpt lat="46.24758493155241" lon="8.041814742609859">
        <ele>2174.4899999999998</ele>
        <time>2020-01-09T07:56:27Z</time>
      </trkpt>
      <trkpt lat="46.247568670660257" lon="8.041846761479974">
        <ele>2176.1100000000001</ele>
        <time>2020-01-09T07:56:38Z</time>
      </trkpt>
      <trkpt lat="46.247572274878621" lon="8.041881714016199">
        <ele>2175.6599999999999</ele>
        <time>2020-01-09T07:56:53Z</time>
      </trkpt>
      <trkpt lat="46.247577304020524" lon="8.041964359581471">
        <ele>2175.23</ele>
        <time>2020-01-09T07:57:05Z</time>
      </trkpt>
      <trkpt lat="46.247581327334046" lon="8.041981291025877">
        <ele>2174.6799999999998</ele>
        <time>2020-01-09T07:57:07Z</time>
      </trkpt>
      <trkpt lat="46.247602701187134" lon="8.042050860822201">
        <ele>2172.5</ele>
        <time>2020-01-09T07:57:12Z</time>
      </trkpt>
      <trkpt lat="46.247642179951072" lon="8.042232329025865">
        <ele>2171.8400000000001</ele>
        <time>2020-01-09T07:57:25Z</time>
      </trkpt>
      <trkpt lat="46.247683838009834" lon="8.042413210496306">
        <ele>2170.1799999999998</ele>
        <time>2020-01-09T07:57:38Z</time>
      </trkpt>
      <trkpt lat="46.247711582109332" lon="8.042594091966748">
        <ele>2169.5900000000001</ele>
        <time>2020-01-09T07:57:51Z</time>
      </trkpt>
      <trkpt lat="46.247710743919015" lon="8.042660476639867">
        <ele>2169.2600000000002</ele>
        <time>2020-01-09T07:57:56Z</time>
      </trkpt>
      <trkpt lat="46.247707894071937" lon="8.042732309550047">
        <ele>2169.4699999999998</ele>
        <time>2020-01-09T07:58:01Z</time>
      </trkpt>
      <trkpt lat="46.247707307338715" lon="8.042774805799127">
        <ele>2169.27</ele>
        <time>2020-01-09T07:58:04Z</time>
      </trkpt>
      <trkpt lat="46.247688112780452" lon="8.042925596237183">
        <ele>2170.3699999999999</ele>
        <time>2020-01-09T07:58:17Z</time>
      </trkpt>
      <trkpt lat="46.247670175507665" lon="8.043024921789765">
        <ele>2171.4000000000001</ele>
        <time>2020-01-09T07:58:26Z</time>
      </trkpt>
      <trkpt lat="46.247632205486298" lon="8.04317663423717">
        <ele>2172.2800000000002</ele>
        <time>2020-01-09T07:58:39Z</time>
      </trkpt>
      <trkpt lat="46.247603790834546" lon="8.043315522372723">
        <ele>2173.0900000000001</ele>
        <time>2020-01-09T07:58:50Z</time>
      </trkpt>
      <trkpt lat="46.247585853561759" lon="8.043451895937324">
        <ele>2174.52</ele>
        <time>2020-01-09T07:59:02Z</time>
      </trkpt>
      <trkpt lat="46.247573029249907" lon="8.043596316128969">
        <ele>2177.1500000000001</ele>
        <time>2020-01-09T07:59:17Z</time>
      </trkpt>
      <trkpt lat="46.24759272672236" lon="8.043709304183722">
        <ele>2179.46</ele>
        <time>2020-01-09T07:59:29Z</time>
      </trkpt>
      <trkpt lat="46.247565317898989" lon="8.043813407421112">
        <ele>2181.6999999999998</ele>
        <time>2020-01-09T07:59:43Z</time>
      </trkpt>
      <trkpt lat="46.247560875490308" lon="8.043926814571023">
        <ele>2183.5</ele>
        <time>2020-01-09T07:59:56Z</time>
      </trkpt>
      <trkpt lat="46.247548889368773" lon="8.043978027999401">
        <ele>2184.6500000000001</ele>
        <time>2020-01-09T08:00:08Z</time>
      </trkpt>
      <trkpt lat="46.247518630698323" lon="8.043979117646813">
        <ele>2184.75</ele>
        <time>2020-01-09T08:00:26Z</time>
      </trkpt>
      <trkpt lat="46.24751603230834" lon="8.043980374932289">
        <ele>2184.8800000000001</ele>
        <time>2020-01-09T08:00:39Z</time>
      </trkpt>
      <trkpt lat="46.247514858841896" lon="8.043995462357998">
        <ele>2184.8400000000001</ele>
        <time>2020-01-09T08:00:56Z</time>
      </trkpt>
      <trkpt lat="46.24754729680717" lon="8.044066959992051">
        <ele>2185.1100000000001</ele>
        <time>2020-01-09T08:01:08Z</time>
      </trkpt>
      <trkpt lat="46.247549224644899" lon="8.044075341895223">
        <ele>2185.1700000000001</ele>
        <time>2020-01-09T08:01:09Z</time>
      </trkpt>
      <trkpt lat="46.247581746429205" lon="8.044213056564331">
        <ele>2186.2199999999998</ele>
        <time>2020-01-09T08:01:21Z</time>
      </trkpt>
      <trkpt lat="46.247593061998487" lon="8.044338282197714">
        <ele>2187.2199999999998</ele>
        <time>2020-01-09T08:01:32Z</time>
      </trkpt>
      <trkpt lat="46.247613597661257" lon="8.044477170333266">
        <ele>2188.0900000000001</ele>
        <time>2020-01-09T08:01:45Z</time>
      </trkpt>
      <trkpt lat="46.247601360082626" lon="8.04458973929286">
        <ele>2189.1199999999999</ele>
        <time>2020-01-09T08:01:58Z</time>
      </trkpt>
      <trkpt lat="46.247596414759755" lon="8.044683281332254">
        <ele>2190.0100000000002</ele>
        <time>2020-01-09T08:02:08Z</time>
      </trkpt>
      <trkpt lat="46.247594067826867" lon="8.044769279658794">
        <ele>2190.1700000000001</ele>
        <time>2020-01-09T08:02:20Z</time>
      </trkpt>
      <trkpt lat="46.247597839683294" lon="8.044808758422732">
        <ele>2190.23</ele>
        <time>2020-01-09T08:02:23Z</time>
      </trkpt>
      <trkpt lat="46.247612927109003" lon="8.04498846642673">
        <ele>2189.4000000000001</ele>
        <time>2020-01-09T08:02:37Z</time>
      </trkpt>
      <trkpt lat="46.247638994827867" lon="8.045155433937907">
        <ele>2188.79</ele>
        <time>2020-01-09T08:02:50Z</time>
      </trkpt>
      <trkpt lat="46.247660536319017" lon="8.045275043696165">
        <ele>2187.73</ele>
        <time>2020-01-09T08:03:03Z</time>
      </trkpt>
      <trkpt lat="46.247660117223859" lon="8.045273702591658">
        <ele>2187.6300000000001</ele>
        <time>2020-01-09T08:03:16Z</time>
      </trkpt>
      <trkpt lat="46.247661374509335" lon="8.045282000675798">
        <ele>2188</ele>
        <time>2020-01-09T08:03:18Z</time>
      </trkpt>
      <trkpt lat="46.247666822746396" lon="8.045308822765946">
        <ele>2188.27</ele>
        <time>2020-01-09T08:03:20Z</time>
      </trkpt>
      <trkpt lat="46.247694483026862" lon="8.045528512448072">
        <ele>2186.5700000000002</ele>
        <time>2020-01-09T08:03:35Z</time>
      </trkpt>
      <trkpt lat="46.247719628736377" lon="8.045704532414675">
        <ele>2184.71</ele>
        <time>2020-01-09T08:03:50Z</time>
      </trkpt>
      <trkpt lat="46.247722813859582" lon="8.045787429437041">
        <ele>2183.8200000000002</ele>
        <time>2020-01-09T08:04:01Z</time>
      </trkpt>
      <trkpt lat="46.247722394764423" lon="8.045799750834703">
        <ele>2183.8699999999999</ele>
        <time>2020-01-09T08:04:02Z</time>
      </trkpt>
      <trkpt lat="46.247720802202821" lon="8.045865381136537">
        <ele>2182.73</ele>
        <time>2020-01-09T08:04:17Z</time>
      </trkpt>
      <trkpt lat="46.24772566370666" lon="8.045928161591291">
        <ele>2181.4699999999998</ele>
        <time>2020-01-09T08:04:29Z</time>
      </trkpt>
      <trkpt lat="46.247720969840884" lon="8.045947859063745">
        <ele>2181.6300000000001</ele>
        <time>2020-01-09T08:04:43Z</time>
      </trkpt>
      <trkpt lat="46.247721556574106" lon="8.045963197946549">
        <ele>2181.4499999999998</ele>
        <time>2020-01-09T08:04:44Z</time>
      </trkpt>
      <trkpt lat="46.247748378664255" lon="8.046156736090779">
        <ele>2179.8000000000002</ele>
        <time>2020-01-09T08:04:57Z</time>
      </trkpt>
      <trkpt lat="46.247783834114671" lon="8.046331666409969">
        <ele>2178.0999999999999</ele>
        <time>2020-01-09T08:05:09Z</time>
      </trkpt>
      <trkpt lat="46.247829599305987" lon="8.046511961147189">
        <ele>2176.1399999999999</ele>
        <time>2020-01-09T08:05:22Z</time>
      </trkpt>
      <trkpt lat="46.247846027836204" lon="8.046609610319138">
        <ele>2175.7199999999998</ele>
        <time>2020-01-09T08:05:35Z</time>
      </trkpt>
      <trkpt lat="46.247848374769092" lon="8.046615058556199">
        <ele>2175.6300000000001</ele>
        <time>2020-01-09T08:05:37Z</time>
      </trkpt>
      <trkpt lat="46.247871927917004" lon="8.046745900064707">
        <ele>2175.21</ele>
        <time>2020-01-09T08:05:47Z</time>
      </trkpt>
      <trkpt lat="46.247852398082614" lon="8.046918902546167">
        <ele>2175.6599999999999</ele>
        <time>2020-01-09T08:06:02Z</time>
      </trkpt>
      <trkpt lat="46.247849548235536" lon="8.047042284160852">
        <ele>2176.04</ele>
        <time>2020-01-09T08:06:13Z</time>
      </trkpt>
      <trkpt lat="46.247845608741045" lon="8.047174718230963">
        <ele>2177.2800000000002</ele>
        <time>2020-01-09T08:06:27Z</time>
      </trkpt>
      <trkpt lat="46.247834293171763" lon="8.047204306349158">
        <ele>2177.23</ele>
        <time>2020-01-09T08:06:42Z</time>
      </trkpt>
      <trkpt lat="46.247821804136038" lon="8.04728988558054">
        <ele>2179.0500000000002</ele>
        <time>2020-01-09T08:06:53Z</time>
      </trkpt>
      <trkpt lat="46.247820211574435" lon="8.047356940805912">
        <ele>2180.3899999999999</ele>
        <time>2020-01-09T08:07:04Z</time>
      </trkpt>
      <trkpt lat="46.247804369777441" lon="8.047464564442635">
        <ele>2180.8699999999999</ele>
        <time>2020-01-09T08:07:16Z</time>
      </trkpt>
      <trkpt lat="46.247812164947391" lon="8.047572020441294">
        <ele>2181.2800000000002</ele>
        <time>2020-01-09T08:07:30Z</time>
      </trkpt>
      <trkpt lat="46.247811326757073" lon="8.047629185020924">
        <ele>2181.4099999999999</ele>
        <time>2020-01-09T08:07:40Z</time>
      </trkpt>
      <trkpt lat="46.247803447768092" lon="8.047679727897048">
        <ele>2181.77</ele>
        <time>2020-01-09T08:07:51Z</time>
      </trkpt>
      <trkpt lat="46.247803112491965" lon="8.047727001830936">
        <ele>2181.8200000000002</ele>
        <time>2020-01-09T08:08:02Z</time>
      </trkpt>
      <trkpt lat="46.24779992736876" lon="8.047760026529431">
        <ele>2181.6599999999999</ele>
        <time>2020-01-09T08:08:15Z</time>
      </trkpt>
      <trkpt lat="46.24779992736876" lon="8.047777796164155">
        <ele>2181.6999999999998</ele>
        <time>2020-01-09T08:08:32Z</time>
      </trkpt>
      <trkpt lat="46.247808812186122" lon="8.047813251614571">
        <ele>2181.3400000000001</ele>
        <time>2020-01-09T08:08:43Z</time>
      </trkpt>
      <trkpt lat="46.247811326757073" lon="8.047816101461649">
        <ele>2181.3099999999999</ele>
        <time>2020-01-09T08:09:00Z</time>
      </trkpt>
      <trkpt lat="46.24778819270432" lon="8.047855412587524">
        <ele>2182.3299999999999</ele>
        <time>2020-01-09T08:09:10Z</time>
      </trkpt>
      <trkpt lat="46.247761538252234" lon="8.047941075637937">
        <ele>2184.04</ele>
        <time>2020-01-09T08:09:23Z</time>
      </trkpt>
      <trkpt lat="46.247738404199481" lon="8.048038389533758">
        <ele>2185.3099999999999</ele>
        <time>2020-01-09T08:09:35Z</time>
      </trkpt>
      <trkpt lat="46.247741170227528" lon="8.048077197745442">
        <ele>2185.1799999999998</ele>
        <time>2020-01-09T08:09:50Z</time>
      </trkpt>
      <trkpt lat="46.247736308723688" lon="8.048079879954457">
        <ele>2185.3699999999999</ele>
        <time>2020-01-09T08:10:09Z</time>
      </trkpt>
      <trkpt lat="46.247731950134039" lon="8.048077449202538">
        <ele>2185.1599999999999</ele>
        <time>2020-01-09T08:10:22Z</time>
      </trkpt>
      <trkpt lat="46.247727926820517" lon="8.048090105876327">
        <ele>2185.04</ele>
        <time>2020-01-09T08:10:36Z</time>
      </trkpt>
      <trkpt lat="46.247734716162086" lon="8.048058087006211">
        <ele>2185.3499999999999</ele>
        <time>2020-01-09T08:10:48Z</time>
      </trkpt>
      <trkpt lat="46.247706552967429" lon="8.047939818352461">
        <ele>2185.5999999999999</ele>
        <time>2020-01-09T08:11:01Z</time>
      </trkpt>
      <trkpt lat="46.24767579138279" lon="8.047822304069996">
        <ele>2187.4299999999998</ele>
        <time>2020-01-09T08:11:15Z</time>
      </trkpt>
      <trkpt lat="46.247652154415846" lon="8.047725660726428">
        <ele>2188.2600000000002</ele>
        <time>2020-01-09T08:11:30Z</time>
      </trkpt>
      <trkpt lat="46.247624326497316" lon="8.047629101201892">
        <ele>2189.0700000000002</ele>
        <time>2020-01-09T08:11:44Z</time>
      </trkpt>
      <trkpt lat="46.247613094747066" lon="8.047527931630611">
        <ele>2189.8000000000002</ele>
        <time>2020-01-09T08:11:58Z</time>
      </trkpt>
      <trkpt lat="46.247594486922026" lon="8.047440508380532">
        <ele>2191.21</ele>
        <time>2020-01-09T08:12:12Z</time>
      </trkpt>
      <trkpt lat="46.247582668438554" lon="8.047378482297063">
        <ele>2191.48</ele>
        <time>2020-01-09T08:12:23Z</time>
      </trkpt>
      <trkpt lat="46.24756833538413" lon="8.04733632132411">
        <ele>2192.3699999999999</ele>
        <time>2020-01-09T08:12:33Z</time>
      </trkpt>
      <trkpt lat="46.247542602941394" lon="8.047277899459004">
        <ele>2193.48</ele>
        <time>2020-01-09T08:12:46Z</time>
      </trkpt>
      <trkpt lat="46.247512931004167" lon="8.047226015478373">
        <ele>2194.4400000000001</ele>
        <time>2020-01-09T08:12:59Z</time>
      </trkpt>
      <trkpt lat="46.247485941275954" lon="8.047173712402582">
        <ele>2196.2199999999998</ele>
        <time>2020-01-09T08:13:11Z</time>
      </trkpt>
      <trkpt lat="46.247448557987809" lon="8.047114117071033">
        <ele>2197.0599999999999</ele>
        <time>2020-01-09T08:13:27Z</time>
      </trkpt>
      <trkpt lat="46.247435566037893" lon="8.047082014381886">
        <ele>2197.4899999999998</ele>
        <time>2020-01-09T08:13:42Z</time>
      </trkpt>
      <trkpt lat="46.247410252690315" lon="8.047003811225295">
        <ele>2198.1599999999999</ele>
        <time>2020-01-09T08:13:53Z</time>
      </trkpt>
      <trkpt lat="46.247389046475291" lon="8.046905407682061">
        <ele>2199.3800000000001</ele>
        <time>2020-01-09T08:14:08Z</time>
      </trkpt>
      <trkpt lat="46.247384687885642" lon="8.046845057979226">
        <ele>2200.1999999999998</ele>
        <time>2020-01-09T08:14:20Z</time>
      </trkpt>
      <trkpt lat="46.247377311810851" lon="8.046792922541499">
        <ele>2200.6399999999999</ele>
        <time>2020-01-09T08:14:32Z</time>
      </trkpt>
      <trkpt lat="46.247378317639232" lon="8.04676023311913">
        <ele>2199.98</ele>
        <time>2020-01-09T08:14:46Z</time>
      </trkpt>
      <trkpt lat="46.247370773926377" lon="8.046690579503775">
        <ele>2201.4499999999998</ele>
        <time>2020-01-09T08:14:59Z</time>
      </trkpt>
      <trkpt lat="46.247359961271286" lon="8.046566527336836">
        <ele>2202.8099999999999</ele>
        <time>2020-01-09T08:15:18Z</time>
      </trkpt>
      <trkpt lat="46.24734940007329" lon="8.04649343714118">
        <ele>2203.3899999999999</ele>
        <time>2020-01-09T08:15:33Z</time>
      </trkpt>
      <trkpt lat="46.247343281283975" lon="8.046420011669397">
        <ele>2204.21</ele>
        <time>2020-01-09T08:15:46Z</time>
      </trkpt>
      <trkpt lat="46.24732450582087" lon="8.046350525692105">
        <ele>2204.9499999999998</ele>
        <time>2020-01-09T08:16:00Z</time>
      </trkpt>
      <trkpt lat="46.247317213565111" lon="8.046336863189936">
        <ele>2205.1700000000001</ele>
        <time>2020-01-09T08:16:13Z</time>
      </trkpt>
      <trkpt lat="46.247309669852257" lon="8.046324625611305">
        <ele>2205.46</ele>
        <time>2020-01-09T08:16:25Z</time>
      </trkpt>
      <trkpt lat="46.247307658195496" lon="8.046303419396281">
        <ele>2205.6399999999999</ele>
        <time>2020-01-09T08:16:38Z</time>
      </trkpt>
      <trkpt lat="46.247298354282975" lon="8.046279279515147">
        <ele>2206.1399999999999</ele>
        <time>2020-01-09T08:16:53Z</time>
      </trkpt>
      <trkpt lat="46.247265413403511" lon="8.046209877356887">
        <ele>2207.9299999999998</ele>
        <time>2020-01-09T08:17:09Z</time>
      </trkpt>
      <trkpt lat="46.247259294614196" lon="8.046182887628675">
        <ele>2207.8400000000001</ele>
        <time>2020-01-09T08:17:19Z</time>
      </trkpt>
      <trkpt lat="46.247249571606517" lon="8.046173835173249">
        <ele>2208.5599999999999</ele>
        <time>2020-01-09T08:17:33Z</time>
      </trkpt>
      <trkpt lat="46.247224677354097" lon="8.046155730262399">
        <ele>2209.5900000000001</ele>
        <time>2020-01-09T08:17:45Z</time>
      </trkpt>
      <trkpt lat="46.247187461704016" lon="8.046125220134854">
        <ele>2210.73</ele>
        <time>2020-01-09T08:17:57Z</time>
      </trkpt>
      <trkpt lat="46.247167261317372" lon="8.046103259548545">
        <ele>2211.3899999999999</ele>
        <time>2020-01-09T08:18:07Z</time>
      </trkpt>
      <trkpt lat="46.247144462540746" lon="8.046082807704806">
        <ele>2212.0500000000002</ele>
        <time>2020-01-09T08:18:23Z</time>
      </trkpt>
      <trkpt lat="46.247115796431899" lon="8.046047603711486">
        <ele>2212.8299999999999</ele>
        <time>2020-01-09T08:18:36Z</time>
      </trkpt>
      <trkpt lat="46.247079251334071" lon="8.045997647568584">
        <ele>2212.75</ele>
        <time>2020-01-09T08:18:48Z</time>
      </trkpt>
      <trkpt lat="46.247047064825892" lon="8.045950960367918">
        <ele>2213.5300000000002</ele>
        <time>2020-01-09T08:19:00Z</time>
      </trkpt>
      <trkpt lat="46.247011357918382" lon="8.045865129679442">
        <ele>2214.8200000000002</ele>
        <time>2020-01-09T08:19:15Z</time>
      </trkpt>
      <trkpt lat="46.246986631304026" lon="8.045787261798978">
        <ele>2215.0100000000002</ele>
        <time>2020-01-09T08:19:29Z</time>
      </trkpt>
      <trkpt lat="46.246949248015881" lon="8.04572481662035">
        <ele>2216.5599999999999</ele>
        <time>2020-01-09T08:19:44Z</time>
      </trkpt>
      <trkpt lat="46.24693164601922" lon="8.045700509101152">
        <ele>2216.4899999999998</ele>
        <time>2020-01-09T08:19:58Z</time>
      </trkpt>
      <trkpt lat="46.246911529451609" lon="8.045683577656746">
        <ele>2217.4400000000001</ele>
        <time>2020-01-09T08:20:13Z</time>
      </trkpt>
      <trkpt lat="46.246890239417553" lon="8.045654157176614">
        <ele>2218.1399999999999</ele>
        <time>2020-01-09T08:20:24Z</time>
      </trkpt>
      <trkpt lat="46.246872302144766" lon="8.045629430562258">
        <ele>2218.9099999999999</ele>
        <time>2020-01-09T08:20:35Z</time>
      </trkpt>
      <trkpt lat="46.246847659349442" lon="8.045608978718519">
        <ele>2220.1300000000001</ele>
        <time>2020-01-09T08:20:47Z</time>
      </trkpt>
      <trkpt lat="46.24684514477849" lon="8.045608978718519">
        <ele>2219.7399999999998</ele>
        <time>2020-01-09T08:21:02Z</time>
      </trkpt>
      <trkpt lat="46.246806923300028" lon="8.04560512304306">
        <ele>2221.7399999999998</ele>
        <time>2020-01-09T08:21:15Z</time>
      </trkpt>
      <trkpt lat="46.246731486171484" lon="8.045554244890809">
        <ele>2224.0100000000002</ele>
        <time>2020-01-09T08:21:31Z</time>
      </trkpt>
      <trkpt lat="46.246675997972488" lon="8.045518202707171">
        <ele>2226.3699999999999</ele>
        <time>2020-01-09T08:21:42Z</time>
      </trkpt>
      <trkpt lat="46.246616318821907" lon="8.045486100018024">
        <ele>2227.8200000000002</ele>
        <time>2020-01-09T08:21:56Z</time>
      </trkpt>
      <trkpt lat="46.246619336307049" lon="8.045483585447073">
        <ele>2227.7399999999998</ele>
        <time>2020-01-09T08:22:14Z</time>
      </trkpt>
      <trkpt lat="46.246616402640939" lon="8.04547025822103">
        <ele>2228.3000000000002</ele>
        <time>2020-01-09T08:22:29Z</time>
      </trkpt>
      <trkpt lat="46.246620761230588" lon="8.045466654002667">
        <ele>2227.73</ele>
        <time>2020-01-09T08:22:45Z</time>
      </trkpt>
      <trkpt lat="46.246629059314728" lon="8.045459613204002">
        <ele>2228.3299999999999</ele>
        <time>2020-01-09T08:23:06Z</time>
      </trkpt>
      <trkpt lat="46.246621683239937" lon="8.045466905459762">
        <ele>2228.4299999999998</ele>
        <time>2020-01-09T08:23:35Z</time>
      </trkpt>
      <trkpt lat="46.246551442891359" lon="8.045457685366273">
        <ele>2230.8699999999999</ele>
        <time>2020-01-09T08:23:48Z</time>
      </trkpt>
      <trkpt lat="46.246498888358474" lon="8.045452991500497">
        <ele>2232.1700000000001</ele>
        <time>2020-01-09T08:23:58Z</time>
      </trkpt>
      <trkpt lat="46.246443064883351" lon="8.045439496636391">
        <ele>2234.1900000000001</ele>
        <time>2020-01-09T08:24:11Z</time>
      </trkpt>
      <trkpt lat="46.24637508764863" lon="8.045450812205672">
        <ele>2235</ele>
        <time>2020-01-09T08:24:22Z</time>
      </trkpt>
      <trkpt lat="46.246319347992539" lon="8.04547218605876">
        <ele>2237.04</ele>
        <time>2020-01-09T08:24:33Z</time>
      </trkpt>
      <trkpt lat="46.246264781802893" lon="8.045519711449742">
        <ele>2239.6100000000001</ele>
        <time>2020-01-09T08:24:46Z</time>
      </trkpt>
      <trkpt lat="46.246212143450975" lon="8.04555575363338">
        <ele>2241.1199999999999</ele>
        <time>2020-01-09T08:24:58Z</time>
      </trkpt>
      <trkpt lat="46.24619915150106" lon="8.045604368671775">
        <ele>2242.5300000000002</ele>
        <time>2020-01-09T08:25:09Z</time>
      </trkpt>
      <trkpt lat="46.246194373816252" lon="8.045672848820686">
        <ele>2244.4499999999998</ele>
        <time>2020-01-09T08:25:21Z</time>
      </trkpt>
      <trkpt lat="46.246187249198556" lon="8.045757757499814">
        <ele>2246.5700000000002</ele>
        <time>2020-01-09T08:25:34Z</time>
      </trkpt>
      <trkpt lat="46.246197056025267" lon="8.045811988413334">
        <ele>2247.98</ele>
        <time>2020-01-09T08:25:45Z</time>
      </trkpt>
      <trkpt lat="46.246206946671009" lon="8.045836631208658">
        <ele>2248.3800000000001</ele>
        <time>2020-01-09T08:26:05Z</time>
      </trkpt>
      <trkpt lat="46.246202420443296" lon="8.045895053073764">
        <ele>2250.8400000000001</ele>
        <time>2020-01-09T08:26:18Z</time>
      </trkpt>
      <trkpt lat="46.246210467070341" lon="8.045941656455398">
        <ele>2251.5100000000002</ele>
        <time>2020-01-09T08:26:28Z</time>
      </trkpt>
      <trkpt lat="46.246208371594548" lon="8.045998988673091">
        <ele>2252.75</ele>
        <time>2020-01-09T08:26:39Z</time>
      </trkpt>
      <trkpt lat="46.2462143227458" lon="8.046073671430349">
        <ele>2253.8400000000001</ele>
        <time>2020-01-09T08:26:50Z</time>
      </trkpt>
      <trkpt lat="46.246214155107737" lon="8.046107199043036">
        <ele>2254.7399999999998</ele>
        <time>2020-01-09T08:27:00Z</time>
      </trkpt>
      <trkpt lat="46.24620845541358" lon="8.04614944383502">
        <ele>2255.5100000000002</ele>
        <time>2020-01-09T08:27:19Z</time>
      </trkpt>
      <trkpt lat="46.246214741840959" lon="8.04620124399662">
        <ele>2256.5900000000001</ele>
        <time>2020-01-09T08:27:31Z</time>
      </trkpt>
      <trkpt lat="46.24621918424964" lon="8.046229826286435">
        <ele>2257.1700000000001</ele>
        <time>2020-01-09T08:27:40Z</time>
      </trkpt>
      <trkpt lat="46.246230583637953" lon="8.046263353899121">
        <ele>2257.9000000000001</ele>
        <time>2020-01-09T08:27:52Z</time>
      </trkpt>
      <trkpt lat="46.246232427656651" lon="8.046292020007968">
        <ele>2258.3800000000001</ele>
        <time>2020-01-09T08:28:03Z</time>
      </trkpt>
      <trkpt lat="46.246243994683027" lon="8.046325882896781">
        <ele>2259.3499999999999</ele>
        <time>2020-01-09T08:28:15Z</time>
      </trkpt>
      <trkpt lat="46.246259333565831" lon="8.046370558440685">
        <ele>2260.9899999999998</ele>
        <time>2020-01-09T08:28:28Z</time>
      </trkpt>
      <trkpt lat="46.246264362707734" lon="8.046401403844357">
        <ele>2261.6999999999998</ele>
        <time>2020-01-09T08:28:38Z</time>
      </trkpt>
      <trkpt lat="46.246271152049303" lon="8.046429147943854">
        <ele>2262.3099999999999</ele>
        <time>2020-01-09T08:28:50Z</time>
      </trkpt>
      <trkpt lat="46.24627391807735" lon="8.046444235369563">
        <ele>2263.0500000000002</ele>
        <time>2020-01-09T08:29:01Z</time>
      </trkpt>
      <trkpt lat="46.24628372490406" lon="8.046483043581247">
        <ele>2264.4200000000001</ele>
        <time>2020-01-09T08:29:11Z</time>
      </trkpt>
      <trkpt lat="46.246298728510737" lon="8.046517325565219">
        <ele>2266.02</ele>
        <time>2020-01-09T08:29:21Z</time>
      </trkpt>
      <trkpt lat="46.246307278051972" lon="8.046530988067389">
        <ele>2266.9200000000001</ele>
        <time>2020-01-09T08:29:34Z</time>
      </trkpt>
      <trkpt lat="46.246326807886362" lon="8.046580189839006">
        <ele>2267.8800000000001</ele>
        <time>2020-01-09T08:29:47Z</time>
      </trkpt>
      <trkpt lat="46.246325131505728" lon="8.046589577570558">
        <ele>2268.6900000000001</ele>
        <time>2020-01-09T08:30:02Z</time>
      </trkpt>
      <trkpt lat="46.246316079050303" lon="8.046602737158537">
        <ele>2268.3299999999999</ele>
        <time>2020-01-09T08:30:14Z</time>
      </trkpt>
      <trkpt lat="46.246309289708734" lon="8.046601228415966">
        <ele>2268.0999999999999</ele>
        <time>2020-01-09T08:30:24Z</time>
      </trkpt>
      <trkpt lat="46.246312810108066" lon="8.04662779904902">
        <ele>2269.27</ele>
        <time>2020-01-09T08:30:36Z</time>
      </trkpt>
      <trkpt lat="46.246292442083359" lon="8.04667423479259">
        <ele>2270.4000000000001</ele>
        <time>2020-01-09T08:30:52Z</time>
      </trkpt>
      <trkpt lat="46.246294286102057" lon="8.046763334423304">
        <ele>2272.3099999999999</ele>
        <time>2020-01-09T08:31:03Z</time>
      </trkpt>
      <trkpt lat="46.246273331344128" lon="8.046852182596922">
        <ele>2274.4299999999998</ele>
        <time>2020-01-09T08:31:16Z</time>
      </trkpt>
      <trkpt lat="46.246269727125764" lon="8.04693709127605">
        <ele>2276.5599999999999</ele>
        <time>2020-01-09T08:31:32Z</time>
      </trkpt>
      <trkpt lat="46.246263021603227" lon="8.046994842588902">
        <ele>2278.23</ele>
        <time>2020-01-09T08:31:44Z</time>
      </trkpt>
      <trkpt lat="46.246255729347467" lon="8.047042619436979">
        <ele>2279.5100000000002</ele>
        <time>2020-01-09T08:31:56Z</time>
      </trkpt>
      <trkpt lat="46.246241899207234" lon="8.04709785617888">
        <ele>2281.1500000000001</ele>
        <time>2020-01-09T08:32:08Z</time>
      </trkpt>
      <trkpt lat="46.246229326352477" lon="8.047148566693068">
        <ele>2282.79</ele>
        <time>2020-01-09T08:32:19Z</time>
      </trkpt>
      <trkpt lat="46.24622069299221" lon="8.04720782674849">
        <ele>2284.9000000000001</ele>
        <time>2020-01-09T08:32:31Z</time>
      </trkpt>
      <trkpt lat="46.246212981641293" lon="8.047242276370525">
        <ele>2285.98</ele>
        <time>2020-01-09T08:32:41Z</time>
      </trkpt>
      <trkpt lat="46.24620845541358" lon="8.047292483970523">
        <ele>2287.1999999999998</ele>
        <time>2020-01-09T08:32:51Z</time>
      </trkpt>
      <trkpt lat="46.246198480948806" lon="8.047358198091388">
        <ele>2289.27</ele>
        <time>2020-01-09T08:33:04Z</time>
      </trkpt>
      <trkpt lat="46.246178615838289" lon="8.04740128107369">
        <ele>2291</ele>
        <time>2020-01-09T08:33:15Z</time>
      </trkpt>
      <trkpt lat="46.246170653030276" lon="8.047449057921767">
        <ele>2292.5799999999999</ele>
        <time>2020-01-09T08:33:27Z</time>
      </trkpt>
      <trkpt lat="46.246135532855988" lon="8.047471605241299">
        <ele>2294.2600000000002</ele>
        <time>2020-01-09T08:33:38Z</time>
      </trkpt>
      <trkpt lat="46.246096137911081" lon="8.047505551949143">
        <ele>2296.1199999999999</ele>
        <time>2020-01-09T08:33:51Z</time>
      </trkpt>
      <trkpt lat="46.246065879240632" lon="8.047527680173516">
        <ele>2298.1599999999999</ele>
        <time>2020-01-09T08:34:03Z</time>
      </trkpt>
      <trkpt lat="46.246043918654323" lon="8.047555340453982">
        <ele>2300.0500000000002</ele>
        <time>2020-01-09T08:34:12Z</time>
      </trkpt>
      <trkpt lat="46.246045678853989" lon="8.047559531405568">
        <ele>2300.3499999999999</ele>
        <time>2020-01-09T08:34:28Z</time>
      </trkpt>
      <trkpt lat="46.246033189818263" lon="8.047581911087036">
        <ele>2300.6500000000001</ele>
        <time>2020-01-09T08:34:44Z</time>
      </trkpt>
      <trkpt lat="46.246055904775858" lon="8.047614265233278">
        <ele>2301.1300000000001</ele>
        <time>2020-01-09T08:34:50Z</time>
      </trkpt>
      <trkpt lat="46.246115500107408" lon="8.047709818929434">
        <ele>2301.5</ele>
        <time>2020-01-09T08:35:00Z</time>
      </trkpt>
      <trkpt lat="46.246150285005569" lon="8.047825824469328">
        <ele>2302.4099999999999</ele>
        <time>2020-01-09T08:35:11Z</time>
      </trkpt>
      <trkpt lat="46.246145674958825" lon="8.047955995425582">
        <ele>2304.52</ele>
        <time>2020-01-09T08:35:23Z</time>
      </trkpt>
      <trkpt lat="46.246131928637624" lon="8.048111815005541">
        <ele>2307.1900000000001</ele>
        <time>2020-01-09T08:35:38Z</time>
      </trkpt>
      <trkpt lat="46.246113488450646" lon="8.048252630978823">
        <ele>2309.5599999999999</ele>
        <time>2020-01-09T08:35:54Z</time>
      </trkpt>
      <trkpt lat="46.246079122647643" lon="8.048397051170468">
        <ele>2312.5599999999999</ele>
        <time>2020-01-09T08:36:12Z</time>
      </trkpt>
      <trkpt lat="46.24605355784297" lon="8.048478607088327">
        <ele>2315.3600000000001</ele>
        <time>2020-01-09T08:36:27Z</time>
      </trkpt>
      <trkpt lat="46.245984993875027" lon="8.048452958464623">
        <ele>2317.0900000000001</ele>
        <time>2020-01-09T08:36:38Z</time>
      </trkpt>
      <trkpt lat="46.245920369401574" lon="8.048444073647261">
        <ele>2319.0900000000001</ele>
        <time>2020-01-09T08:36:49Z</time>
      </trkpt>
      <trkpt lat="46.245900169014931" lon="8.048520684242249">
        <ele>2320.6999999999998</ele>
        <time>2020-01-09T08:37:00Z</time>
      </trkpt>
      <trkpt lat="46.245919028297067" lon="8.048663847148418">
        <ele>2321.9899999999998</ele>
        <time>2020-01-09T08:37:14Z</time>
      </trkpt>
      <trkpt lat="46.245954902842641" lon="8.048780355602503">
        <ele>2324.3899999999999</ele>
        <time>2020-01-09T08:37:28Z</time>
      </trkpt>
      <trkpt lat="46.245959512889385" lon="8.048867275938392">
        <ele>2326.4899999999998</ele>
        <time>2020-01-09T08:37:39Z</time>
      </trkpt>
      <trkpt lat="46.245968481525779" lon="8.048945982009172">
        <ele>2327.5799999999999</ele>
        <time>2020-01-09T08:37:49Z</time>
      </trkpt>
      <trkpt lat="46.245993794873357" lon="8.049081349745393">
        <ele>2329.0700000000002</ele>
        <time>2020-01-09T08:38:03Z</time>
      </trkpt>
      <trkpt lat="46.245999913662672" lon="8.04924538359046">
        <ele>2330.6199999999999</ele>
        <time>2020-01-09T08:38:19Z</time>
      </trkpt>
      <trkpt lat="46.245973510667682" lon="8.049385864287615">
        <ele>2332.8299999999999</ele>
        <time>2020-01-09T08:38:35Z</time>
      </trkpt>
      <trkpt lat="46.245963200926781" lon="8.049440430477262">
        <ele>2333.71</ele>
        <time>2020-01-09T08:38:46Z</time>
      </trkpt>
      <trkpt lat="46.24595046043396" lon="8.049536319449544">
        <ele>2335.4299999999998</ele>
        <time>2020-01-09T08:38:58Z</time>
      </trkpt>
      <trkpt lat="46.245904862880707" lon="8.049586024135351">
        <ele>2337.77</ele>
        <time>2020-01-09T08:39:10Z</time>
      </trkpt>
      <trkpt lat="46.245867060497403" lon="8.049668585881591">
        <ele>2340.6599999999999</ele>
        <time>2020-01-09T08:39:25Z</time>
      </trkpt>
      <trkpt lat="46.245862450450659" lon="8.049748968333006">
        <ele>2343.04</ele>
        <time>2020-01-09T08:39:36Z</time>
      </trkpt>
      <trkpt lat="46.245824564248323" lon="8.049791716039181">
        <ele>2344.4000000000001</ele>
        <time>2020-01-09T08:39:49Z</time>
      </trkpt>
      <trkpt lat="46.245799502357841" lon="8.049814514815807">
        <ele>2346.71</ele>
        <time>2020-01-09T08:40:00Z</time>
      </trkpt>
      <trkpt lat="46.245787348598242" lon="8.049877379089594">
        <ele>2347.3800000000001</ele>
        <time>2020-01-09T08:40:13Z</time>
      </trkpt>
      <trkpt lat="46.245780475437641" lon="8.049892047420144">
        <ele>2348.0799999999999</ele>
        <time>2020-01-09T08:40:25Z</time>
      </trkpt>
      <trkpt lat="46.245801262557507" lon="8.049897998571396">
        <ele>2348.29</ele>
        <time>2020-01-09T08:40:34Z</time>
      </trkpt>
      <trkpt lat="46.245804782956839" lon="8.049896154552698">
        <ele>2349.7600000000002</ele>
        <time>2020-01-09T08:40:46Z</time>
      </trkpt>
      <trkpt lat="46.245800340548158" lon="8.049893975257874">
        <ele>2348.3000000000002</ele>
        <time>2020-01-09T08:40:56Z</time>
      </trkpt>
      <trkpt lat="46.245801011100411" lon="8.049891125410795">
        <ele>2347.8600000000001</ele>
        <time>2020-01-09T08:41:37Z</time>
      </trkpt>
      <trkpt lat="46.245800843462348" lon="8.04990160278976">
        <ele>2347.8099999999999</ele>
        <time>2020-01-09T08:42:17Z</time>
      </trkpt>
      <trkpt lat="46.245798328891397" lon="8.049896825104952">
        <ele>2347.4699999999998</ele>
        <time>2020-01-09T08:43:05Z</time>
      </trkpt>
      <trkpt lat="46.245804447680712" lon="8.049891628324986">
        <ele>2347.3400000000001</ele>
        <time>2020-01-09T08:43:52Z</time>
      </trkpt>
      <trkpt lat="46.245808806270361" lon="8.0498908739537">
        <ele>2347.4400000000001</ele>
        <time>2020-01-09T08:44:39Z</time>
      </trkpt>
      <trkpt lat="46.245809393003583" lon="8.049880228936672">
        <ele>2348.52</ele>
        <time>2020-01-09T08:45:00Z</time>
      </trkpt>
      <trkpt lat="46.245798580348492" lon="8.049880312755704">
        <ele>2348.3200000000002</ele>
        <time>2020-01-09T08:45:16Z</time>
      </trkpt>
      <trkpt lat="46.245774440467358" lon="8.049911577254534">
        <ele>2348.3600000000001</ele>
        <time>2020-01-09T08:45:20Z</time>
      </trkpt>
      <trkpt lat="46.245678886771202" lon="8.050061948597431">
        <ele>2349.3299999999999</ele>
        <time>2020-01-09T08:45:36Z</time>
      </trkpt>
      <trkpt lat="46.245617363601923" lon="8.050217516720295">
        <ele>2349.8400000000001</ele>
        <time>2020-01-09T08:45:51Z</time>
      </trkpt>
      <trkpt lat="46.245558941736817" lon="8.050378113985062">
        <ele>2349.4499999999998</ele>
        <time>2020-01-09T08:46:05Z</time>
      </trkpt>
      <trkpt lat="46.245513511821628" lon="8.050504513084889">
        <ele>2350.1399999999999</ele>
        <time>2020-01-09T08:46:19Z</time>
      </trkpt>
      <trkpt lat="46.245513930916786" lon="8.050497388467193">
        <ele>2350.0500000000002</ele>
        <time>2020-01-09T08:46:37Z</time>
      </trkpt>
      <trkpt lat="46.245498508214951" lon="8.05053343065083">
        <ele>2350.3699999999999</ele>
        <time>2020-01-09T08:47:03Z</time>
      </trkpt>
      <trkpt lat="46.245480990037322" lon="8.050576597452164">
        <ele>2352.8299999999999</ele>
        <time>2020-01-09T08:47:13Z</time>
      </trkpt>
      <trkpt lat="46.245470680296421" lon="8.050597719848156">
        <ele>2351.6900000000001</ele>
        <time>2020-01-09T08:47:29Z</time>
      </trkpt>
      <trkpt lat="46.245431285351515" lon="8.05072789080441">
        <ele>2351.46</ele>
        <time>2020-01-09T08:47:42Z</time>
      </trkpt>
      <trkpt lat="46.245410917326808" lon="8.050822941586375">
        <ele>2350.6199999999999</ele>
        <time>2020-01-09T08:47:55Z</time>
      </trkpt>
      <trkpt lat="46.245384765788913" lon="8.0508769210428">
        <ele>2349.6399999999999</ele>
        <time>2020-01-09T08:48:06Z</time>
      </trkpt>
      <trkpt lat="46.245383843779564" lon="8.05091698653996">
        <ele>2349.4400000000001</ele>
        <time>2020-01-09T08:48:15Z</time>
      </trkpt>
      <trkpt lat="46.245372360572219" lon="8.050956213846803">
        <ele>2348.71</ele>
        <time>2020-01-09T08:48:24Z</time>
      </trkpt>
      <trkpt lat="46.245379652827978" lon="8.050986640155315">
        <ele>2348.6100000000001</ele>
        <time>2020-01-09T08:48:34Z</time>
      </trkpt>
      <trkpt lat="46.245383592322469" lon="8.051054198294878">
        <ele>2347.9099999999999</ele>
        <time>2020-01-09T08:48:44Z</time>
      </trkpt>
      <trkpt lat="46.245385687798262" lon="8.051078002899885">
        <ele>2348.1300000000001</ele>
        <time>2020-01-09T08:48:56Z</time>
      </trkpt>
      <trkpt lat="46.245384514331818" lon="8.051087809726596">
        <ele>2347.7199999999998</ele>
        <time>2020-01-09T08:49:11Z</time>
      </trkpt>
      <trkpt lat="46.245378060266376" lon="8.051087642088532">
        <ele>2348.2600000000002</ele>
        <time>2020-01-09T08:49:29Z</time>
      </trkpt>
      <trkpt lat="46.245391387492418" lon="8.051095521077514">
        <ele>2348.0599999999999</ele>
        <time>2020-01-09T08:49:43Z</time>
      </trkpt>
      <trkpt lat="46.245387783274055" lon="8.051097868010402">
        <ele>2348.4400000000001</ele>
        <time>2020-01-09T08:50:02Z</time>
      </trkpt>
      <trkpt lat="46.245387783274055" lon="8.051123516634107">
        <ele>2348.5100000000002</ele>
        <time>2020-01-09T08:50:20Z</time>
      </trkpt>
      <trkpt lat="46.245394321158528" lon="8.051131730899215">
        <ele>2348.5</ele>
        <time>2020-01-09T08:50:31Z</time>
      </trkpt>
      <trkpt lat="46.2453802395612" lon="8.051182106137276">
        <ele>2348.27</ele>
        <time>2020-01-09T08:50:44Z</time>
      </trkpt>
      <trkpt lat="46.245372947305441" lon="8.051215717568994">
        <ele>2348</ele>
        <time>2020-01-09T08:51:00Z</time>
      </trkpt>
      <trkpt lat="46.245377054437995" lon="8.051298866048455">
        <ele>2347.5599999999999</ele>
        <time>2020-01-09T08:51:18Z</time>
      </trkpt>
      <trkpt lat="46.245380826294422" lon="8.051349241286516">
        <ele>2347.73</ele>
        <time>2020-01-09T08:51:30Z</time>
      </trkpt>
      <trkpt lat="46.245379904285073" lon="8.051374554634094">
        <ele>2347.5999999999999</ele>
        <time>2020-01-09T08:51:42Z</time>
      </trkpt>
      <trkpt lat="46.245373366400599" lon="8.051385786384344">
        <ele>2347.6500000000001</ele>
        <time>2020-01-09T08:51:53Z</time>
      </trkpt>
      <trkpt lat="46.245355512946844" lon="8.051435323432088">
        <ele>2346.9200000000001</ele>
        <time>2020-01-09T08:52:06Z</time>
      </trkpt>
      <trkpt lat="46.245334893465042" lon="8.051461474969983">
        <ele>2346.8600000000001</ele>
        <time>2020-01-09T08:52:18Z</time>
      </trkpt>
      <trkpt lat="46.245331959798932" lon="8.051471952348948">
        <ele>2347.0900000000001</ele>
        <time>2020-01-09T08:52:29Z</time>
      </trkpt>
      <trkpt lat="46.245330115780234" lon="8.05146767757833">
        <ele>2346.8000000000002</ele>
        <time>2020-01-09T08:52:47Z</time>
      </trkpt>
      <trkpt lat="46.245333552360535" lon="8.051461726427078">
        <ele>2346.2800000000002</ele>
        <time>2020-01-09T08:53:08Z</time>
      </trkpt>
      <trkpt lat="46.245317962020636" lon="8.051477149128914">
        <ele>2346.7399999999998</ele>
        <time>2020-01-09T08:53:20Z</time>
      </trkpt>
      <trkpt lat="46.245296420529485" lon="8.051505982875824">
        <ele>2346.3699999999999</ele>
        <time>2020-01-09T08:53:32Z</time>
      </trkpt>
      <trkpt lat="46.245279405266047" lon="8.051552586257458">
        <ele>2346.27</ele>
        <time>2020-01-09T08:53:42Z</time>
      </trkpt>
      <trkpt lat="46.24528300948441" lon="8.051573121920228">
        <ele>2346.5700000000002</ele>
        <time>2020-01-09T08:53:58Z</time>
      </trkpt>
      <trkpt lat="46.245268927887082" lon="8.051546467468143">
        <ele>2347.3499999999999</ele>
        <time>2020-01-09T08:54:11Z</time>
      </trkpt>
      <trkpt lat="46.245261384174228" lon="8.051551664248109">
        <ele>2347.5500000000002</ele>
        <time>2020-01-09T08:54:27Z</time>
      </trkpt>
      <trkpt lat="46.245246380567551" lon="8.051548395305872">
        <ele>2346.8899999999999</ele>
        <time>2020-01-09T08:54:42Z</time>
      </trkpt>
      <trkpt lat="46.245253840461373" lon="8.051557531580329">
        <ele>2347.21</ele>
        <time>2020-01-09T08:54:52Z</time>
      </trkpt>
      <trkpt lat="46.245280997827649" lon="8.051558788865805">
        <ele>2346.0100000000002</ele>
        <time>2020-01-09T08:55:08Z</time>
      </trkpt>
      <trkpt lat="46.245249314233661" lon="8.051569936797023">
        <ele>2345.6799999999998</ele>
        <time>2020-01-09T08:55:30Z</time>
      </trkpt>
      <trkpt lat="46.24521997757256" lon="8.051566248759627">
        <ele>2345.73</ele>
        <time>2020-01-09T08:55:53Z</time>
      </trkpt>
      <trkpt lat="46.24519114382565" lon="8.051549484953284">
        <ele>2345.8499999999999</ele>
        <time>2020-01-09T08:56:12Z</time>
      </trkpt>
      <trkpt lat="46.245162393897772" lon="8.051532134413719">
        <ele>2345.8899999999999</ele>
        <time>2020-01-09T08:56:33Z</time>
      </trkpt>
      <trkpt lat="46.245166752487421" lon="8.051521489396691">
        <ele>2345.9400000000001</ele>
        <time>2020-01-09T08:56:52Z</time>
      </trkpt>
      <trkpt lat="46.245159627869725" lon="8.051516795530915">
        <ele>2345.6999999999998</ele>
        <time>2020-01-09T08:57:12Z</time>
      </trkpt>
      <trkpt lat="46.245162645354867" lon="8.051499109715223">
        <ele>2346.3699999999999</ele>
        <time>2020-01-09T08:57:30Z</time>
      </trkpt>
      <trkpt lat="46.245255852118134" lon="8.051411183550954">
        <ele>2347.1700000000001</ele>
        <time>2020-01-09T08:57:45Z</time>
      </trkpt>
      <trkpt lat="46.24534897506237" lon="8.051399197429419">
        <ele>2347.2600000000002</ele>
        <time>2020-01-09T08:58:13Z</time>
      </trkpt>
      <trkpt lat="46.245355680584908" lon="8.051423253491521">
        <ele>2347.6399999999999</ele>
        <time>2020-01-09T08:58:33Z</time>
      </trkpt>
      <trkpt lat="46.245354590937495" lon="8.051453847438097">
        <ele>2347.2399999999998</ele>
        <time>2020-01-09T08:58:50Z</time>
      </trkpt>
      <trkpt lat="46.245344197377563" lon="8.051478657871485">
        <ele>2347.1999999999998</ele>
        <time>2020-01-09T08:59:02Z</time>
      </trkpt>
      <trkpt lat="46.245343359187245" lon="8.051495589315891">
        <ele>2347.1300000000001</ele>
        <time>2020-01-09T08:59:22Z</time>
      </trkpt>
      <trkpt lat="46.245321733877063" lon="8.051512688398361">
        <ele>2347.1100000000001</ele>
        <time>2020-01-09T08:59:38Z</time>
      </trkpt>
      <trkpt lat="46.245308741927147" lon="8.051552753895521">
        <ele>2346.77</ele>
        <time>2020-01-09T08:59:44Z</time>
      </trkpt>
      <trkpt lat="46.245256857946515" lon="8.051654845476151">
        <ele>2347.3600000000001</ele>
        <time>2020-01-09T08:59:55Z</time>
      </trkpt>
      <trkpt lat="46.245226012542844" lon="8.051734305918217">
        <ele>2347.9200000000001</ele>
        <time>2020-01-09T09:00:06Z</time>
      </trkpt>
      <trkpt lat="46.245219726115465" lon="8.051781412214041">
        <ele>2348.1500000000001</ele>
        <time>2020-01-09T09:00:15Z</time>
      </trkpt>
      <trkpt lat="46.245199022814631" lon="8.051866237074137">
        <ele>2349.0599999999999</ele>
        <time>2020-01-09T09:00:27Z</time>
      </trkpt>
      <trkpt lat="46.245168596506119" lon="8.051968077197671">
        <ele>2350.3000000000002</ele>
        <time>2020-01-09T09:00:40Z</time>
      </trkpt>
      <trkpt lat="46.245150323957205" lon="8.052035635337234">
        <ele>2351.0700000000002</ele>
        <time>2020-01-09T09:00:52Z</time>
      </trkpt>
      <trkpt lat="46.245133811607957" lon="8.052082909271121">
        <ele>2351.9499999999998</ele>
        <time>2020-01-09T09:01:06Z</time>
      </trkpt>
      <trkpt lat="46.245113862678409" lon="8.052173685282469">
        <ele>2353.0999999999999</ele>
        <time>2020-01-09T09:01:17Z</time>
      </trkpt>
      <trkpt lat="46.245108330622315" lon="8.052179887890816">
        <ele>2352.9000000000001</ele>
        <time>2020-01-09T09:01:29Z</time>
      </trkpt>
      <trkpt lat="46.24509391374886" lon="8.052243925631046">
        <ele>2353.73</ele>
        <time>2020-01-09T09:01:44Z</time>
      </trkpt>
      <trkpt lat="46.24508117325604" lon="8.052297066897154">
        <ele>2354.8099999999999</ele>
        <time>2020-01-09T09:01:55Z</time>
      </trkpt>
      <trkpt lat="46.245073629543185" lon="8.052313746884465">
        <ele>2355.0599999999999</ele>
        <time>2020-01-09T09:02:07Z</time>
      </trkpt>
      <trkpt lat="46.245064493268728" lon="8.052350794896483">
        <ele>2356.1500000000001</ele>
        <time>2020-01-09T09:02:18Z</time>
      </trkpt>
      <trkpt lat="46.245055440813303" lon="8.052390441298485">
        <ele>2356.96</ele>
        <time>2020-01-09T09:02:31Z</time>
      </trkpt>
      <trkpt lat="46.245043454691768" lon="8.052451210096479">
        <ele>2357.8400000000001</ele>
        <time>2020-01-09T09:02:43Z</time>
      </trkpt>
      <trkpt lat="46.245034905150533" lon="8.052468812093139">
        <ele>2358.0100000000002</ele>
        <time>2020-01-09T09:02:55Z</time>
      </trkpt>
      <trkpt lat="46.245022164657712" lon="8.052521115168929">
        <ele>2359.0700000000002</ele>
        <time>2020-01-09T09:03:07Z</time>
      </trkpt>
      <trkpt lat="46.245007580146194" lon="8.052565874531865">
        <ele>2360.3499999999999</ele>
        <time>2020-01-09T09:03:18Z</time>
      </trkpt>
      <trkpt lat="46.244999868795276" lon="8.052594289183617">
        <ele>2360.6799999999998</ele>
        <time>2020-01-09T09:03:31Z</time>
      </trkpt>
      <trkpt lat="46.24499911442399" lon="8.052626559510827">
        <ele>2361.2399999999998</ele>
        <time>2020-01-09T09:03:45Z</time>
      </trkpt>
      <trkpt lat="46.244992827996612" lon="8.052669893950224">
        <ele>2361.7800000000002</ele>
        <time>2020-01-09T09:03:57Z</time>
      </trkpt>
      <trkpt lat="46.244981260970235" lon="8.05269948206842">
        <ele>2362.2600000000002</ele>
        <time>2020-01-09T09:04:10Z</time>
      </trkpt>
      <trkpt lat="46.244972711429" lon="8.052743151783943">
        <ele>2363.6399999999999</ele>
        <time>2020-01-09T09:04:20Z</time>
      </trkpt>
      <trkpt lat="46.244961731135845" lon="8.052804339677095">
        <ele>2364.6599999999999</ele>
        <time>2020-01-09T09:04:31Z</time>
      </trkpt>
      <trkpt lat="46.244949493557215" lon="8.052873741835356">
        <ele>2365.3000000000002</ele>
        <time>2020-01-09T09:04:42Z</time>
      </trkpt>
      <trkpt lat="46.244949577376246" lon="8.052900061011314">
        <ele>2365.25</ele>
        <time>2020-01-09T09:04:51Z</time>
      </trkpt>
      <trkpt lat="46.244955277070403" lon="8.052894696593285">
        <ele>2365.3299999999999</ele>
        <time>2020-01-09T09:05:07Z</time>
      </trkpt>
      <trkpt lat="46.244948739185929" lon="8.05293258279562">
        <ele>2365.6100000000001</ele>
        <time>2020-01-09T09:05:20Z</time>
      </trkpt>
      <trkpt lat="46.244954690337181" lon="8.053044648841023">
        <ele>2365.77</ele>
        <time>2020-01-09T09:05:31Z</time>
      </trkpt>
      <trkpt lat="46.244982685893774" lon="8.053117906674743">
        <ele>2364.6599999999999</ele>
        <time>2020-01-09T09:05:42Z</time>
      </trkpt>
      <trkpt lat="46.2450279481709" lon="8.053129641339183">
        <ele>2362.75</ele>
        <time>2020-01-09T09:05:52Z</time>
      </trkpt>
      <trkpt lat="46.245061475783587" lon="8.053125953301787">
        <ele>2360.8499999999999</ele>
        <time>2020-01-09T09:06:02Z</time>
      </trkpt>
      <trkpt lat="46.245071953162551" lon="8.053129389882088">
        <ele>2361.1300000000001</ele>
        <time>2020-01-09T09:06:15Z</time>
      </trkpt>
      <trkpt lat="46.245068935677409" lon="8.053126204758883">
        <ele>2360.54</ele>
        <time>2020-01-09T09:06:39Z</time>
      </trkpt>
      <trkpt lat="46.245101122185588" lon="8.053115056827664">
        <ele>2359.4499999999998</ele>
        <time>2020-01-09T09:06:58Z</time>
      </trkpt>
      <trkpt lat="46.245131297037005" lon="8.053048253059387">
        <ele>2356.1399999999999</ele>
        <time>2020-01-09T09:07:10Z</time>
      </trkpt>
      <trkpt lat="46.245164154097438" lon="8.052976587787271">
        <ele>2353.6700000000001</ele>
        <time>2020-01-09T09:07:22Z</time>
      </trkpt>
      <trkpt lat="46.245201034471393" lon="8.052922440692782">
        <ele>2351.21</ele>
        <time>2020-01-09T09:07:35Z</time>
      </trkpt>
      <trkpt lat="46.24521310441196" lon="8.052936354652047">
        <ele>2350.5</ele>
        <time>2020-01-09T09:07:46Z</time>
      </trkpt>
      <trkpt lat="46.24523364007473" lon="8.053028052672744">
        <ele>2351.9899999999998</ele>
        <time>2020-01-09T09:07:59Z</time>
      </trkpt>
      <trkpt lat="46.245257863774896" lon="8.053082702681422">
        <ele>2353.3499999999999</ele>
        <time>2020-01-09T09:08:11Z</time>
      </trkpt>
      <trkpt lat="46.245275046676397" lon="8.053142968565226">
        <ele>2354.75</ele>
        <time>2020-01-09T09:08:23Z</time>
      </trkpt>
      <trkpt lat="46.245291056111455" lon="8.053180268034339">
        <ele>2356.5700000000002</ele>
        <time>2020-01-09T09:08:36Z</time>
      </trkpt>
      <trkpt lat="46.245312094688416" lon="8.053216896951199">
        <ele>2357.5</ele>
        <time>2020-01-09T09:08:46Z</time>
      </trkpt>
      <trkpt lat="46.245305053889751" lon="8.053227625787258">
        <ele>2357.7199999999998</ele>
        <time>2020-01-09T09:08:58Z</time>
      </trkpt>
      <trkpt lat="46.245327265933156" lon="8.053283952176571">
        <ele>2358.7199999999998</ele>
        <time>2020-01-09T09:09:08Z</time>
      </trkpt>
      <trkpt lat="46.245332546532154" lon="8.053343547508121">
        <ele>2360.4099999999999</ele>
        <time>2020-01-09T09:09:20Z</time>
      </trkpt>
      <trkpt lat="46.245335480198264" lon="8.053395431488752">
        <ele>2361.6700000000001</ele>
        <time>2020-01-09T09:09:30Z</time>
      </trkpt>
      <trkpt lat="46.245339252054691" lon="8.053475394845009">
        <ele>2363.54</ele>
        <time>2020-01-09T09:09:42Z</time>
      </trkpt>
      <trkpt lat="46.245342437177896" lon="8.053532056510449">
        <ele>2364.73</ele>
        <time>2020-01-09T09:09:52Z</time>
      </trkpt>
      <trkpt lat="46.245340006425977" lon="8.053596764802933">
        <ele>2365.8499999999999</ele>
        <time>2020-01-09T09:10:04Z</time>
      </trkpt>
      <trkpt lat="46.24534553848207" lon="8.053612522780895">
        <ele>2366.8099999999999</ele>
        <time>2020-01-09T09:10:16Z</time>
      </trkpt>
      <trkpt lat="46.245365487411618" lon="8.053686115890741">
        <ele>2367.1300000000001</ele>
        <time>2020-01-09T09:10:32Z</time>
      </trkpt>
      <trkpt lat="46.245384933426976" lon="8.053713440895081">
        <ele>2367.23</ele>
        <time>2020-01-09T09:10:43Z</time>
      </trkpt>
      <trkpt lat="46.245395746082067" lon="8.053740179166198">
        <ele>2368.3499999999999</ele>
        <time>2020-01-09T09:10:55Z</time>
      </trkpt>
      <trkpt lat="46.245400188490748" lon="8.053823243826628">
        <ele>2369.0500000000002</ele>
        <time>2020-01-09T09:11:07Z</time>
      </trkpt>
      <trkpt lat="46.245446624234319" lon="8.053921228274703">
        <ele>2368.8800000000001</ele>
        <time>2020-01-09T09:11:18Z</time>
      </trkpt>
      <trkpt lat="46.245464980602264" lon="8.05397093296051">
        <ele>2368.3800000000001</ele>
        <time>2020-01-09T09:11:31Z</time>
      </trkpt>
      <trkpt lat="46.245479816570878" lon="8.05400563403964">
        <ele>2368.0599999999999</ele>
        <time>2020-01-09T09:11:46Z</time>
      </trkpt>
      <trkpt lat="46.245491467416286" lon="8.054091213271022">
        <ele>2368.4499999999998</ele>
        <time>2020-01-09T09:11:57Z</time>
      </trkpt>
      <trkpt lat="46.245495658367872" lon="8.054148880764842">
        <ele>2369.0599999999999</ele>
        <time>2020-01-09T09:12:06Z</time>
      </trkpt>
      <trkpt lat="46.24549993313849" lon="8.054261198267341">
        <ele>2370.3800000000001</ele>
        <time>2020-01-09T09:12:19Z</time>
      </trkpt>
      <trkpt lat="46.245507141575217" lon="8.054374186322093">
        <ele>2371.7600000000002</ele>
        <time>2020-01-09T09:12:34Z</time>
      </trkpt>
      <trkpt lat="46.245518876239657" lon="8.054481726139784">
        <ele>2373.3200000000002</ele>
        <time>2020-01-09T09:12:48Z</time>
      </trkpt>
      <trkpt lat="46.245528431609273" lon="8.054592870175839">
        <ele>2374.77</ele>
        <time>2020-01-09T09:13:03Z</time>
      </trkpt>
      <trkpt lat="46.24553807079792" lon="8.054645340889692">
        <ele>2374.73</ele>
        <time>2020-01-09T09:13:15Z</time>
      </trkpt>
      <trkpt lat="46.245540250092745" lon="8.054681215435267">
        <ele>2375.6799999999998</ele>
        <time>2020-01-09T09:13:47Z</time>
      </trkpt>
      <trkpt lat="46.245545279234648" lon="8.054774589836597">
        <ele>2377.6700000000001</ele>
        <time>2020-01-09T09:14:02Z</time>
      </trkpt>
      <trkpt lat="46.245549386367202" lon="8.054835023358464">
        <ele>2379.0100000000002</ele>
        <time>2020-01-09T09:14:16Z</time>
      </trkpt>
      <trkpt lat="46.245566988363862" lon="8.054948933422566">
        <ele>2380.54</ele>
        <time>2020-01-09T09:14:32Z</time>
      </trkpt>
      <trkpt lat="46.245586350560188" lon="8.05503761395812">
        <ele>2380.8699999999999</ele>
        <time>2020-01-09T09:14:44Z</time>
      </trkpt>
      <trkpt lat="46.245619878172874" lon="8.055153032764792">
        <ele>2381.6700000000001</ele>
        <time>2020-01-09T09:14:59Z</time>
      </trkpt>
      <trkpt lat="46.245651394128799" lon="8.055258812382817">
        <ele>2382.5700000000002</ele>
        <time>2020-01-09T09:15:14Z</time>
      </trkpt>
      <trkpt lat="46.245673689991236" lon="8.055311283096671">
        <ele>2383.29</ele>
        <time>2020-01-09T09:15:26Z</time>
      </trkpt>
      <trkpt lat="46.245700931176543" lon="8.055383618921042">
        <ele>2384</ele>
        <time>2020-01-09T09:15:39Z</time>
      </trkpt>
      <trkpt lat="46.245721634477377" lon="8.055442040786147">
        <ele>2384.77</ele>
        <time>2020-01-09T09:15:50Z</time>
      </trkpt>
      <trkpt lat="46.245751893147826" lon="8.05553063750267">
        <ele>2385.8800000000001</ele>
        <time>2020-01-09T09:16:04Z</time>
      </trkpt>
      <trkpt lat="46.245787432417274" lon="8.055620072409511">
        <ele>2386.6700000000001</ele>
        <time>2020-01-09T09:16:17Z</time>
      </trkpt>
      <trkpt lat="46.245805369690061" lon="8.055647229775786">
        <ele>2386.71</ele>
        <time>2020-01-09T09:16:27Z</time>
      </trkpt>
      <trkpt lat="46.245859516784549" lon="8.055739849805832">
        <ele>2387.8000000000002</ele>
        <time>2020-01-09T09:16:43Z</time>
      </trkpt>
      <trkpt lat="46.245902683585882" lon="8.055811431258917">
        <ele>2388.5500000000002</ele>
        <time>2020-01-09T09:16:56Z</time>
      </trkpt>
      <trkpt lat="46.245938558131456" lon="8.055878235027194">
        <ele>2389.9200000000001</ele>
        <time>2020-01-09T09:17:11Z</time>
      </trkpt>
      <trkpt lat="46.245966386049986" lon="8.055935818701983">
        <ele>2390.54</ele>
        <time>2020-01-09T09:17:25Z</time>
      </trkpt>
      <trkpt lat="46.245979210361838" lon="8.055961299687624">
        <ele>2390.2600000000002</ele>
        <time>2020-01-09T09:17:37Z</time>
      </trkpt>
      <trkpt lat="46.246016845107079" lon="8.056047298014164">
        <ele>2391.6599999999999</ele>
        <time>2020-01-09T09:17:50Z</time>
      </trkpt>
      <trkpt lat="46.246047103777528" lon="8.056116281077266">
        <ele>2392.5799999999999</ele>
        <time>2020-01-09T09:18:02Z</time>
      </trkpt>
      <trkpt lat="46.24608289450407" lon="8.056200016289949">
        <ele>2393.3000000000002</ele>
        <time>2020-01-09T09:18:16Z</time>
      </trkpt>
      <trkpt lat="46.246103346347809" lon="8.056281236931682">
        <ele>2393.3299999999999</ele>
        <time>2020-01-09T09:18:28Z</time>
      </trkpt>
      <trkpt lat="46.246106112375855" lon="8.056327002122998">
        <ele>2393.0900000000001</ele>
        <time>2020-01-09T09:18:40Z</time>
      </trkpt>
      <trkpt lat="46.246104435995221" lon="8.056353321298957">
        <ele>2393.79</ele>
        <time>2020-01-09T09:18:59Z</time>
      </trkpt>
      <trkpt lat="46.246098484843969" lon="8.056416688486934">
        <ele>2395.46</ele>
        <time>2020-01-09T09:19:11Z</time>
      </trkpt>
      <trkpt lat="46.246091527864337" lon="8.056506458669901">
        <ele>2396.8699999999999</ele>
        <time>2020-01-09T09:19:25Z</time>
      </trkpt>
      <trkpt lat="46.246077362447977" lon="8.056574603542686">
        <ele>2397.9299999999998</ele>
        <time>2020-01-09T09:19:37Z</time>
      </trkpt>
      <trkpt lat="46.246060347184539" lon="8.056642329320312">
        <ele>2399</ele>
        <time>2020-01-09T09:19:49Z</time>
      </trkpt>
      <trkpt lat="46.246047941967845" lon="8.056706450879574">
        <ele>2400.4099999999999</ele>
        <time>2020-01-09T09:20:00Z</time>
      </trkpt>
      <trkpt lat="46.246046684682369" lon="8.056771829724312">
        <ele>2400.3099999999999</ele>
        <time>2020-01-09T09:20:13Z</time>
      </trkpt>
      <trkpt lat="46.246046349406242" lon="8.056837124750018">
        <ele>2400.8800000000001</ele>
        <time>2020-01-09T09:20:27Z</time>
      </trkpt>
      <trkpt lat="46.246049115434289" lon="8.056922536343336">
        <ele>2401.71</ele>
        <time>2020-01-09T09:20:39Z</time>
      </trkpt>
      <trkpt lat="46.246053390204906" lon="8.056993950158358">
        <ele>2402.8499999999999</ele>
        <time>2020-01-09T09:20:52Z</time>
      </trkpt>
      <trkpt lat="46.246048361063004" lon="8.057023789733648">
        <ele>2403.2600000000002</ele>
        <time>2020-01-09T09:21:09Z</time>
      </trkpt>
      <trkpt lat="46.246010726317763" lon="8.057013731449843">
        <ele>2404.98</ele>
        <time>2020-01-09T09:21:20Z</time>
      </trkpt>
      <trkpt lat="46.24598759226501" lon="8.057041140273213">
        <ele>2406.5300000000002</ele>
        <time>2020-01-09T09:21:31Z</time>
      </trkpt>
      <trkpt lat="46.245983988046646" lon="8.057088833302259">
        <ele>2408.0700000000002</ele>
        <time>2020-01-09T09:21:44Z</time>
      </trkpt>
      <trkpt lat="46.245985915884376" lon="8.057133089751005">
        <ele>2409.0100000000002</ele>
        <time>2020-01-09T09:21:56Z</time>
      </trkpt>
      <trkpt lat="46.24597392976284" lon="8.057155637070537">
        <ele>2409.0500000000002</ele>
        <time>2020-01-09T09:22:20Z</time>
      </trkpt>
      <trkpt lat="46.245930595323443" lon="8.05717047303915">
        <ele>2410.6500000000001</ele>
        <time>2020-01-09T09:22:34Z</time>
      </trkpt>
      <trkpt lat="46.245903270319104" lon="8.0572007317096">
        <ele>2412.5999999999999</ele>
        <time>2020-01-09T09:22:45Z</time>
      </trkpt>
      <trkpt lat="46.245885584503412" lon="8.057291759178042">
        <ele>2414.27</ele>
        <time>2020-01-09T09:22:56Z</time>
      </trkpt>
      <trkpt lat="46.245888937264681" lon="8.057329896837473">
        <ele>2415.6100000000001</ele>
        <time>2020-01-09T09:23:08Z</time>
      </trkpt>
      <trkpt lat="46.245932439342141" lon="8.057383708655834">
        <ele>2417.1900000000001</ele>
        <time>2020-01-09T09:23:21Z</time>
      </trkpt>
      <trkpt lat="46.245969906449318" lon="8.057413380593061">
        <ele>2418.5500000000002</ele>
        <time>2020-01-09T09:23:33Z</time>
      </trkpt>
      <trkpt lat="46.24599982984364" lon="8.057463420554996">
        <ele>2420.9499999999998</ele>
        <time>2020-01-09T09:23:45Z</time>
      </trkpt>
      <trkpt lat="46.245999494567513" lon="8.057521339505911">
        <ele>2422.2399999999998</ele>
        <time>2020-01-09T09:23:56Z</time>
      </trkpt>
      <trkpt lat="46.246005361899734" lon="8.057541120797396">
        <ele>2423.0100000000002</ele>
        <time>2020-01-09T09:24:06Z</time>
      </trkpt>
      <trkpt lat="46.246008547022939" lon="8.057533074170351">
        <ele>2421.8299999999999</ele>
        <time>2020-01-09T09:24:14Z</time>
      </trkpt>
      <trkpt lat="46.246010642498732" lon="8.057531146332622">
        <ele>2423.6599999999999</ele>
        <time>2020-01-09T09:24:16Z</time>
      </trkpt>
      <trkpt lat="46.24602179042995" lon="8.057538438588381">
        <ele>2421.4400000000001</ele>
        <time>2020-01-09T09:24:28Z</time>
      </trkpt>
      <trkpt lat="46.246021455153823" lon="8.057529302313924">
        <ele>2422.96</ele>
        <time>2020-01-09T09:24:55Z</time>
      </trkpt>
      <trkpt lat="46.246030256152153" lon="8.057527123019099">
        <ele>2423.23</ele>
        <time>2020-01-09T09:25:11Z</time>
      </trkpt>
      <trkpt lat="46.246037967503071" lon="8.057518992573023">
        <ele>2422.46</ele>
        <time>2020-01-09T09:25:27Z</time>
      </trkpt>
      <trkpt lat="46.246027490124106" lon="8.057523770257831">
        <ele>2422.27</ele>
        <time>2020-01-09T09:25:41Z</time>
      </trkpt>
      <trkpt lat="46.246023969724774" lon="8.057522177696228">
        <ele>2423.7399999999998</ele>
        <time>2020-01-09T09:25:44Z</time>
      </trkpt>
      <trkpt lat="46.246034195646644" lon="8.05756869725883">
        <ele>2423.5999999999999</ele>
        <time>2020-01-09T09:26:01Z</time>
      </trkpt>
      <trkpt lat="46.246049618348479" lon="8.057602811604738">
        <ele>2423.8699999999999</ele>
        <time>2020-01-09T09:26:11Z</time>
      </trkpt>
      <trkpt lat="46.246067052707076" lon="8.05765712633729">
        <ele>2425.21</ele>
        <time>2020-01-09T09:26:24Z</time>
      </trkpt>
      <trkpt lat="46.246081721037626" lon="8.057742873206735">
        <ele>2426.9299999999998</ele>
        <time>2020-01-09T09:26:37Z</time>
      </trkpt>
      <trkpt lat="46.246099071577191" lon="8.057806240394712">
        <ele>2427.8499999999999</ele>
        <time>2020-01-09T09:26:50Z</time>
      </trkpt>
      <trkpt lat="46.246117679402232" lon="8.057859968394041">
        <ele>2428.5500000000002</ele>
        <time>2020-01-09T09:27:06Z</time>
      </trkpt>
      <trkpt lat="46.24616495333612" lon="8.057953594252467">
        <ele>2429.6900000000001</ele>
        <time>2020-01-09T09:27:19Z</time>
      </trkpt>
      <trkpt lat="46.246209880337119" lon="8.058038167655468">
        <ele>2431.1900000000001</ele>
        <time>2020-01-09T09:27:33Z</time>
      </trkpt>
      <trkpt lat="46.246238546445966" lon="8.058098936453462">
        <ele>2432.52</ele>
        <time>2020-01-09T09:27:44Z</time>
      </trkpt>
      <trkpt lat="46.246278779581189" lon="8.058202704414725">
        <ele>2434.2600000000002</ele>
        <time>2020-01-09T09:27:59Z</time>
      </trkpt>
      <trkpt lat="46.246315995231271" lon="8.058277638629079">
        <ele>2435.48</ele>
        <time>2020-01-09T09:28:12Z</time>
      </trkpt>
      <trkpt lat="46.246325802057981" lon="8.058295156806707">
        <ele>2435.8800000000001</ele>
        <time>2020-01-09T09:28:24Z</time>
      </trkpt>
      <trkpt lat="46.246351785957813" lon="8.058356260880828">
        <ele>2436.0599999999999</ele>
        <time>2020-01-09T09:28:37Z</time>
      </trkpt>
      <trkpt lat="46.24639855697751" lon="8.058489700779319">
        <ele>2436.8800000000001</ele>
        <time>2020-01-09T09:28:52Z</time>
      </trkpt>
      <trkpt lat="46.246424121782184" lon="8.058566143736243">
        <ele>2437.9200000000001</ele>
        <time>2020-01-09T09:29:03Z</time>
      </trkpt>
      <trkpt lat="46.246442142874002" lon="8.058627750724554">
        <ele>2438.8600000000001</ele>
        <time>2020-01-09T09:29:19Z</time>
      </trkpt>
      <trkpt lat="46.246457062661648" lon="8.058682568371296">
        <ele>2439.5</ele>
        <time>2020-01-09T09:29:37Z</time>
      </trkpt>
      <trkpt lat="46.246463684365153" lon="8.058734284713864">
        <ele>2440.1399999999999</ele>
        <time>2020-01-09T09:29:48Z</time>
      </trkpt>
      <trkpt lat="46.246489500626922" lon="8.058808213099837">
        <ele>2440.8499999999999</ele>
        <time>2020-01-09T09:30:05Z</time>
      </trkpt>
      <trkpt lat="46.24650701880455" lon="8.058882728219032">
        <ele>2441.96</ele>
        <time>2020-01-09T09:30:16Z</time>
      </trkpt>
      <trkpt lat="46.246527386829257" lon="8.05897543206811">
        <ele>2442.7600000000002</ele>
        <time>2020-01-09T09:30:27Z</time>
      </trkpt>
      <trkpt lat="46.246558148413897" lon="8.059071907773614">
        <ele>2443.5900000000001</ele>
        <time>2020-01-09T09:30:42Z</time>
      </trkpt>
      <trkpt lat="46.246574241667986" lon="8.059152290225029">
        <ele>2444.23</ele>
        <time>2020-01-09T09:30:52Z</time>
      </trkpt>
      <trkpt lat="46.24660475179553" lon="8.059299560263753">
        <ele>2445.21</ele>
        <time>2020-01-09T09:31:08Z</time>
      </trkpt>
      <trkpt lat="46.24663794413209" lon="8.059391090646386">
        <ele>2446.3499999999999</ele>
        <time>2020-01-09T09:31:20Z</time>
      </trkpt>
      <trkpt lat="46.246657138690352" lon="8.059466443955898">
        <ele>2447.6100000000001</ele>
        <time>2020-01-09T09:31:31Z</time>
      </trkpt>
      <trkpt lat="46.246688067913055" lon="8.059604493901134">
        <ele>2447.5999999999999</ele>
        <time>2020-01-09T09:31:47Z</time>
      </trkpt>
      <trkpt lat="46.246711118146777" lon="8.059685630723834">
        <ele>2448.6700000000001</ele>
        <time>2020-01-09T09:31:58Z</time>
      </trkpt>
      <trkpt lat="46.246750177815557" lon="8.059792248532176">
        <ele>2449.1399999999999</ele>
        <time>2020-01-09T09:32:12Z</time>
      </trkpt>
      <trkpt lat="46.246786136180162" lon="8.059877324849367">
        <ele>2449.48</ele>
        <time>2020-01-09T09:32:24Z</time>
      </trkpt>
      <trkpt lat="46.246825028210878" lon="8.059978997334838">
        <ele>2449.6999999999998</ele>
        <time>2020-01-09T09:32:37Z</time>
      </trkpt>
      <trkpt lat="46.246841289103031" lon="8.060069354251027">
        <ele>2450.25</ele>
        <time>2020-01-09T09:32:49Z</time>
      </trkpt>
      <trkpt lat="46.246880851686001" lon="8.060151329264045">
        <ele>2450.9200000000001</ele>
        <time>2020-01-09T09:33:02Z</time>
      </trkpt>
      <trkpt lat="46.246924689039588" lon="8.060244368389249">
        <ele>2451.1599999999999</ele>
        <time>2020-01-09T09:33:15Z</time>
      </trkpt>
      <trkpt lat="46.246960647404194" lon="8.060330618172884">
        <ele>2450.6300000000001</ele>
        <time>2020-01-09T09:33:28Z</time>
      </trkpt>
      <trkpt lat="46.247014543041587" lon="8.060411419719458">
        <ele>2450.9400000000001</ele>
        <time>2020-01-09T09:33:40Z</time>
      </trkpt>
      <trkpt lat="46.247066175565124" lon="8.060472020879388">
        <ele>2451.1100000000001</ele>
        <time>2020-01-09T09:33:51Z</time>
      </trkpt>
      <trkpt lat="46.247133146971464" lon="8.060589283704758">
        <ele>2452.4499999999998</ele>
        <time>2020-01-09T09:34:10Z</time>
      </trkpt>
      <trkpt lat="46.247160891070962" lon="8.060651393607259">
        <ele>2453.8299999999999</ele>
        <time>2020-01-09T09:34:22Z</time>
      </trkpt>
      <trkpt lat="46.247190479189157" lon="8.060683077201247">
        <ele>2454.3000000000002</ele>
        <time>2020-01-09T09:34:36Z</time>
      </trkpt>
      <trkpt lat="46.247222162783146" lon="8.060786426067352">
        <ele>2454.9200000000001</ele>
        <time>2020-01-09T09:34:50Z</time>
      </trkpt>
      <trkpt lat="46.247273795306683" lon="8.060899833217263">
        <ele>2456</ele>
        <time>2020-01-09T09:35:05Z</time>
      </trkpt>
      <trkpt lat="46.247310591861606" lon="8.060973593965173">
        <ele>2456.71</ele>
        <time>2020-01-09T09:35:15Z</time>
      </trkpt>
      <trkpt lat="46.247339090332389" lon="8.061037128791213">
        <ele>2458.4499999999998</ele>
        <time>2020-01-09T09:35:26Z</time>
      </trkpt>
      <trkpt lat="46.247368846088648" lon="8.061087420210242">
        <ele>2460.0700000000002</ele>
        <time>2020-01-09T09:35:37Z</time>
      </trkpt>
      <trkpt lat="46.247406480833888" lon="8.0611517932266">
        <ele>2461.9699999999998</ele>
        <time>2020-01-09T09:35:50Z</time>
      </trkpt>
      <trkpt lat="46.247441098093987" lon="8.061207700520754">
        <ele>2463.3400000000001</ele>
        <time>2020-01-09T09:36:04Z</time>
      </trkpt>
      <trkpt lat="46.247475380077958" lon="8.061265954747796">
        <ele>2464.3099999999999</ele>
        <time>2020-01-09T09:36:17Z</time>
      </trkpt>
      <trkpt lat="46.247513685375452" lon="8.061331668868661">
        <ele>2465.5500000000002</ele>
        <time>2020-01-09T09:36:30Z</time>
      </trkpt>
      <trkpt lat="46.247535478323698" lon="8.061436861753464">
        <ele>2467.27</ele>
        <time>2020-01-09T09:36:46Z</time>
      </trkpt>
      <trkpt lat="46.247555008158088" lon="8.061486231163144">
        <ele>2468.3000000000002</ele>
        <time>2020-01-09T09:36:56Z</time>
      </trkpt>
      <trkpt lat="46.247577639296651" lon="8.061564182862639">
        <ele>2469.1199999999999</ele>
        <time>2020-01-09T09:37:08Z</time>
      </trkpt>
      <trkpt lat="46.247604712843895" lon="8.061644397675991">
        <ele>2470.9899999999998</ele>
        <time>2020-01-09T09:37:21Z</time>
      </trkpt>
      <trkpt lat="46.247621057555079" lon="8.061697958037257">
        <ele>2472.52</ele>
        <time>2020-01-09T09:37:33Z</time>
      </trkpt>
      <trkpt lat="46.247618710622191" lon="8.061690581962466">
        <ele>2473.6999999999998</ele>
        <time>2020-01-09T09:37:58Z</time>
      </trkpt>
      <trkpt lat="46.247640922665596" lon="8.061768785119057">
        <ele>2474.4099999999999</ele>
        <time>2020-01-09T09:38:11Z</time>
      </trkpt>
      <trkpt lat="46.247679060325027" lon="8.061841540038586">
        <ele>2475.54</ele>
        <time>2020-01-09T09:38:24Z</time>
      </trkpt>
      <trkpt lat="46.24770856462419" lon="8.061910523101687">
        <ele>2476.77</ele>
        <time>2020-01-09T09:38:35Z</time>
      </trkpt>
      <trkpt lat="46.24775106087327" lon="8.062018062919378">
        <ele>2479.1799999999998</ele>
        <time>2020-01-09T09:38:52Z</time>
      </trkpt>
      <trkpt lat="46.247789869084954" lon="8.062091572210193">
        <ele>2480.0599999999999</ele>
        <time>2020-01-09T09:39:05Z</time>
      </trkpt>
      <trkpt lat="46.247815433889627" lon="8.062141863629222">
        <ele>2481.3000000000002</ele>
        <time>2020-01-09T09:39:16Z</time>
      </trkpt>
      <trkpt lat="46.247860696166754" lon="8.062223671004176">
        <ele>2482.8600000000001</ele>
        <time>2020-01-09T09:39:30Z</time>
      </trkpt>
      <trkpt lat="46.247914005070925" lon="8.062308579683304">
        <ele>2484.5999999999999</ele>
        <time>2020-01-09T09:39:44Z</time>
      </trkpt>
      <trkpt lat="46.247949041426182" lon="8.062373623251915">
        <ele>2485.5599999999999</ele>
        <time>2020-01-09T09:39:56Z</time>
      </trkpt>
      <trkpt lat="46.248001009225845" lon="8.06245744228363">
        <ele>2486.23</ele>
        <time>2020-01-09T09:40:11Z</time>
      </trkpt>
      <trkpt lat="46.248039901256561" lon="8.062531370669603">
        <ele>2487.1399999999999</ele>
        <time>2020-01-09T09:40:24Z</time>
      </trkpt>
      <trkpt lat="46.248078709468246" lon="8.062591049820185">
        <ele>2487.6100000000001</ele>
        <time>2020-01-09T09:40:35Z</time>
      </trkpt>
      <trkpt lat="46.248121121898293" lon="8.062657518312335">
        <ele>2487.98</ele>
        <time>2020-01-09T09:40:46Z</time>
      </trkpt>
      <trkpt lat="46.248142076656222" lon="8.06273446418345">
        <ele>2489.29</ele>
        <time>2020-01-09T09:40:59Z</time>
      </trkpt>
      <trkpt lat="46.248164959251881" lon="8.062830520793796">
        <ele>2491.3099999999999</ele>
        <time>2020-01-09T09:41:13Z</time>
      </trkpt>
      <trkpt lat="46.248193206265569" lon="8.062911406159401">
        <ele>2493.1300000000001</ele>
        <time>2020-01-09T09:41:25Z</time>
      </trkpt>
      <trkpt lat="46.248219441622496" lon="8.062990698963404">
        <ele>2495.1100000000001</ele>
        <time>2020-01-09T09:41:38Z</time>
      </trkpt>
      <trkpt lat="46.248264955356717" lon="8.063084492459893">
        <ele>2497.0900000000001</ele>
        <time>2020-01-09T09:41:53Z</time>
      </trkpt>
      <trkpt lat="46.24833058565855" lon="8.063175184652209">
        <ele>2498.7800000000002</ele>
        <time>2020-01-09T09:42:09Z</time>
      </trkpt>
      <trkpt lat="46.248377272859216" lon="8.063256405293942">
        <ele>2499.2800000000002</ele>
        <time>2020-01-09T09:42:22Z</time>
      </trkpt>
      <trkpt lat="46.248391773551702" lon="8.063285993412137">
        <ele>2499.7199999999998</ele>
        <time>2020-01-09T09:42:34Z</time>
      </trkpt>
      <trkpt lat="46.24838188290596" lon="8.063375344499946">
        <ele>2499.5300000000002</ele>
        <time>2020-01-09T09:42:45Z</time>
      </trkpt>
      <trkpt lat="46.24836377799511" lon="8.063419098034501">
        <ele>2500.0300000000002</ele>
        <time>2020-01-09T09:43:03Z</time>
      </trkpt>
      <trkpt lat="46.248325305059552" lon="8.063540467992425">
        <ele>2500.9899999999998</ele>
        <time>2020-01-09T09:43:19Z</time>
      </trkpt>
      <trkpt lat="46.248293286189437" lon="8.063631663098931">
        <ele>2502.4299999999998</ele>
        <time>2020-01-09T09:43:33Z</time>
      </trkpt>
      <trkpt lat="46.248295716941357" lon="8.063716823235154">
        <ele>2503.5300000000002</ele>
        <time>2020-01-09T09:43:45Z</time>
      </trkpt>
      <trkpt lat="46.248293621465564" lon="8.063773484900594">
        <ele>2504.5900000000001</ele>
        <time>2020-01-09T09:43:56Z</time>
      </trkpt>
      <trkpt lat="46.248314157128334" lon="8.063830733299255">
        <ele>2506.6100000000001</ele>
        <time>2020-01-09T09:44:09Z</time>
      </trkpt>
      <trkpt lat="46.248328490182757" lon="8.063884880393744">
        <ele>2508.0799999999999</ele>
        <time>2020-01-09T09:44:21Z</time>
      </trkpt>
      <trkpt lat="46.248331675305963" lon="8.063932824879885">
        <ele>2508.1599999999999</ele>
        <time>2020-01-09T09:44:31Z</time>
      </trkpt>
      <trkpt lat="46.248334608972073" lon="8.063993090763688">
        <ele>2509.6700000000001</ele>
        <time>2020-01-09T09:44:45Z</time>
      </trkpt>
      <trkpt lat="46.248346092179418" lon="8.064071713015437">
        <ele>2511.0300000000002</ele>
        <time>2020-01-09T09:44:58Z</time>
      </trkpt>
      <trkpt lat="46.248353971168399" lon="8.064157543703914">
        <ele>2513.2800000000002</ele>
        <time>2020-01-09T09:45:11Z</time>
      </trkpt>
      <trkpt lat="46.248367549851537" lon="8.06420473381877">
        <ele>2515.2600000000002</ele>
        <time>2020-01-09T09:45:22Z</time>
      </trkpt>
      <trkpt lat="46.248375847935677" lon="8.064262988045812">
        <ele>2515.4499999999998</ele>
        <time>2020-01-09T09:45:31Z</time>
      </trkpt>
      <trkpt lat="46.248378111049533" lon="8.064343202859163">
        <ele>2516.3699999999999</ele>
        <time>2020-01-09T09:45:42Z</time>
      </trkpt>
      <trkpt lat="46.24840141274035" lon="8.064459795132279">
        <ele>2517.6399999999999</ele>
        <time>2020-01-09T09:45:56Z</time>
      </trkpt>
      <trkpt lat="46.248423373326659" lon="8.064592480659485">
        <ele>2519.1199999999999</ele>
        <time>2020-01-09T09:46:13Z</time>
      </trkpt>
      <trkpt lat="46.248459247872233" lon="8.06472709402442">
        <ele>2520.4000000000001</ele>
        <time>2020-01-09T09:46:30Z</time>
      </trkpt>
      <trkpt lat="46.248480621725321" lon="8.064838405698538">
        <ele>2521.1700000000001</ele>
        <time>2020-01-09T09:46:43Z</time>
      </trkpt>
      <trkpt lat="46.248486908152699" lon="8.064855337142944">
        <ele>2521.27</ele>
        <time>2020-01-09T09:46:58Z</time>
      </trkpt>
      <trkpt lat="46.248498810455203" lon="8.064915938302875">
        <ele>2522.3099999999999</ele>
        <time>2020-01-09T09:47:13Z</time>
      </trkpt>
      <trkpt lat="46.248532338067889" lon="8.065049462020397">
        <ele>2523.0700000000002</ele>
        <time>2020-01-09T09:47:27Z</time>
      </trkpt>
      <trkpt lat="46.248564105480909" lon="8.06514342315495">
        <ele>2523.6900000000001</ele>
        <time>2020-01-09T09:47:38Z</time>
      </trkpt>
      <trkpt lat="46.248591430485249" lon="8.065230175852776">
        <ele>2524.8099999999999</ele>
        <time>2020-01-09T09:47:49Z</time>
      </trkpt>
      <trkpt lat="46.248619593679905" lon="8.065299494192004">
        <ele>2526.0500000000002</ele>
        <time>2020-01-09T09:47:59Z</time>
      </trkpt>
      <trkpt lat="46.248663933947682" lon="8.065368561074138">
        <ele>2526.4099999999999</ele>
        <time>2020-01-09T09:48:09Z</time>
      </trkpt>
      <trkpt lat="46.248753452673554" lon="8.065498815849423">
        <ele>2528.1799999999998</ele>
        <time>2020-01-09T09:48:28Z</time>
      </trkpt>
      <trkpt lat="46.248825117945671" lon="8.06557391770184">
        <ele>2527.0500000000002</ele>
        <time>2020-01-09T09:48:40Z</time>
      </trkpt>
      <trkpt lat="46.248915391042829" lon="8.065646421164274">
        <ele>2525.1900000000001</ele>
        <time>2020-01-09T09:48:54Z</time>
      </trkpt>
      <trkpt lat="46.248977920040488" lon="8.065707609057427">
        <ele>2523.8000000000002</ele>
        <time>2020-01-09T09:49:06Z</time>
      </trkpt>
      <trkpt lat="46.24903860501945" lon="8.065765360370278">
        <ele>2521.9000000000001</ele>
        <time>2020-01-09T09:49:18Z</time>
      </trkpt>
      <trkpt lat="46.249126698821783" lon="8.065806180238724">
        <ele>2520.2399999999998</ele>
        <time>2020-01-09T09:49:31Z</time>
      </trkpt>
      <trkpt lat="46.249220743775368" lon="8.065859489142895">
        <ele>2519.4200000000001</ele>
        <time>2020-01-09T09:49:46Z</time>
      </trkpt>
      <trkpt lat="46.249341862276196" lon="8.065944565460086">
        <ele>2516.7199999999998</ele>
        <time>2020-01-09T09:50:02Z</time>
      </trkpt>
      <trkpt lat="46.24942165799439" lon="8.066015895456076">
        <ele>2515.3200000000002</ele>
        <time>2020-01-09T09:50:14Z</time>
      </trkpt>
      <trkpt lat="46.249431381002069" lon="8.066036514937878">
        <ele>2515.04</ele>
        <time>2020-01-09T09:50:16Z</time>
      </trkpt>
      <trkpt lat="46.249504135921597" lon="8.066165344789624">
        <ele>2513.79</ele>
        <time>2020-01-09T09:50:30Z</time>
      </trkpt>
      <trkpt lat="46.249566245824099" lon="8.066267017275095">
        <ele>2512.7800000000002</ele>
        <time>2020-01-09T09:50:43Z</time>
      </trkpt>
      <trkpt lat="46.249673701822758" lon="8.066366342827678">
        <ele>2513.79</ele>
        <time>2020-01-09T09:50:58Z</time>
      </trkpt>
      <trkpt lat="46.249766405671835" lon="8.066451586782932">
        <ele>2513.71</ele>
        <time>2020-01-09T09:51:12Z</time>
      </trkpt>
      <trkpt lat="46.249854331836104" lon="8.066535657271743">
        <ele>2514.3899999999999</ele>
        <time>2020-01-09T09:51:25Z</time>
      </trkpt>
      <trkpt lat="46.249951226636767" lon="8.066585194319487">
        <ele>2515.4200000000001</ele>
        <time>2020-01-09T09:51:41Z</time>
      </trkpt>
      <trkpt lat="46.250026077032089" lon="8.066604221239686">
        <ele>2516.0999999999999</ele>
        <time>2020-01-09T09:51:53Z</time>
      </trkpt>
      <trkpt lat="46.250088103115559" lon="8.06660246104002">
        <ele>2517.1799999999998</ele>
        <time>2020-01-09T09:52:04Z</time>
      </trkpt>
      <trkpt lat="46.250151386484504" lon="8.066589972004294">
        <ele>2518.5700000000002</ele>
        <time>2020-01-09T09:52:17Z</time>
      </trkpt>
      <trkpt lat="46.250213077291846" lon="8.066583098843694">
        <ele>2519.73</ele>
        <time>2020-01-09T09:52:30Z</time>
      </trkpt>
      <trkpt lat="46.250289687886834" lon="8.066574884578586">
        <ele>2521.27</ele>
        <time>2020-01-09T09:52:44Z</time>
      </trkpt>
      <trkpt lat="46.250325227156281" lon="8.066577399149537">
        <ele>2522.6999999999998</ele>
        <time>2020-01-09T09:52:57Z</time>
      </trkpt>
      <trkpt lat="46.250391360372305" lon="8.066570358350873">
        <ele>2524.5599999999999</ele>
        <time>2020-01-09T09:53:10Z</time>
      </trkpt>
      <trkpt lat="46.250458499416709" lon="8.066565748304129">
        <ele>2526.23</ele>
        <time>2020-01-09T09:53:23Z</time>
      </trkpt>
      <trkpt lat="46.250527398660779" lon="8.066570777446032">
        <ele>2527.6700000000001</ele>
        <time>2020-01-09T09:53:37Z</time>
      </trkpt>
      <trkpt lat="46.250584982335567" lon="8.066592235118151">
        <ele>2529.6300000000001</ele>
        <time>2020-01-09T09:53:50Z</time>
      </trkpt>
      <trkpt lat="46.250643907114863" lon="8.066609837114811">
        <ele>2531.3699999999999</ele>
        <time>2020-01-09T09:54:04Z</time>
      </trkpt>
      <trkpt lat="46.250701993703842" lon="8.066632468253374">
        <ele>2533.0100000000002</ele>
        <time>2020-01-09T09:54:17Z</time>
      </trkpt>
      <trkpt lat="46.250757565721869" lon="8.066651998087764">
        <ele>2535.4000000000001</ele>
        <time>2020-01-09T09:54:29Z</time>
      </trkpt>
      <trkpt lat="46.25081523321569" lon="8.066684268414974">
        <ele>2536.7199999999998</ele>
        <time>2020-01-09T09:54:42Z</time>
      </trkpt>
      <trkpt lat="46.250865943729877" lon="8.066707151010633">
        <ele>2539.3099999999999</ele>
        <time>2020-01-09T09:54:54Z</time>
      </trkpt>
      <trkpt lat="46.250913804396987" lon="8.066734978929162">
        <ele>2539.9200000000001</ele>
        <time>2020-01-09T09:55:06Z</time>
      </trkpt>
      <trkpt lat="46.250973986461759" lon="8.066774625331163">
        <ele>2541.3600000000001</ele>
        <time>2020-01-09T09:55:20Z</time>
      </trkpt>
      <trkpt lat="46.251032659783959" lon="8.066817792132497">
        <ele>2543.4200000000001</ele>
        <time>2020-01-09T09:55:34Z</time>
      </trkpt>
      <trkpt lat="46.251080604270101" lon="8.066868083551526">
        <ele>2545.2800000000002</ele>
        <time>2020-01-09T09:55:47Z</time>
      </trkpt>
      <trkpt lat="46.251121591776609" lon="8.066919548436999">
        <ele>2545.4499999999998</ele>
        <time>2020-01-09T09:55:58Z</time>
      </trkpt>
      <trkpt lat="46.251165177673101" lon="8.066971767693758">
        <ele>2546.1700000000001</ele>
        <time>2020-01-09T09:56:10Z</time>
      </trkpt>
      <trkpt lat="46.251170290634036" lon="8.066989034414291">
        <ele>2546.5999999999999</ele>
        <time>2020-01-09T09:56:26Z</time>
      </trkpt>
      <trkpt lat="46.25121203251183" lon="8.067034799605608">
        <ele>2548.1100000000001</ele>
        <time>2020-01-09T09:56:40Z</time>
      </trkpt>
      <trkpt lat="46.251261653378606" lon="8.067109314724803">
        <ele>2549.4200000000001</ele>
        <time>2020-01-09T09:56:56Z</time>
      </trkpt>
      <trkpt lat="46.251294007524848" lon="8.067142590880394">
        <ele>2549.9299999999998</ele>
        <time>2020-01-09T09:57:07Z</time>
      </trkpt>
      <trkpt lat="46.251327618956566" lon="8.067213669419289">
        <ele>2551.23</ele>
        <time>2020-01-09T09:57:19Z</time>
      </trkpt>
      <trkpt lat="46.251352345570922" lon="8.067305032163858">
        <ele>2553.02</ele>
        <time>2020-01-09T09:57:34Z</time>
      </trkpt>
      <trkpt lat="46.25137522816658" lon="8.067376278340817">
        <ele>2554.7399999999998</ele>
        <time>2020-01-09T09:57:46Z</time>
      </trkpt>
      <trkpt lat="46.251421328634024" lon="8.067447692155838">
        <ele>2556.1399999999999</ele>
        <time>2020-01-09T09:58:00Z</time>
      </trkpt>
      <trkpt lat="46.251454772427678" lon="8.067492367699742">
        <ele>2557.0100000000002</ele>
        <time>2020-01-09T09:58:11Z</time>
      </trkpt>
      <trkpt lat="46.251498190686107" lon="8.067543748766184">
        <ele>2558.3400000000001</ele>
        <time>2020-01-09T09:58:25Z</time>
      </trkpt>
      <trkpt lat="46.251497939229012" lon="8.067559087648988">
        <ele>2557.8400000000001</ele>
        <time>2020-01-09T09:58:46Z</time>
      </trkpt>
      <trkpt lat="46.251496011391282" lon="8.067559339106083">
        <ele>2560.2600000000002</ele>
        <time>2020-01-09T09:58:56Z</time>
      </trkpt>
      <trkpt lat="46.251544374972582" lon="8.06761390529573">
        <ele>2560.8099999999999</ele>
        <time>2020-01-09T09:59:09Z</time>
      </trkpt>
      <trkpt lat="46.251605311408639" lon="8.067683894187212">
        <ele>2562.3899999999999</ele>
        <time>2020-01-09T09:59:23Z</time>
      </trkpt>
      <trkpt lat="46.251635570079088" lon="8.067722367122769">
        <ele>2564.0900000000001</ele>
        <time>2020-01-09T09:59:30Z</time>
      </trkpt>
      <trkpt lat="46.251648310571909" lon="8.067741142585874">
        <ele>2562.2800000000002</ele>
        <time>2020-01-09T09:59:33Z</time>
      </trkpt>
      <trkpt lat="46.251657614484429" lon="8.067762264981866">
        <ele>2563.8899999999999</ele>
        <time>2020-01-09T09:59:36Z</time>
      </trkpt>
      <trkpt lat="46.251704469323158" lon="8.067844156175852">
        <ele>2566.1399999999999</ele>
        <time>2020-01-09T09:59:51Z</time>
      </trkpt>
      <trkpt lat="46.251745205372572" lon="8.067938117310405">
        <ele>2566.7399999999998</ele>
        <time>2020-01-09T10:00:06Z</time>
      </trkpt>
      <trkpt lat="46.251763226464391" lon="8.067984385415912">
        <ele>2568.2600000000002</ele>
        <time>2020-01-09T10:00:14Z</time>
      </trkpt>
      <trkpt lat="46.251800274476409" lon="8.068067030981183">
        <ele>2569.04</ele>
        <time>2020-01-09T10:00:27Z</time>
      </trkpt>
      <trkpt lat="46.251809578388929" lon="8.068090416491032">
        <ele>2568.0799999999999</ele>
        <time>2020-01-09T10:00:36Z</time>
      </trkpt>
      <trkpt lat="46.251808991655707" lon="8.068094523623586">
        <ele>2568.3400000000001</ele>
        <time>2020-01-09T10:00:55Z</time>
      </trkpt>
      <trkpt lat="46.251800777390599" lon="8.068094942718744">
        <ele>2568.8099999999999</ele>
        <time>2020-01-09T10:01:16Z</time>
      </trkpt>
      <trkpt lat="46.251801615580916" lon="8.068093014881015">
        <ele>2569.9099999999999</ele>
        <time>2020-01-09T10:01:32Z</time>
      </trkpt>
      <trkpt lat="46.251802705228329" lon="8.068091422319412">
        <ele>2568.98</ele>
        <time>2020-01-09T10:01:34Z</time>
      </trkpt>
      <trkpt lat="46.251812847331166" lon="8.06809863075614">
        <ele>2570.5700000000002</ele>
        <time>2020-01-09T10:01:50Z</time>
      </trkpt>
      <trkpt lat="46.251824330538511" lon="8.068147161975503">
        <ele>2572.54</ele>
        <time>2020-01-09T10:02:00Z</time>
      </trkpt>
      <trkpt lat="46.251855930313468" lon="8.068170128390193">
        <ele>2572.0599999999999</ele>
        <time>2020-01-09T10:02:20Z</time>
      </trkpt>
      <trkpt lat="46.251882836222649" lon="8.068236345425248">
        <ele>2573.1100000000001</ele>
        <time>2020-01-09T10:02:33Z</time>
      </trkpt>
      <trkpt lat="46.251894487068057" lon="8.068320751190186">
        <ele>2574.02</ele>
        <time>2020-01-09T10:02:45Z</time>
      </trkpt>
      <trkpt lat="46.251935726031661" lon="8.068390907719731">
        <ele>2574.7600000000002</ele>
        <time>2020-01-09T10:02:56Z</time>
      </trkpt>
      <trkpt lat="46.251976378262043" lon="8.068467853590846">
        <ele>2576.6599999999999</ele>
        <time>2020-01-09T10:03:09Z</time>
      </trkpt>
      <trkpt lat="46.251986101269722" lon="8.068490233272314">
        <ele>2575.5799999999999</ele>
        <time>2020-01-09T10:03:22Z</time>
      </trkpt>
      <trkpt lat="46.251999596133828" lon="8.068505739793181">
        <ele>2577.8299999999999</ele>
        <time>2020-01-09T10:03:45Z</time>
      </trkpt>
      <trkpt lat="46.252011246979237" lon="8.068526862189174">
        <ele>2577.3800000000001</ele>
        <time>2020-01-09T10:04:09Z</time>
      </trkpt>
      <trkpt lat="46.252060616388917" lon="8.068617219105363">
        <ele>2577.1100000000001</ele>
        <time>2020-01-09T10:04:22Z</time>
      </trkpt>
      <trkpt lat="46.252082157880068" lon="8.068662900477648">
        <ele>2576.4899999999998</ele>
        <time>2020-01-09T10:04:28Z</time>
      </trkpt>
      <trkpt lat="46.25212817452848" lon="8.068755101412535">
        <ele>2578.1500000000001</ele>
        <time>2020-01-09T10:04:42Z</time>
      </trkpt>
      <trkpt lat="46.252179471775889" lon="8.068852080032229">
        <ele>2578.52</ele>
        <time>2020-01-09T10:04:57Z</time>
      </trkpt>
      <trkpt lat="46.252201600000262" lon="8.06891318410635">
        <ele>2579.8800000000001</ele>
        <time>2020-01-09T10:05:07Z</time>
      </trkpt>
      <trkpt lat="46.252218782901764" lon="8.068983005359769">
        <ele>2581.4099999999999</ele>
        <time>2020-01-09T10:05:18Z</time>
      </trkpt>
      <trkpt lat="46.252237306907773" lon="8.06903438642621">
        <ele>2581.75</ele>
        <time>2020-01-09T10:05:30Z</time>
      </trkpt>
      <trkpt lat="46.252260021865368" lon="8.069110829383135">
        <ele>2581.5599999999999</ele>
        <time>2020-01-09T10:05:42Z</time>
      </trkpt>
      <trkpt lat="46.252290364354849" lon="8.069175537675619">
        <ele>2582.5900000000001</ele>
        <time>2020-01-09T10:05:53Z</time>
      </trkpt>
      <trkpt lat="46.252307882532477" lon="8.069232199341059">
        <ele>2583.3800000000001</ele>
        <time>2020-01-09T10:06:03Z</time>
      </trkpt>
      <trkpt lat="46.252320790663362" lon="8.069309731945396">
        <ele>2585.1199999999999</ele>
        <time>2020-01-09T10:06:16Z</time>
      </trkpt>
      <trkpt lat="46.252326657995582" lon="8.06939740665257">
        <ele>2586.9400000000001</ele>
        <time>2020-01-09T10:06:30Z</time>
      </trkpt>
      <trkpt lat="46.252337303012609" lon="8.069467647001147">
        <ele>2588.4899999999998</ele>
        <time>2020-01-09T10:06:43Z</time>
      </trkpt>
      <trkpt lat="46.25234710983932" lon="8.069542245939374">
        <ele>2589.3899999999999</ele>
        <time>2020-01-09T10:06:54Z</time>
      </trkpt>
      <trkpt lat="46.252339566126466" lon="8.069539899006486">
        <ele>2589.0700000000002</ele>
        <time>2020-01-09T10:07:07Z</time>
      </trkpt>
      <trkpt lat="46.252355827018619" lon="8.069593878462911">
        <ele>2590.27</ele>
        <time>2020-01-09T10:07:18Z</time>
      </trkpt>
      <trkpt lat="46.252382649108768" lon="8.069650623947382">
        <ele>2592.0900000000001</ele>
        <time>2020-01-09T10:07:28Z</time>
      </trkpt>
      <trkpt lat="46.252431934699416" lon="8.069728827103972">
        <ele>2593.4400000000001</ele>
        <time>2020-01-09T10:07:43Z</time>
      </trkpt>
      <trkpt lat="46.252440735697746" lon="8.069760007783771">
        <ele>2593.96</ele>
        <time>2020-01-09T10:07:59Z</time>
      </trkpt>
      <trkpt lat="46.252439059317112" lon="8.069756990298629">
        <ele>2594.4400000000001</ele>
        <time>2020-01-09T10:08:22Z</time>
      </trkpt>
      <trkpt lat="46.25244920141995" lon="8.069801414385438">
        <ele>2594.1999999999998</ele>
        <time>2020-01-09T10:08:32Z</time>
      </trkpt>
      <trkpt lat="46.252451464533806" lon="8.069904344156385">
        <ele>2596.9200000000001</ele>
        <time>2020-01-09T10:08:45Z</time>
      </trkpt>
      <trkpt lat="46.252459930256009" lon="8.069997550919652">
        <ele>2599.2600000000002</ele>
        <time>2020-01-09T10:08:57Z</time>
      </trkpt>
      <trkpt lat="46.252477616071701" lon="8.070066450163722">
        <ele>2600.4200000000001</ele>
        <time>2020-01-09T10:09:09Z</time>
      </trkpt>
      <trkpt lat="46.252500079572201" lon="8.070121435448527">
        <ele>2602.1700000000001</ele>
        <time>2020-01-09T10:09:18Z</time>
      </trkpt>
      <trkpt lat="46.252546180039644" lon="8.07018069550395">
        <ele>2603.6500000000001</ele>
        <time>2020-01-09T10:09:28Z</time>
      </trkpt>
      <trkpt lat="46.252579959109426" lon="8.070243895053864">
        <ele>2604.3600000000001</ele>
        <time>2020-01-09T10:09:40Z</time>
      </trkpt>
      <trkpt lat="46.25260703265667" lon="8.070303071290255">
        <ele>2605.3000000000002</ele>
        <time>2020-01-09T10:09:52Z</time>
      </trkpt>
      <trkpt lat="46.252664783969522" lon="8.070369455963373">
        <ele>2606.6399999999999</ele>
        <time>2020-01-09T10:10:05Z</time>
      </trkpt>
      <trkpt lat="46.25270870514214" lon="8.070437097921968">
        <ele>2608</ele>
        <time>2020-01-09T10:10:17Z</time>
      </trkpt>
      <trkpt lat="46.252747178077698" lon="8.070504739880562">
        <ele>2609.2800000000002</ele>
        <time>2020-01-09T10:10:30Z</time>
      </trkpt>
      <trkpt lat="46.252767713740468" lon="8.07052468881011">
        <ele>2609.7600000000002</ele>
        <time>2020-01-09T10:10:46Z</time>
      </trkpt>
      <trkpt lat="46.252810880541801" lon="8.070592749863863">
        <ele>2609.52</ele>
        <time>2020-01-09T10:10:58Z</time>
      </trkpt>
      <trkpt lat="46.25287089496851" lon="8.070699283853173">
        <ele>2611.5599999999999</ele>
        <time>2020-01-09T10:11:13Z</time>
      </trkpt>
      <trkpt lat="46.252895789220929" lon="8.070732895284891">
        <ele>2611.9499999999998</ele>
        <time>2020-01-09T10:11:21Z</time>
      </trkpt>
      <trkpt lat="46.252935351803899" lon="8.070800956338644">
        <ele>2612.3000000000002</ele>
        <time>2020-01-09T10:11:34Z</time>
      </trkpt>
      <trkpt lat="46.252955636009574" lon="8.070850912481546">
        <ele>2614.21</ele>
        <time>2020-01-09T10:11:46Z</time>
      </trkpt>
      <trkpt lat="46.252971729263663" lon="8.070878153666854">
        <ele>2614.8600000000001</ele>
        <time>2020-01-09T10:12:06Z</time>
      </trkpt>
      <trkpt lat="46.252989582717419" lon="8.070920063182712">
        <ele>2615.6399999999999</ele>
        <time>2020-01-09T10:12:17Z</time>
      </trkpt>
      <trkpt lat="46.253015315160155" lon="8.070981167256832">
        <ele>2617.0700000000002</ele>
        <time>2020-01-09T10:12:28Z</time>
      </trkpt>
      <trkpt lat="46.2530526984483" lon="8.071049898862839">
        <ele>2618.52</ele>
        <time>2020-01-09T10:12:40Z</time>
      </trkpt>
      <trkpt lat="46.253077005967498" lon="8.071112092584372">
        <ele>2618.8000000000002</ele>
        <time>2020-01-09T10:12:54Z</time>
      </trkpt>
      <trkpt lat="46.253069378435612" lon="8.071119049564004">
        <ele>2620.0999999999999</ele>
        <time>2020-01-09T10:13:15Z</time>
      </trkpt>
      <trkpt lat="46.253099301829934" lon="8.071191469207406">
        <ele>2620.5599999999999</ele>
        <time>2020-01-09T10:13:29Z</time>
      </trkpt>
      <trkpt lat="46.253120759502053" lon="8.071263218298554">
        <ele>2622.48</ele>
        <time>2020-01-09T10:13:40Z</time>
      </trkpt>
      <trkpt lat="46.253156969323754" lon="8.071343181654811">
        <ele>2623.5900000000001</ele>
        <time>2020-01-09T10:13:53Z</time>
      </trkpt>
      <trkpt lat="46.253176666796207" lon="8.071412416175008">
        <ele>2624.0599999999999</ele>
        <time>2020-01-09T10:14:04Z</time>
      </trkpt>
      <trkpt lat="46.25319586135447" lon="8.071489948779345">
        <ele>2624.5799999999999</ele>
        <time>2020-01-09T10:14:15Z</time>
      </trkpt>
      <trkpt lat="46.253218911588192" lon="8.07157427072525">
        <ele>2625.0900000000001</ele>
        <time>2020-01-09T10:14:27Z</time>
      </trkpt>
      <trkpt lat="46.253233663737774" lon="8.071645768359304">
        <ele>2626.8099999999999</ele>
        <time>2020-01-09T10:14:39Z</time>
      </trkpt>
      <trkpt lat="46.253261407837272" lon="8.071732018142939">
        <ele>2627.7399999999998</ele>
        <time>2020-01-09T10:14:53Z</time>
      </trkpt>
      <trkpt lat="46.253279931843281" lon="8.071827404201031">
        <ele>2628.79</ele>
        <time>2020-01-09T10:15:07Z</time>
      </trkpt>
      <trkpt lat="46.253289235755801" lon="8.071870654821396">
        <ele>2631.9299999999998</ele>
        <time>2020-01-09T10:15:15Z</time>
      </trkpt>
      <trkpt lat="46.253298204392195" lon="8.071868307888508">
        <ele>2631.1300000000001</ele>
        <time>2020-01-09T10:15:34Z</time>
      </trkpt>
      <trkpt lat="46.253322763368487" lon="8.071909127756953">
        <ele>2630.9299999999998</ele>
        <time>2020-01-09T10:15:43Z</time>
      </trkpt>
      <trkpt lat="46.253330390900373" lon="8.071933938190341">
        <ele>2631.9000000000001</ele>
        <time>2020-01-09T10:15:56Z</time>
      </trkpt>
      <trkpt lat="46.253354614600539" lon="8.072046171873808">
        <ele>2633.9200000000001</ele>
        <time>2020-01-09T10:16:13Z</time>
      </trkpt>
      <trkpt lat="46.253368109464645" lon="8.072107778862119">
        <ele>2634.9899999999998</ele>
        <time>2020-01-09T10:16:23Z</time>
      </trkpt>
      <trkpt lat="46.253377832472324" lon="8.072145245969296">
        <ele>2636.52</ele>
        <time>2020-01-09T10:16:35Z</time>
      </trkpt>
      <trkpt lat="46.253382358700037" lon="8.072141809388995">
        <ele>2636.6999999999998</ele>
        <time>2020-01-09T10:16:49Z</time>
      </trkpt>
      <trkpt lat="46.253391243517399" lon="8.072216575965285">
        <ele>2635.9099999999999</ele>
        <time>2020-01-09T10:17:06Z</time>
      </trkpt>
      <trkpt lat="46.253399038687348" lon="8.07231891900301">
        <ele>2638.27</ele>
        <time>2020-01-09T10:17:20Z</time>
      </trkpt>
      <trkpt lat="46.253406079486012" lon="8.072409778833389">
        <ele>2639.3299999999999</ele>
        <time>2020-01-09T10:17:32Z</time>
      </trkpt>
      <trkpt lat="46.253407672047615" lon="8.072512373328209">
        <ele>2641.5900000000001</ele>
        <time>2020-01-09T10:17:46Z</time>
      </trkpt>
      <trkpt lat="46.25341085717082" lon="8.072599545121193">
        <ele>2641.6500000000001</ele>
        <time>2020-01-09T10:17:57Z</time>
      </trkpt>
      <trkpt lat="46.253411611542106" lon="8.072596611455083">
        <ele>2642.1100000000001</ele>
        <time>2020-01-09T10:18:04Z</time>
      </trkpt>
      <trkpt lat="46.253412282094359" lon="8.072599042207003">
        <ele>2641.4899999999998</ele>
        <time>2020-01-09T10:18:17Z</time>
      </trkpt>
      <trkpt lat="46.25341965816915" lon="8.072670288383961">
        <ele>2643.8800000000001</ele>
        <time>2020-01-09T10:18:27Z</time>
      </trkpt>
      <trkpt lat="46.253418484702706" lon="8.072748659178615">
        <ele>2646.7800000000002</ele>
        <time>2020-01-09T10:18:39Z</time>
      </trkpt>
      <trkpt lat="46.253416305407882" lon="8.072784785181284">
        <ele>2645.8699999999999</ele>
        <time>2020-01-09T10:18:44Z</time>
      </trkpt>
      <trkpt lat="46.253422675654292" lon="8.072858797386289">
        <ele>2646.4299999999998</ele>
        <time>2020-01-09T10:18:55Z</time>
      </trkpt>
      <trkpt lat="46.253431644290686" lon="8.072950830683112">
        <ele>2648.0100000000002</ele>
        <time>2020-01-09T10:19:07Z</time>
      </trkpt>
      <trkpt lat="46.25344212166965" lon="8.073056861758232">
        <ele>2649.5300000000002</ele>
        <time>2020-01-09T10:19:21Z</time>
      </trkpt>
      <trkpt lat="46.253442708402872" lon="8.073143530637026">
        <ele>2651.7199999999998</ele>
        <time>2020-01-09T10:19:33Z</time>
      </trkpt>
      <trkpt lat="46.253444300964475" lon="8.073232043534517">
        <ele>2653.52</ele>
        <time>2020-01-09T10:19:46Z</time>
      </trkpt>
      <trkpt lat="46.253448240458965" lon="8.073301529511809">
        <ele>2655.6599999999999</ele>
        <time>2020-01-09T10:19:56Z</time>
      </trkpt>
      <trkpt lat="46.253453521057963" lon="8.073388366028667">
        <ele>2656.1300000000001</ele>
        <time>2020-01-09T10:20:09Z</time>
      </trkpt>
      <trkpt lat="46.253456957638264" lon="8.073452739045024">
        <ele>2657.04</ele>
        <time>2020-01-09T10:20:18Z</time>
      </trkpt>
      <trkpt lat="46.25346215441823" lon="8.07352683506906">
        <ele>2659.0900000000001</ele>
        <time>2020-01-09T10:20:30Z</time>
      </trkpt>
      <trkpt lat="46.253467351198196" lon="8.073598584160209">
        <ele>2660.3800000000001</ele>
        <time>2020-01-09T10:20:42Z</time>
      </trkpt>
      <trkpt lat="46.253477493301034" lon="8.073681565001607">
        <ele>2661.98</ele>
        <time>2020-01-09T10:20:55Z</time>
      </trkpt>
      <trkpt lat="46.253490736708045" lon="8.073761276900768">
        <ele>2663.8800000000001</ele>
        <time>2020-01-09T10:21:07Z</time>
      </trkpt>
      <trkpt lat="46.253496436402202" lon="8.073842665180564">
        <ele>2665.0799999999999</ele>
        <time>2020-01-09T10:21:19Z</time>
      </trkpt>
      <trkpt lat="46.253500208258629" lon="8.073904942721129">
        <ele>2667.75</ele>
        <time>2020-01-09T10:21:30Z</time>
      </trkpt>
      <trkpt lat="46.253495933488011" lon="8.073996054008603">
        <ele>2668.6500000000001</ele>
        <time>2020-01-09T10:21:44Z</time>
      </trkpt>
      <trkpt lat="46.253509512171149" lon="8.074054224416614">
        <ele>2670.4699999999998</ele>
        <time>2020-01-09T10:21:55Z</time>
      </trkpt>
      <trkpt lat="46.253522923216224" lon="8.074124380946159">
        <ele>2671.6300000000001</ele>
        <time>2020-01-09T10:22:07Z</time>
      </trkpt>
      <trkpt lat="46.25353398732841" lon="8.074200991541147">
        <ele>2672.8800000000001</ele>
        <time>2020-01-09T10:22:19Z</time>
      </trkpt>
      <trkpt lat="46.253552595153451" lon="8.074282296001911">
        <ele>2674.6700000000001</ele>
        <time>2020-01-09T10:22:32Z</time>
      </trkpt>
      <trkpt lat="46.253576651215553" lon="8.07437407784164">
        <ele>2675.71</ele>
        <time>2020-01-09T10:22:44Z</time>
      </trkpt>
      <trkpt lat="46.253594253212214" lon="8.074468625709415">
        <ele>2677.6500000000001</ele>
        <time>2020-01-09T10:22:57Z</time>
      </trkpt>
      <trkpt lat="46.253611771389842" lon="8.07455881498754">
        <ele>2679.0100000000002</ele>
        <time>2020-01-09T10:23:10Z</time>
      </trkpt>
      <trkpt lat="46.253628451377153" lon="8.074640203267336">
        <ele>2680.9200000000001</ele>
        <time>2020-01-09T10:23:22Z</time>
      </trkpt>
      <trkpt lat="46.253639347851276" lon="8.074711365625262">
        <ele>2681.8800000000001</ele>
        <time>2020-01-09T10:23:34Z</time>
      </trkpt>
      <trkpt lat="46.253656446933746" lon="8.07478210888803">
        <ele>2683.1799999999998</ele>
        <time>2020-01-09T10:23:46Z</time>
      </trkpt>
      <trkpt lat="46.253672204911709" lon="8.074849080294371">
        <ele>2685.4899999999998</ele>
        <time>2020-01-09T10:23:57Z</time>
      </trkpt>
      <trkpt lat="46.253686202690005" lon="8.074930133298039">
        <ele>2686.5300000000002</ele>
        <time>2020-01-09T10:24:10Z</time>
      </trkpt>
      <trkpt lat="46.253684191033244" lon="8.075030883774161">
        <ele>2688.6500000000001</ele>
        <time>2020-01-09T10:24:25Z</time>
      </trkpt>
      <trkpt lat="46.253707492724061" lon="8.075104979798198">
        <ele>2690.48</ele>
        <time>2020-01-09T10:24:39Z</time>
      </trkpt>
      <trkpt lat="46.253718640655279" lon="8.075157701969147">
        <ele>2691.9499999999998</ele>
        <time>2020-01-09T10:24:50Z</time>
      </trkpt>
      <trkpt lat="46.253746803849936" lon="8.075221572071314">
        <ele>2693.6599999999999</ele>
        <time>2020-01-09T10:25:02Z</time>
      </trkpt>
      <trkpt lat="46.253777146339417" lon="8.075264738872647">
        <ele>2696.3800000000001</ele>
        <time>2020-01-09T10:25:13Z</time>
      </trkpt>
      <trkpt lat="46.253794329240918" lon="8.075302541255951">
        <ele>2697.0700000000002</ele>
        <time>2020-01-09T10:25:23Z</time>
      </trkpt>
      <trkpt lat="46.253813272342086" lon="8.075332967564464">
        <ele>2698.9699999999998</ele>
        <time>2020-01-09T10:25:34Z</time>
      </trkpt>
      <trkpt lat="46.253825509920716" lon="8.075361717492342">
        <ele>2700.29</ele>
        <time>2020-01-09T10:25:44Z</time>
      </trkpt>
      <trkpt lat="46.253835819661617" lon="8.07540999725461">
        <ele>2701.98</ele>
        <time>2020-01-09T10:25:55Z</time>
      </trkpt>
      <trkpt lat="46.25387697480619" lon="8.075428102165461">
        <ele>2703.23</ele>
        <time>2020-01-09T10:26:07Z</time>
      </trkpt>
      <trkpt lat="46.253920644521713" lon="8.075458109378815">
        <ele>2704.3600000000001</ele>
        <time>2020-01-09T10:26:19Z</time>
      </trkpt>
      <trkpt lat="46.253956770524383" lon="8.075500437989831">
        <ele>2704.9099999999999</ele>
        <time>2020-01-09T10:26:31Z</time>
      </trkpt>
      <trkpt lat="46.253978228196502" lon="8.075526924803853">
        <ele>2705.3200000000002</ele>
        <time>2020-01-09T10:26:42Z</time>
      </trkpt>
      <trkpt lat="46.253985688090324" lon="8.075533881783485">
        <ele>2704.4499999999998</ele>
        <time>2020-01-09T10:26:51Z</time>
      </trkpt>
      <trkpt lat="46.253988537937403" lon="8.075530864298344">
        <ele>2705.4699999999998</ele>
        <time>2020-01-09T10:27:04Z</time>
      </trkpt>
      <trkpt lat="46.254051234573126" lon="8.075601104646921">
        <ele>2706.48</ele>
        <time>2020-01-09T10:27:20Z</time>
      </trkpt>
      <trkpt lat="46.254105214029551" lon="8.075679140165448">
        <ele>2707.8600000000001</ele>
        <time>2020-01-09T10:27:33Z</time>
      </trkpt>
      <trkpt lat="46.254165731370449" lon="8.075749715790153">
        <ele>2708.6300000000001</ele>
        <time>2020-01-09T10:27:47Z</time>
      </trkpt>
      <trkpt lat="46.254240246489644" lon="8.075792882591486">
        <ele>2709.0700000000002</ele>
        <time>2020-01-09T10:27:59Z</time>
      </trkpt>
      <trkpt lat="46.254321131855249" lon="8.075835295021534">
        <ele>2710.48</ele>
        <time>2020-01-09T10:28:15Z</time>
      </trkpt>
      <trkpt lat="46.254370585083961" lon="8.075872762128711">
        <ele>2711.4499999999998</ele>
        <time>2020-01-09T10:28:27Z</time>
      </trkpt>
      <trkpt lat="46.254431689158082" lon="8.075913079082966">
        <ele>2712.8899999999999</ele>
        <time>2020-01-09T10:28:41Z</time>
      </trkpt>
      <trkpt lat="46.254490362480283" lon="8.075943924486637">
        <ele>2714.4200000000001</ele>
        <time>2020-01-09T10:28:54Z</time>
      </trkpt>
      <trkpt lat="46.254520202055573" lon="8.07594845071435">
        <ele>2713.9499999999998</ele>
        <time>2020-01-09T10:29:09Z</time>
      </trkpt>
      <trkpt lat="46.25452590174973" lon="8.075945684686303">
        <ele>2715.6500000000001</ele>
        <time>2020-01-09T10:29:24Z</time>
      </trkpt>
      <trkpt lat="46.254587089642882" lon="8.075962448492646">
        <ele>2716.7600000000002</ele>
        <time>2020-01-09T10:29:37Z</time>
      </trkpt>
      <trkpt lat="46.254645260050893" lon="8.075993712991476">
        <ele>2719.02</ele>
        <time>2020-01-09T10:29:51Z</time>
      </trkpt>
      <trkpt lat="46.25467836856842" lon="8.076016008853912">
        <ele>2718.8499999999999</ele>
        <time>2020-01-09T10:30:02Z</time>
      </trkpt>
      <trkpt lat="46.254696808755398" lon="8.076026989147067">
        <ele>2721.25</ele>
        <time>2020-01-09T10:30:08Z</time>
      </trkpt>
      <trkpt lat="46.254761936143041" lon="8.076057163998485">
        <ele>2722.2199999999998</ele>
        <time>2020-01-09T10:30:23Z</time>
      </trkpt>
      <trkpt lat="46.254813484847546" lon="8.076092032715678">
        <ele>2723.9699999999998</ele>
        <time>2020-01-09T10:30:35Z</time>
      </trkpt>
      <trkpt lat="46.254843743517995" lon="8.076115921139717">
        <ele>2725.29</ele>
        <time>2020-01-09T10:30:45Z</time>
      </trkpt>
      <trkpt lat="46.254877857863903" lon="8.076150957494974">
        <ele>2726.3600000000001</ele>
        <time>2020-01-09T10:30:55Z</time>
      </trkpt>
      <trkpt lat="46.254923120141029" lon="8.076185239478946">
        <ele>2727.54</ele>
        <time>2020-01-09T10:31:07Z</time>
      </trkpt>
      <trkpt lat="46.254966957494617" lon="8.076213737949729">
        <ele>2730.1100000000001</ele>
        <time>2020-01-09T10:31:19Z</time>
      </trkpt>
      <trkpt lat="46.254971986636519" lon="8.076230166479945">
        <ele>2729.9400000000001</ele>
        <time>2020-01-09T10:31:32Z</time>
      </trkpt>
      <trkpt lat="46.254984643310308" lon="8.076290767639875">
        <ele>2730.6500000000001</ele>
        <time>2020-01-09T10:31:42Z</time>
      </trkpt>
      <trkpt lat="46.254994785413146" lon="8.076301328837872">
        <ele>2732.1599999999999</ele>
        <time>2020-01-09T10:31:45Z</time>
      </trkpt>
      <trkpt lat="46.255054380744696" lon="8.076299568638206">
        <ele>2735.0300000000002</ele>
        <time>2020-01-09T10:31:59Z</time>
      </trkpt>
      <trkpt lat="46.255092266947031" lon="8.076277188956738">
        <ele>2737.02</ele>
        <time>2020-01-09T10:32:11Z</time>
      </trkpt>
      <trkpt lat="46.255108946934342" lon="8.076273333281279">
        <ele>2736.5799999999999</ele>
        <time>2020-01-09T10:32:20Z</time>
      </trkpt>
      <trkpt lat="46.255119508132339" lon="8.076288504526019">
        <ele>2739.27</ele>
        <time>2020-01-09T10:32:32Z</time>
      </trkpt>
      <trkpt lat="46.25513082370162" lon="8.076295461505652">
        <ele>2739.25</ele>
        <time>2020-01-09T10:32:41Z</time>
      </trkpt>
      <trkpt lat="46.255168626084924" lon="8.076336365193129">
        <ele>2741.2800000000002</ele>
        <time>2020-01-09T10:32:52Z</time>
      </trkpt>
      <trkpt lat="46.25518849119544" lon="8.076379699632525">
        <ele>2742.6399999999999</ele>
        <time>2020-01-09T10:33:05Z</time>
      </trkpt>
      <trkpt lat="46.255207182839513" lon="8.076426638290286">
        <ele>2744.1399999999999</ele>
        <time>2020-01-09T10:33:15Z</time>
      </trkpt>
      <trkpt lat="46.255208440124989" lon="8.076426722109318">
        <ele>2744.0900000000001</ele>
        <time>2020-01-09T10:33:30Z</time>
      </trkpt>
      <trkpt lat="46.255207853391767" lon="8.076430577784777">
        <ele>2743</ele>
        <time>2020-01-09T10:33:43Z</time>
      </trkpt>
      <trkpt lat="46.255204165354371" lon="8.076429069042206">
        <ele>2741.8600000000001</ele>
        <time>2020-01-09T10:33:45Z</time>
      </trkpt>
      <trkpt lat="46.255200058221817" lon="8.076436026021838">
        <ele>2741.52</ele>
        <time>2020-01-09T10:34:04Z</time>
      </trkpt>
      <trkpt lat="46.255203327164054" lon="8.076434349641204">
        <ele>2743.0599999999999</ele>
        <time>2020-01-09T10:34:24Z</time>
      </trkpt>
      <trkpt lat="46.255208775401115" lon="8.076426470652223">
        <ele>2743.5700000000002</ele>
        <time>2020-01-09T10:34:38Z</time>
      </trkpt>
      <trkpt lat="46.255207350477576" lon="8.076424961909652">
        <ele>2744.21</ele>
        <time>2020-01-09T10:34:59Z</time>
      </trkpt>
      <trkpt lat="46.255207266658545" lon="8.076419848948717">
        <ele>2743.48</ele>
        <time>2020-01-09T10:35:13Z</time>
      </trkpt>
      <trkpt lat="46.255242303013802" lon="8.076364612206817">
        <ele>2745.0500000000002</ele>
        <time>2020-01-09T10:35:27Z</time>
      </trkpt>
      <trkpt lat="46.255284799262881" lon="8.076301580294967">
        <ele>2748.0500000000002</ele>
        <time>2020-01-09T10:35:41Z</time>
      </trkpt>
      <trkpt lat="46.255333079025149" lon="8.076233183965087">
        <ele>2749.5900000000001</ele>
        <time>2020-01-09T10:35:54Z</time>
      </trkpt>
      <trkpt lat="46.255377419292927" lon="8.076198734343052">
        <ele>2750.8600000000001</ele>
        <time>2020-01-09T10:36:08Z</time>
      </trkpt>
      <trkpt lat="46.255417400971055" lon="8.076172331348062">
        <ele>2751.8899999999999</ele>
        <time>2020-01-09T10:36:21Z</time>
      </trkpt>
      <trkpt lat="46.255468362942338" lon="8.076141318306327">
        <ele>2754.2600000000002</ele>
        <time>2020-01-09T10:36:34Z</time>
      </trkpt>
      <trkpt lat="46.255485881119967" lon="8.076140144839883">
        <ele>2754.6900000000001</ele>
        <time>2020-01-09T10:36:48Z</time>
      </trkpt>
      <trkpt lat="46.255549499765038" lon="8.076112065464258">
        <ele>2756.0999999999999</ele>
        <time>2020-01-09T10:37:01Z</time>
      </trkpt>
      <trkpt lat="46.255632229149342" lon="8.076082980260253">
        <ele>2758.3200000000002</ele>
        <time>2020-01-09T10:37:17Z</time>
      </trkpt>
      <trkpt lat="46.255690902471542" lon="8.076062528416514">
        <ele>2760.6999999999998</ele>
        <time>2020-01-09T10:37:31Z</time>
      </trkpt>
      <trkpt lat="46.255737924948335" lon="8.076036376878619">
        <ele>2761.9000000000001</ele>
        <time>2020-01-09T10:37:42Z</time>
      </trkpt>
      <trkpt lat="46.255792155861855" lon="8.076003268361092">
        <ele>2762.8299999999999</ele>
        <time>2020-01-09T10:37:55Z</time>
      </trkpt>
      <trkpt lat="46.255856193602085" lon="8.075995305553079">
        <ele>2765.02</ele>
        <time>2020-01-09T10:38:08Z</time>
      </trkpt>
      <trkpt lat="46.255892068147659" lon="8.075991868972778">
        <ele>2765.6900000000001</ele>
        <time>2020-01-09T10:38:20Z</time>
      </trkpt>
      <trkpt lat="46.255963230505586" lon="8.075984828174114">
        <ele>2766.9400000000001</ele>
        <time>2020-01-09T10:38:33Z</time>
      </trkpt>
      <trkpt lat="46.256032465025783" lon="8.07598264887929">
        <ele>2768.2199999999998</ele>
        <time>2020-01-09T10:38:46Z</time>
      </trkpt>
      <trkpt lat="46.256061214953661" lon="8.076004441827536">
        <ele>2767.0700000000002</ele>
        <time>2020-01-09T10:39:01Z</time>
      </trkpt>
      <trkpt lat="46.256082002073526" lon="8.076018942520022">
        <ele>2769.1999999999998</ele>
        <time>2020-01-09T10:39:11Z</time>
      </trkpt>
      <trkpt lat="46.256086612120271" lon="8.076027994975448">
        <ele>2767.8600000000001</ele>
        <time>2020-01-09T10:39:23Z</time>
      </trkpt>
      <trkpt lat="46.256108740344644" lon="8.076051715761423">
        <ele>2769.2600000000002</ele>
        <time>2020-01-09T10:39:33Z</time>
      </trkpt>
      <trkpt lat="46.256126593798399" lon="8.076073676347733">
        <ele>2768.3899999999999</ele>
        <time>2020-01-09T10:39:47Z</time>
      </trkpt>
      <trkpt lat="46.256153080612421" lon="8.07608968578279">
        <ele>2769.1500000000001</ele>
        <time>2020-01-09T10:40:05Z</time>
      </trkpt>
      <trkpt lat="46.256170347332954" lon="8.076106701046228">
        <ele>2769.0999999999999</ele>
        <time>2020-01-09T10:40:17Z</time>
      </trkpt>
      <trkpt lat="46.256169509142637" lon="8.076107120141387">
        <ele>2769.1199999999999</ele>
        <time>2020-01-09T10:40:41Z</time>
      </trkpt>
      <trkpt lat="46.256167748942971" lon="8.076110053807497">
        <ele>2770.48</ele>
        <time>2020-01-09T10:40:59Z</time>
      </trkpt>
      <trkpt lat="46.25616330653429" lon="8.076113741844893">
        <ele>2769.0999999999999</ele>
        <time>2020-01-09T10:41:17Z</time>
      </trkpt>
      <trkpt lat="46.256161378696561" lon="8.076092451810837">
        <ele>2770.9899999999998</ele>
        <time>2020-01-09T10:41:33Z</time>
      </trkpt>
      <trkpt lat="46.256111422553658" lon="8.076020535081625">
        <ele>2769.6199999999999</ele>
        <time>2020-01-09T10:41:45Z</time>
      </trkpt>
      <trkpt lat="46.256112596020103" lon="8.076017266139388">
        <ele>2767.96</ele>
        <time>2020-01-09T10:41:48Z</time>
      </trkpt>
      <trkpt lat="46.256102453917265" lon="8.076002430170775">
        <ele>2769.5900000000001</ele>
        <time>2020-01-09T10:41:59Z</time>
      </trkpt>
      <trkpt lat="46.256055431440473" lon="8.075977452099323">
        <ele>2769</ele>
        <time>2020-01-09T10:42:10Z</time>
      </trkpt>
      <trkpt lat="46.256063561886549" lon="8.07597728446126">
        <ele>2768.6700000000001</ele>
        <time>2020-01-09T10:42:21Z</time>
      </trkpt>
      <trkpt lat="46.256061801686883" lon="8.075980553403497">
        <ele>2768.52</ele>
        <time>2020-01-09T10:42:42Z</time>
      </trkpt>
      <trkpt lat="46.256065825000405" lon="8.075981978327036">
        <ele>2767.77</ele>
        <time>2020-01-09T10:42:57Z</time>
      </trkpt>
      <trkpt lat="46.256072027608752" lon="8.075982481241226">
        <ele>2767.8200000000002</ele>
        <time>2020-01-09T10:42:58Z</time>
      </trkpt>
      <trkpt lat="46.256078733131289" lon="8.075983570888639">
        <ele>2769.3000000000002</ele>
        <time>2020-01-09T10:43:01Z</time>
      </trkpt>
      <trkpt lat="46.256094994023442" lon="8.075994467362762">
        <ele>2768.3499999999999</ele>
        <time>2020-01-09T10:43:08Z</time>
      </trkpt>
      <trkpt lat="46.256130198016763" lon="8.07601734995842">
        <ele>2769.1500000000001</ele>
        <time>2020-01-09T10:43:21Z</time>
      </trkpt>
      <trkpt lat="46.256138077005744" lon="8.076022882014513">
        <ele>2770.23</ele>
        <time>2020-01-09T10:43:36Z</time>
      </trkpt>
      <trkpt lat="46.256139669567347" lon="8.076019445434213">
        <ele>2770.7199999999998</ele>
        <time>2020-01-09T10:43:48Z</time>
      </trkpt>
      <trkpt lat="46.256143609061837" lon="8.076022211462259">
        <ele>2768.8200000000002</ele>
        <time>2020-01-09T10:44:01Z</time>
      </trkpt>
      <trkpt lat="46.256147464737296" lon="8.076023887842894">
        <ele>2769.2600000000002</ele>
        <time>2020-01-09T10:44:11Z</time>
      </trkpt>
      <trkpt lat="46.256161127239466" lon="8.07602665387094">
        <ele>2770.4499999999998</ele>
        <time>2020-01-09T10:44:28Z</time>
      </trkpt>
      <trkpt lat="46.256160624325275" lon="8.076025396585465">
        <ele>2767.0799999999999</ele>
        <time>2020-01-09T10:44:33Z</time>
      </trkpt>
      <trkpt lat="46.256162216886878" lon="8.076024055480957">
        <ele>2768.9299999999998</ele>
        <time>2020-01-09T10:44:38Z</time>
      </trkpt>
      <trkpt lat="46.256158864125609" lon="8.076025061309338">
        <ele>2770.8800000000001</ele>
        <time>2020-01-09T10:44:49Z</time>
      </trkpt>
      <trkpt lat="46.256157355383039" lon="8.076024642214179">
        <ele>2769.0300000000002</ele>
        <time>2020-01-09T10:44:53Z</time>
      </trkpt>
      <trkpt lat="46.256152829155326" lon="8.076024726033211">
        <ele>2768.71</ele>
        <time>2020-01-09T10:45:10Z</time>
      </trkpt>
      <trkpt lat="46.256147967651486" lon="8.07602271437645">
        <ele>2771.52</ele>
        <time>2020-01-09T10:45:18Z</time>
      </trkpt>
      <trkpt lat="46.256145285442472" lon="8.076024474576116">
        <ele>2769.9899999999998</ele>
        <time>2020-01-09T10:45:24Z</time>
      </trkpt>
      <trkpt lat="46.256145369261503" lon="8.076025228947401">
        <ele>2771.4699999999998</ele>
        <time>2020-01-09T10:45:27Z</time>
      </trkpt>
      <trkpt lat="46.256148722022772" lon="8.076021457090974">
        <ele>2770.8899999999999</ele>
        <time>2020-01-09T10:45:51Z</time>
      </trkpt>
      <trkpt lat="46.256188452243805" lon="8.076050961390138">
        <ele>2770.4699999999998</ele>
        <time>2020-01-09T10:46:08Z</time>
      </trkpt>
      <trkpt lat="46.256191972643137" lon="8.076049452647567">
        <ele>2771.5900000000001</ele>
        <time>2020-01-09T10:46:10Z</time>
      </trkpt>
      <trkpt lat="46.256193732842803" lon="8.076058840379119">
        <ele>2771.77</ele>
        <time>2020-01-09T10:46:23Z</time>
      </trkpt>
      <trkpt lat="46.256204545497894" lon="8.076061690226197">
        <ele>2769.5599999999999</ele>
        <time>2020-01-09T10:46:51Z</time>
      </trkpt>
      <trkpt lat="46.256205635145307" lon="8.076059175655246">
        <ele>2771.5900000000001</ele>
        <time>2020-01-09T10:46:55Z</time>
      </trkpt>
      <trkpt lat="46.256204377859831" lon="8.076054817065597">
        <ele>2769.8600000000001</ele>
        <time>2020-01-09T10:47:06Z</time>
      </trkpt>
      <trkpt lat="46.256208904087543" lon="8.07604375295341">
        <ele>2772.0500000000002</ele>
        <time>2020-01-09T10:47:15Z</time>
      </trkpt>
      <trkpt lat="46.256247209385037" lon="8.075931435450912">
        <ele>2772.6199999999999</ele>
        <time>2020-01-09T10:47:26Z</time>
      </trkpt>
      <trkpt lat="46.25634259544313" lon="8.07590352371335">
        <ele>2773.96</ele>
        <time>2020-01-09T10:47:40Z</time>
      </trkpt>
      <trkpt lat="46.256447536870837" lon="8.075877036899328">
        <ele>2774.4200000000001</ele>
        <time>2020-01-09T10:47:54Z</time>
      </trkpt>
      <trkpt lat="46.256549628451467" lon="8.075831439346075">
        <ele>2774.9899999999998</ele>
        <time>2020-01-09T10:48:10Z</time>
      </trkpt>
      <trkpt lat="46.256626825779676" lon="8.075767904520035">
        <ele>2775.1999999999998</ele>
        <time>2020-01-09T10:48:22Z</time>
      </trkpt>
      <trkpt lat="46.256701173260808" lon="8.075695652514696">
        <ele>2775.0900000000001</ele>
        <time>2020-01-09T10:48:35Z</time>
      </trkpt>
      <trkpt lat="46.2567481957376" lon="8.075634296983481">
        <ele>2774.8499999999999</ele>
        <time>2020-01-09T10:48:47Z</time>
      </trkpt>
      <trkpt lat="46.256792619824409" lon="8.075593393296003">
        <ele>2774.4899999999998</ele>
        <time>2020-01-09T10:48:58Z</time>
      </trkpt>
      <trkpt lat="46.25691725872457" lon="8.075500186532736">
        <ele>2773.5799999999999</ele>
        <time>2020-01-09T10:49:14Z</time>
      </trkpt>
      <trkpt lat="46.257006023079157" lon="8.075422989204526">
        <ele>2773.4699999999998</ele>
        <time>2020-01-09T10:49:26Z</time>
      </trkpt>
      <trkpt lat="46.257061176002026" lon="8.075384767726064">
        <ele>2773.5</ele>
        <time>2020-01-09T10:49:33Z</time>
      </trkpt>
      <trkpt lat="46.257200986146927" lon="8.075296841561794">
        <ele>2773.7199999999998</ele>
        <time>2020-01-09T10:49:50Z</time>
      </trkpt>
      <trkpt lat="46.257316907867789" lon="8.075227690860629">
        <ele>2774.73</ele>
        <time>2020-01-09T10:50:04Z</time>
      </trkpt>
      <trkpt lat="46.257429979741573" lon="8.075145799666643">
        <ele>2774.8299999999999</ele>
        <time>2020-01-09T10:50:18Z</time>
      </trkpt>
      <trkpt lat="46.257589990273118" lon="8.075108584016562">
        <ele>2773.2199999999998</ele>
        <time>2020-01-09T10:50:34Z</time>
      </trkpt>
      <trkpt lat="46.257744636386633" lon="8.075078241527081">
        <ele>2771.8499999999999</ele>
        <time>2020-01-09T10:50:50Z</time>
      </trkpt>
      <trkpt lat="46.25790330581367" lon="8.075067177414894">
        <ele>2771.27</ele>
        <time>2020-01-09T10:51:07Z</time>
      </trkpt>
      <trkpt lat="46.258006235584617" lon="8.075053934007883">
        <ele>2771.9000000000001</ele>
        <time>2020-01-09T10:51:20Z</time>
      </trkpt>
      <trkpt lat="46.258108662441373" lon="8.075058544054627">
        <ele>2772.1700000000001</ele>
        <time>2020-01-09T10:51:33Z</time>
      </trkpt>
      <trkpt lat="46.258214106783271" lon="8.0750513356179">
        <ele>2773.4299999999998</ele>
        <time>2020-01-09T10:51:48Z</time>
      </trkpt>
      <trkpt lat="46.258314354345202" lon="8.075059466063976">
        <ele>2775.04</ele>
        <time>2020-01-09T10:52:02Z</time>
      </trkpt>
      <trkpt lat="46.258391300216317" lon="8.075067261233926">
        <ele>2776.1100000000001</ele>
        <time>2020-01-09T10:52:14Z</time>
      </trkpt>
      <trkpt lat="46.258455505594611" lon="8.075075810775161">
        <ele>2775.46</ele>
        <time>2020-01-09T10:52:27Z</time>
      </trkpt>
      <trkpt lat="46.258469503372908" lon="8.075053179636598">
        <ele>2775.0900000000001</ele>
        <time>2020-01-09T10:52:45Z</time>
      </trkpt>
      <trkpt lat="46.258562793955207" lon="8.075075475499034">
        <ele>2776.9699999999998</ele>
        <time>2020-01-09T10:52:58Z</time>
      </trkpt>
      <trkpt lat="46.25859129242599" lon="8.07508603669703">
        <ele>2776.8400000000001</ele>
        <time>2020-01-09T10:53:02Z</time>
      </trkpt>
      <trkpt lat="46.258642422035336" lon="8.075108667835593">
        <ele>2776.98</ele>
        <time>2020-01-09T10:53:10Z</time>
      </trkpt>
      <trkpt lat="46.258721211925149" lon="8.075161557644606">
        <ele>2778.5799999999999</ele>
        <time>2020-01-09T10:53:22Z</time>
      </trkpt>
      <trkpt lat="46.258811568841338" lon="8.075202545151115">
        <ele>2780.3099999999999</ele>
        <time>2020-01-09T10:53:35Z</time>
      </trkpt>
      <trkpt lat="46.258905697613955" lon="8.075245292857289">
        <ele>2781.0300000000002</ele>
        <time>2020-01-09T10:53:49Z</time>
      </trkpt>
      <trkpt lat="46.258999994024634" lon="8.075298434123397">
        <ele>2782.48</ele>
        <time>2020-01-09T10:54:04Z</time>
      </trkpt>
      <trkpt lat="46.259064702317119" lon="8.075341265648603">
        <ele>2783.9299999999998</ele>
        <time>2020-01-09T10:54:16Z</time>
      </trkpt>
      <trkpt lat="46.259127147495747" lon="8.075377307832241">
        <ele>2784.2199999999998</ele>
        <time>2020-01-09T10:54:26Z</time>
      </trkpt>
      <trkpt lat="46.2591468449682" lon="8.075383761897683">
        <ele>2784.1199999999999</ele>
        <time>2020-01-09T10:54:28Z</time>
      </trkpt>
      <trkpt lat="46.259246673434973" lon="8.075462887063623">
        <ele>2783.8800000000001</ele>
        <time>2020-01-09T10:54:41Z</time>
      </trkpt>
      <trkpt lat="46.259319595992565" lon="8.075495073571801">
        <ele>2784.2199999999998</ele>
        <time>2020-01-09T10:54:52Z</time>
      </trkpt>
      <trkpt lat="46.259390003979206" lon="8.075534887611866">
        <ele>2785.75</ele>
        <time>2020-01-09T10:55:04Z</time>
      </trkpt>
      <trkpt lat="46.259439624845982" lon="8.075562044978142">
        <ele>2786.7399999999998</ele>
        <time>2020-01-09T10:55:16Z</time>
      </trkpt>
      <trkpt lat="46.259496957063675" lon="8.075596997514367">
        <ele>2788.2399999999998</ele>
        <time>2020-01-09T10:55:30Z</time>
      </trkpt>
      <trkpt lat="46.259546829387546" lon="8.075618203729391">
        <ele>2789.79</ele>
        <time>2020-01-09T10:55:42Z</time>
      </trkpt>
      <trkpt lat="46.259584547951818" lon="8.075602697208524">
        <ele>2791.6199999999999</ele>
        <time>2020-01-09T10:55:52Z</time>
      </trkpt>
      <trkpt lat="46.259633665904403" lon="8.075619041919708">
        <ele>2792.7399999999998</ele>
        <time>2020-01-09T10:56:03Z</time>
      </trkpt>
      <trkpt lat="46.259681107476354" lon="8.075662292540073">
        <ele>2794.1900000000001</ele>
        <time>2020-01-09T10:56:17Z</time>
      </trkpt>
      <trkpt lat="46.259731231257319" lon="8.075701352208853">
        <ele>2795.6500000000001</ele>
        <time>2020-01-09T10:56:30Z</time>
      </trkpt>
      <trkpt lat="46.259764591231942" lon="8.075728509575129">
        <ele>2796.8200000000002</ele>
        <time>2020-01-09T10:56:40Z</time>
      </trkpt>
      <trkpt lat="46.259802309796214" lon="8.075787350535393">
        <ele>2798.5900000000001</ele>
        <time>2020-01-09T10:56:54Z</time>
      </trkpt>
      <trkpt lat="46.25984706915915" lon="8.075854992493987">
        <ele>2799.7800000000002</ele>
        <time>2020-01-09T10:57:08Z</time>
      </trkpt>
      <trkpt lat="46.259877579286695" lon="8.075918611139059">
        <ele>2800.4299999999998</ele>
        <time>2020-01-09T10:57:20Z</time>
      </trkpt>
      <trkpt lat="46.259890906512737" lon="8.075985917821527">
        <ele>2801.73</ele>
        <time>2020-01-09T10:57:32Z</time>
      </trkpt>
      <trkpt lat="46.259873891249299" lon="8.075993293896318">
        <ele>2801.4000000000001</ele>
        <time>2020-01-09T10:57:54Z</time>
      </trkpt>
      <trkpt lat="46.259901048615575" lon="8.076076610013843">
        <ele>2802.4099999999999</ele>
        <time>2020-01-09T10:58:09Z</time>
      </trkpt>
      <trkpt lat="46.25992183573544" lon="8.07620887644589">
        <ele>2803.0700000000002</ele>
        <time>2020-01-09T10:58:23Z</time>
      </trkpt>
      <trkpt lat="46.259956955909729" lon="8.076330330222845">
        <ele>2803.3899999999999</ele>
        <time>2020-01-09T10:58:35Z</time>
      </trkpt>
      <trkpt lat="46.259970283135772" lon="8.0763896740973">
        <ele>2803.1199999999999</ele>
        <time>2020-01-09T10:58:48Z</time>
      </trkpt>
      <trkpt lat="46.259981514886022" lon="8.07638531550765">
        <ele>2804.0700000000002</ele>
        <time>2020-01-09T10:59:06Z</time>
      </trkpt>
      <trkpt lat="46.260000625625253" lon="8.076495788991451">
        <ele>2804.6300000000001</ele>
        <time>2020-01-09T10:59:16Z</time>
      </trkpt>
      <trkpt lat="46.259987382218242" lon="8.076661080121994">
        <ele>2806.0500000000002</ele>
        <time>2020-01-09T10:59:31Z</time>
      </trkpt>
      <trkpt lat="46.259988639503717" lon="8.076784629374743">
        <ele>2808.0500000000002</ele>
        <time>2020-01-09T10:59:44Z</time>
      </trkpt>
      <trkpt lat="46.259998781606555" lon="8.076870208606124">
        <ele>2809.8000000000002</ele>
        <time>2020-01-09T10:59:55Z</time>
      </trkpt>
      <trkpt lat="46.260031973943114" lon="8.076983280479908">
        <ele>2811.9299999999998</ele>
        <time>2020-01-09T11:00:10Z</time>
      </trkpt>
      <trkpt lat="46.260073715820909" lon="8.077103225514293">
        <ele>2813.1500000000001</ele>
        <time>2020-01-09T11:00:24Z</time>
      </trkpt>
      <trkpt lat="46.260103136301041" lon="8.077211016789079">
        <ele>2814.0100000000002</ele>
        <time>2020-01-09T11:00:37Z</time>
      </trkpt>
      <trkpt lat="46.260139681398869" lon="8.077313024550676">
        <ele>2815.6300000000001</ele>
        <time>2020-01-09T11:00:50Z</time>
      </trkpt>
      <trkpt lat="46.260177735239267" lon="8.077411679551005">
        <ele>2817.2800000000002</ele>
        <time>2020-01-09T11:01:03Z</time>
      </trkpt>
      <trkpt lat="46.260226350277662" lon="8.07753992266953">
        <ele>2817.98</ele>
        <time>2020-01-09T11:01:17Z</time>
      </trkpt>
      <trkpt lat="46.26027119345963" lon="8.077630111947656">
        <ele>2818.8899999999999</ele>
        <time>2020-01-09T11:01:27Z</time>
      </trkpt>
      <trkpt lat="46.260321652516723" lon="8.077732119709253">
        <ele>2819.8200000000002</ele>
        <time>2020-01-09T11:01:38Z</time>
      </trkpt>
      <trkpt lat="46.26038652844727" lon="8.077824488282204">
        <ele>2820.2399999999998</ele>
        <time>2020-01-09T11:01:49Z</time>
      </trkpt>
      <trkpt lat="46.260461211204529" lon="8.077952144667506">
        <ele>2820.8000000000002</ele>
        <time>2020-01-09T11:02:03Z</time>
      </trkpt>
      <trkpt lat="46.260476550087333" lon="8.078028336167336">
        <ele>2820.4099999999999</ele>
        <time>2020-01-09T11:02:15Z</time>
      </trkpt>
      <trkpt lat="46.260478310286999" lon="8.078028336167336">
        <ele>2820.54</ele>
        <time>2020-01-09T11:02:32Z</time>
      </trkpt>
      <trkpt lat="46.260515945032239" lon="8.078106455504894">
        <ele>2821.8299999999999</ele>
        <time>2020-01-09T11:02:46Z</time>
      </trkpt>
      <trkpt lat="46.260565565899014" lon="8.078244253993034">
        <ele>2822.1999999999998</ele>
        <time>2020-01-09T11:02:59Z</time>
      </trkpt>
      <trkpt lat="46.26060102134943" lon="8.078363360837102">
        <ele>2823.73</ele>
        <time>2020-01-09T11:03:10Z</time>
      </trkpt>
      <trkpt lat="46.260648211464286" lon="8.078469224274159">
        <ele>2824.6399999999999</ele>
        <time>2020-01-09T11:03:21Z</time>
      </trkpt>
      <trkpt lat="46.260686684399843" lon="8.078604089096189">
        <ele>2825.0900000000001</ele>
        <time>2020-01-09T11:03:34Z</time>
      </trkpt>
      <trkpt lat="46.260691294446588" lon="8.078732583671808">
        <ele>2827.52</ele>
        <time>2020-01-09T11:03:50Z</time>
      </trkpt>
      <trkpt lat="46.260692551732063" lon="8.078818917274475">
        <ele>2829.3800000000001</ele>
        <time>2020-01-09T11:04:02Z</time>
      </trkpt>
      <trkpt lat="46.2606958206743" lon="8.078872645273805">
        <ele>2829.77</ele>
        <time>2020-01-09T11:04:15Z</time>
      </trkpt>
      <trkpt lat="46.260705459862947" lon="8.078937772661448">
        <ele>2831.25</ele>
        <time>2020-01-09T11:04:27Z</time>
      </trkpt>
      <trkpt lat="46.260722642764449" lon="8.079024525359273">
        <ele>2832.4899999999998</ele>
        <time>2020-01-09T11:04:40Z</time>
      </trkpt>
      <trkpt lat="46.26073831692338" lon="8.079106919467449">
        <ele>2833.6700000000001</ele>
        <time>2020-01-09T11:04:52Z</time>
      </trkpt>
      <trkpt lat="46.260760696604848" lon="8.079221667721868">
        <ele>2835.8000000000002</ele>
        <time>2020-01-09T11:05:08Z</time>
      </trkpt>
      <trkpt lat="46.260783160105348" lon="8.079329458996654">
        <ele>2837.4099999999999</ele>
        <time>2020-01-09T11:05:24Z</time>
      </trkpt>
      <trkpt lat="46.260792212560773" lon="8.07940062135458">
        <ele>2837.9499999999998</ele>
        <time>2020-01-09T11:05:40Z</time>
      </trkpt>
      <trkpt lat="46.26081258058548" lon="8.079515872523189">
        <ele>2839.27</ele>
        <time>2020-01-09T11:05:54Z</time>
      </trkpt>
      <trkpt lat="46.26082967966795" lon="8.079616622999311">
        <ele>2841.3800000000001</ele>
        <time>2020-01-09T11:06:08Z</time>
      </trkpt>
      <trkpt lat="46.260847533121705" lon="8.079718463122845">
        <ele>2841.3699999999999</ele>
        <time>2020-01-09T11:06:21Z</time>
      </trkpt>
      <trkpt lat="46.260862201452255" lon="8.0798105802387">
        <ele>2842.6999999999998</ele>
        <time>2020-01-09T11:06:31Z</time>
      </trkpt>
      <trkpt lat="46.260872930288315" lon="8.079941170290113">
        <ele>2844.3000000000002</ele>
        <time>2020-01-09T11:06:47Z</time>
      </trkpt>
      <trkpt lat="46.260872092097998" lon="8.079945193603635">
        <ele>2844.6599999999999</ele>
        <time>2020-01-09T11:07:03Z</time>
      </trkpt>
      <trkpt lat="46.260880976915359" lon="8.07999917306006">
        <ele>2845.6199999999999</ele>
        <time>2020-01-09T11:07:16Z</time>
      </trkpt>
      <trkpt lat="46.260876785963774" lon="8.080078884959221">
        <ele>2846.5300000000002</ele>
        <time>2020-01-09T11:07:27Z</time>
      </trkpt>
      <trkpt lat="46.260840659961104" lon="8.08011987246573">
        <ele>2849.27</ele>
        <time>2020-01-09T11:07:36Z</time>
      </trkpt>
      <trkpt lat="46.260816352441907" lon="8.080153735354543">
        <ele>2850.98</ele>
        <time>2020-01-09T11:07:46Z</time>
      </trkpt>
      <trkpt lat="46.260814424604177" lon="8.080189358443022">
        <ele>2850.7399999999998</ele>
        <time>2020-01-09T11:08:03Z</time>
      </trkpt>
      <trkpt lat="46.260815095156431" lon="8.080199835821986">
        <ele>2851.8600000000001</ele>
        <time>2020-01-09T11:08:12Z</time>
      </trkpt>
      <trkpt lat="46.260811490938067" lon="8.080205954611301">
        <ele>2850.3600000000001</ele>
        <time>2020-01-09T11:08:20Z</time>
      </trkpt>
      <trkpt lat="46.260786596685648" lon="8.080231603235006">
        <ele>2850.8200000000002</ele>
        <time>2020-01-09T11:09:04Z</time>
      </trkpt>
      <trkpt lat="46.260779555886984" lon="8.080225149169564">
        <ele>2850.6199999999999</ele>
        <time>2020-01-09T11:09:32Z</time>
      </trkpt>
      <trkpt lat="46.260784920305014" lon="8.080208385363221">
        <ele>2849.8600000000001</ele>
        <time>2020-01-09T11:09:56Z</time>
      </trkpt>
      <trkpt lat="46.260766144841909" lon="8.080229759216309">
        <ele>2850.3099999999999</ele>
        <time>2020-01-09T11:10:21Z</time>
      </trkpt>
      <trkpt lat="46.260763294994831" lon="8.080221461132169">
        <ele>2850.79</ele>
        <time>2020-01-09T11:10:48Z</time>
      </trkpt>
      <trkpt lat="46.260775113478303" lon="8.080221796408296">
        <ele>2850.5700000000002</ele>
        <time>2020-01-09T11:11:11Z</time>
      </trkpt>
      <trkpt lat="46.260776957497001" lon="8.080230010673404">
        <ele>2850.4000000000001</ele>
        <time>2020-01-09T11:11:30Z</time>
      </trkpt>
      <trkpt lat="46.260782824829221" lon="8.080214504152536">
        <ele>2850.4000000000001</ele>
        <time>2020-01-09T11:12:28Z</time>
      </trkpt>
      <trkpt lat="46.260782741010189" lon="8.08022003620863">
        <ele>2849.77</ele>
        <time>2020-01-09T11:13:16Z</time>
      </trkpt>
      <trkpt lat="46.260783160105348" lon="8.080225484445691">
        <ele>2849.2399999999998</ele>
        <time>2020-01-09T11:14:14Z</time>
      </trkpt>
      <trkpt lat="46.260778130963445" lon="8.080210564658046">
        <ele>2848.8800000000001</ele>
        <time>2020-01-09T11:14:57Z</time>
      </trkpt>
      <trkpt lat="46.26078374683857" lon="8.080225735902786">
        <ele>2848.7199999999998</ele>
        <time>2020-01-09T11:15:49Z</time>
      </trkpt>
      <trkpt lat="46.260783914476633" lon="8.080232692882419">
        <ele>2849.1999999999998</ele>
        <time>2020-01-09T11:16:25Z</time>
      </trkpt>
      <trkpt lat="46.260789111256599" lon="8.080221964046359">
        <ele>2849</ele>
        <time>2020-01-09T11:17:05Z</time>
      </trkpt>
      <trkpt lat="46.260799756273627" lon="8.080201596021652">
        <ele>2848.6500000000001</ele>
        <time>2020-01-09T11:17:58Z</time>
      </trkpt>
      <trkpt lat="46.260799337178469" lon="8.080200338736177">
        <ele>2848.1100000000001</ele>
        <time>2020-01-09T11:18:58Z</time>
      </trkpt>
      <trkpt lat="46.260798079892993" lon="8.080202853307128">
        <ele>2848.4000000000001</ele>
        <time>2020-01-09T11:19:34Z</time>
      </trkpt>
      <trkpt lat="46.260795900598168" lon="8.08020050637424">
        <ele>2847.8499999999999</ele>
        <time>2020-01-09T11:20:10Z</time>
      </trkpt>
      <trkpt lat="46.260799923911691" lon="8.08019463904202">
        <ele>2847.6599999999999</ele>
        <time>2020-01-09T11:21:07Z</time>
      </trkpt>
      <trkpt lat="46.26080377958715" lon="8.080183072015643">
        <ele>2847.0500000000002</ele>
        <time>2020-01-09T11:22:01Z</time>
      </trkpt>
      <trkpt lat="46.260814927518368" lon="8.080164212733507">
        <ele>2847.1900000000001</ele>
        <time>2020-01-09T11:22:53Z</time>
      </trkpt>
      <trkpt lat="46.260818280279636" lon="8.080161614343524">
        <ele>2846.96</ele>
        <time>2020-01-09T11:23:45Z</time>
      </trkpt>
      <trkpt lat="46.260821465402842" lon="8.080157088115811">
        <ele>2846.4299999999998</ele>
        <time>2020-01-09T11:24:23Z</time>
      </trkpt>
      <trkpt lat="46.260816939175129" lon="8.080156082287431">
        <ele>2846.1300000000001</ele>
        <time>2020-01-09T11:25:16Z</time>
      </trkpt>
      <trkpt lat="46.260805036872625" lon="8.080168487504125">
        <ele>2846.6399999999999</ele>
        <time>2020-01-09T11:26:04Z</time>
      </trkpt>
      <trkpt lat="46.260802187025547" lon="8.080179300159216">
        <ele>2846.52</ele>
        <time>2020-01-09T11:26:56Z</time>
      </trkpt>
      <trkpt lat="46.260796654969454" lon="8.080198829993606">
        <ele>2846.46</ele>
        <time>2020-01-09T11:27:43Z</time>
      </trkpt>
      <trkpt lat="46.260788105428219" lon="8.080200422555208">
        <ele>2846.8600000000001</ele>
        <time>2020-01-09T11:28:14Z</time>
      </trkpt>
      <trkpt lat="46.260784585028887" lon="8.080179635435343">
        <ele>2846.2800000000002</ele>
        <time>2020-01-09T11:29:07Z</time>
      </trkpt>
      <trkpt lat="46.260782824829221" lon="8.080167481675744">
        <ele>2846.8899999999999</ele>
        <time>2020-01-09T11:29:47Z</time>
      </trkpt>
      <trkpt lat="46.260772095993161" lon="8.080191453918815">
        <ele>2847.3600000000001</ele>
        <time>2020-01-09T11:30:36Z</time>
      </trkpt>
      <trkpt lat="46.260765641927719" lon="8.08020100928843">
        <ele>2847.5</ele>
        <time>2020-01-09T11:31:19Z</time>
      </trkpt>
      <trkpt lat="46.260772095993161" lon="8.080192040652037">
        <ele>2847.2600000000002</ele>
        <time>2020-01-09T11:32:02Z</time>
      </trkpt>
      <trkpt lat="46.260765474289656" lon="8.080178210511804">
        <ele>2847.1799999999998</ele>
        <time>2020-01-09T11:32:52Z</time>
      </trkpt>
      <trkpt lat="46.260750303044915" lon="8.08018634095788">
        <ele>2848.2199999999998</ele>
        <time>2020-01-09T11:33:35Z</time>
      </trkpt>
      <trkpt lat="46.260746531188488" lon="8.080189693719149">
        <ele>2848.3800000000001</ele>
        <time>2020-01-09T11:33:36Z</time>
      </trkpt>
      <trkpt lat="46.260745022445917" lon="8.080193968489766">
        <ele>2848.3200000000002</ele>
        <time>2020-01-09T11:33:53Z</time>
      </trkpt>
      <trkpt lat="46.260738149285316" lon="8.080202266573906">
        <ele>2848.1500000000001</ele>
        <time>2020-01-09T11:34:24Z</time>
      </trkpt>
      <trkpt lat="46.260732114315033" lon="8.080209726467729">
        <ele>2848.29</ele>
        <time>2020-01-09T11:34:54Z</time>
      </trkpt>
      <trkpt lat="46.260737059637904" lon="8.080197237432003">
        <ele>2848.54</ele>
        <time>2020-01-09T11:35:17Z</time>
      </trkpt>
      <trkpt lat="46.260740328580141" lon="8.080197488889098">
        <ele>2848.4299999999998</ele>
        <time>2020-01-09T11:35:38Z</time>
      </trkpt>
      <trkpt lat="46.260741334408522" lon="8.080194722861052">
        <ele>2848.4000000000001</ele>
        <time>2020-01-09T11:35:56Z</time>
      </trkpt>
      <trkpt lat="46.260757427662611" lon="8.080197991803289">
        <ele>2847.3299999999999</ele>
        <time>2020-01-09T11:36:17Z</time>
      </trkpt>
      <trkpt lat="46.260760026052594" lon="8.080191621556878">
        <ele>2847.8400000000001</ele>
        <time>2020-01-09T11:36:32Z</time>
      </trkpt>
      <trkpt lat="46.260776789858937" lon="8.080221125856042">
        <ele>2848.0599999999999</ele>
        <time>2020-01-09T11:37:03Z</time>
      </trkpt>
      <trkpt lat="46.260766061022878" lon="8.080218276008964">
        <ele>2847.79</ele>
        <time>2020-01-09T11:37:27Z</time>
      </trkpt>
      <trkpt lat="46.260762708261609" lon="8.080204194411635">
        <ele>2847.5599999999999</ele>
        <time>2020-01-09T11:37:53Z</time>
      </trkpt>
      <trkpt lat="46.260773856192827" lon="8.080196315422654">
        <ele>2847.6500000000001</ele>
        <time>2020-01-09T11:38:25Z</time>
      </trkpt>
      <trkpt lat="46.260751308873296" lon="8.080180892720819">
        <ele>2847.6599999999999</ele>
        <time>2020-01-09T11:38:46Z</time>
      </trkpt>
      <trkpt lat="46.260741585865617" lon="8.080191453918815">
        <ele>2847.77</ele>
        <time>2020-01-09T11:39:08Z</time>
      </trkpt>
      <trkpt lat="46.260739406570792" lon="8.080153232440352">
        <ele>2847.77</ele>
        <time>2020-01-09T11:39:28Z</time>
      </trkpt>
      <trkpt lat="46.260748039931059" lon="8.080176534131169">
        <ele>2847.46</ele>
        <time>2020-01-09T11:39:44Z</time>
      </trkpt>
      <trkpt lat="46.26078961417079" lon="8.080197656527162">
        <ele>2847.5599999999999</ele>
        <time>2020-01-09T11:40:13Z</time>
      </trkpt>
      <trkpt lat="46.260785674676299" lon="8.080194219946861">
        <ele>2847.6900000000001</ele>
        <time>2020-01-09T11:40:44Z</time>
      </trkpt>
      <trkpt lat="46.260753655806184" lon="8.080151723697782">
        <ele>2848.5300000000002</ele>
        <time>2020-01-09T11:41:18Z</time>
      </trkpt>
      <trkpt lat="46.260748794302344" lon="8.080150382593274">
        <ele>2848.75</ele>
        <time>2020-01-09T11:41:51Z</time>
      </trkpt>
      <trkpt lat="46.260743597522378" lon="8.080132864415646">
        <ele>2848.6599999999999</ele>
        <time>2020-01-09T11:42:24Z</time>
      </trkpt>
      <trkpt lat="46.260741082951427" lon="8.08012674562633">
        <ele>2848.9099999999999</ele>
        <time>2020-01-09T11:42:57Z</time>
      </trkpt>
      <trkpt lat="46.260740160942078" lon="8.08009791187942">
        <ele>2849.02</ele>
        <time>2020-01-09T11:43:26Z</time>
      </trkpt>
      <trkpt lat="46.260731611400843" lon="8.080052398145199">
        <ele>2849.25</ele>
        <time>2020-01-09T11:43:58Z</time>
      </trkpt>
      <trkpt lat="46.260715434327722" lon="8.080031359568238">
        <ele>2849.6199999999999</ele>
        <time>2020-01-09T11:44:35Z</time>
      </trkpt>
      <trkpt lat="46.260711159557104" lon="8.080002358183265">
        <ele>2850.0300000000002</ele>
        <time>2020-01-09T11:45:06Z</time>
      </trkpt>
      <trkpt lat="46.260713925585151" lon="8.080006800591946">
        <ele>2850.2600000000002</ele>
        <time>2020-01-09T11:45:40Z</time>
      </trkpt>
      <trkpt lat="46.260723732411861" lon="8.080020546913147">
        <ele>2851.02</ele>
        <time>2020-01-09T11:46:16Z</time>
      </trkpt>
      <trkpt lat="46.260719206184149" lon="8.079989450052381">
        <ele>2851.0100000000002</ele>
        <time>2020-01-09T11:46:51Z</time>
      </trkpt>
      <trkpt lat="46.260729013010859" lon="8.080044183880091">
        <ele>2851.1599999999999</ele>
        <time>2020-01-09T11:47:27Z</time>
      </trkpt>
      <trkpt lat="46.260735047981143" lon="8.080119201913476">
        <ele>2851.2199999999998</ele>
        <time>2020-01-09T11:48:08Z</time>
      </trkpt>
      <trkpt lat="46.26073881983757" lon="8.08015507645905">
        <ele>2851.5999999999999</ele>
        <time>2020-01-09T11:48:41Z</time>
      </trkpt>
      <trkpt lat="46.26073538325727" lon="8.080164631828666">
        <ele>2851.9499999999998</ele>
        <time>2020-01-09T11:48:58Z</time>
      </trkpt>
      <trkpt lat="46.260744268074632" lon="8.080178461968899">
        <ele>2851.9400000000001</ele>
        <time>2020-01-09T11:49:24Z</time>
      </trkpt>
      <trkpt lat="46.260727168992162" lon="8.080154741182923">
        <ele>2851.9099999999999</ele>
        <time>2020-01-09T11:49:50Z</time>
      </trkpt>
      <trkpt lat="46.26072465442121" lon="8.08013990521431">
        <ele>2852</ele>
        <time>2020-01-09T11:50:10Z</time>
      </trkpt>
      <trkpt lat="46.260731024667621" lon="8.080157088115811">
        <ele>2852.1700000000001</ele>
        <time>2020-01-09T11:50:35Z</time>
      </trkpt>
      <trkpt lat="46.260730102658272" lon="8.080147113651037">
        <ele>2852.3099999999999</ele>
        <time>2020-01-09T11:50:58Z</time>
      </trkpt>
      <trkpt lat="46.260721553117037" lon="8.080122554674745">
        <ele>2852.4400000000001</ele>
        <time>2020-01-09T11:51:23Z</time>
      </trkpt>
      <trkpt lat="46.260719792917371" lon="8.080116687342525">
        <ele>2852.6100000000001</ele>
        <time>2020-01-09T11:51:47Z</time>
      </trkpt>
      <trkpt lat="46.260714428499341" lon="8.080119118094444">
        <ele>2852.6199999999999</ele>
        <time>2020-01-09T11:52:09Z</time>
      </trkpt>
      <trkpt lat="46.26072758808732" lon="8.080145018175244">
        <ele>2852.5300000000002</ele>
        <time>2020-01-09T11:52:29Z</time>
      </trkpt>
      <trkpt lat="46.26073831692338" lon="8.080141246318817">
        <ele>2852.5900000000001</ele>
        <time>2020-01-09T11:52:48Z</time>
      </trkpt>
      <trkpt lat="46.260737646371126" lon="8.080154322087765">
        <ele>2852.6199999999999</ele>
        <time>2020-01-09T11:53:08Z</time>
      </trkpt>
      <trkpt lat="46.260737394914031" lon="8.080153819173574">
        <ele>2852.6100000000001</ele>
        <time>2020-01-09T11:53:26Z</time>
      </trkpt>
      <trkpt lat="46.260733623057604" lon="8.080152729526162">
        <ele>2852.6300000000001</ele>
        <time>2020-01-09T11:53:44Z</time>
      </trkpt>
      <trkpt lat="46.260738149285316" lon="8.080153651535511">
        <ele>2852.71</ele>
        <time>2020-01-09T11:54:04Z</time>
      </trkpt>
      <trkpt lat="46.260731359943748" lon="8.080168403685093">
        <ele>2852.54</ele>
        <time>2020-01-09T11:54:27Z</time>
      </trkpt>
      <trkpt lat="46.260737311094999" lon="8.080160524696112">
        <ele>2852.6900000000001</ele>
        <time>2020-01-09T11:54:52Z</time>
      </trkpt>
      <trkpt lat="46.26074125058949" lon="8.080179719254375">
        <ele>2852.79</ele>
        <time>2020-01-09T11:55:26Z</time>
      </trkpt>
      <trkpt lat="46.260741837322712" lon="8.080186005681753">
        <ele>2852.9299999999998</ele>
        <time>2020-01-09T11:55:50Z</time>
      </trkpt>
      <trkpt lat="46.260745022445917" lon="8.0801956448704">
        <ele>2852.7399999999998</ele>
        <time>2020-01-09T11:56:26Z</time>
      </trkpt>
      <trkpt lat="46.260755164548755" lon="8.080206792801619">
        <ele>2852.6900000000001</ele>
        <time>2020-01-09T11:57:02Z</time>
      </trkpt>
      <trkpt lat="46.260756757110357" lon="8.080223724246025">
        <ele>2852.6900000000001</ele>
        <time>2020-01-09T11:57:44Z</time>
      </trkpt>
      <trkpt lat="46.260760026052594" lon="8.080216012895107">
        <ele>2852.7199999999998</ele>
        <time>2020-01-09T11:58:23Z</time>
      </trkpt>
      <trkpt lat="46.260763127356768" lon="8.080211402848363">
        <ele>2852.4000000000001</ele>
        <time>2020-01-09T11:59:03Z</time>
      </trkpt>
      <trkpt lat="46.260763043537736" lon="8.080226657912135">
        <ele>2852.6199999999999</ele>
        <time>2020-01-09T11:59:45Z</time>
      </trkpt>
      <trkpt lat="46.260762456804514" lon="8.080227412283421">
        <ele>2852.3699999999999</ele>
        <time>2020-01-09T12:00:19Z</time>
      </trkpt>
      <trkpt lat="46.260758936405182" lon="8.080232860520482">
        <ele>2852.27</ele>
        <time>2020-01-09T12:00:52Z</time>
      </trkpt>
      <trkpt lat="46.260759606957436" lon="8.080240907147527">
        <ele>2852.6100000000001</ele>
        <time>2020-01-09T12:01:11Z</time>
      </trkpt>
      <trkpt lat="46.260756924748421" lon="8.080214755609632">
        <ele>2852.4099999999999</ele>
        <time>2020-01-09T12:01:47Z</time>
      </trkpt>
      <trkpt lat="46.260758768767118" lon="8.080178126692772">
        <ele>2852.25</ele>
        <time>2020-01-09T12:02:21Z</time>
      </trkpt>
      <trkpt lat="46.260749213397503" lon="8.080176115036011">
        <ele>2852.2600000000002</ele>
        <time>2020-01-09T12:03:00Z</time>
      </trkpt>
      <trkpt lat="46.260747201740742" lon="8.080171504989266">
        <ele>2852.54</ele>
        <time>2020-01-09T12:03:41Z</time>
      </trkpt>
      <trkpt lat="46.260743010789156" lon="8.080155998468399">
        <ele>2852.5999999999999</ele>
        <time>2020-01-09T12:04:24Z</time>
      </trkpt>
      <trkpt lat="46.260748794302344" lon="8.080166392028332">
        <ele>2852.6799999999998</ele>
        <time>2020-01-09T12:05:04Z</time>
      </trkpt>
      <trkpt lat="46.260763378813863" lon="8.080182652920485">
        <ele>2852.23</ele>
        <time>2020-01-09T12:05:34Z</time>
      </trkpt>
      <trkpt lat="46.260761953890324" lon="8.080191034823656">
        <ele>2852.96</ele>
        <time>2020-01-09T12:06:00Z</time>
      </trkpt>
      <trkpt lat="46.260761618614197" lon="8.080179132521153">
        <ele>2852.7199999999998</ele>
        <time>2020-01-09T12:06:33Z</time>
      </trkpt>
      <trkpt lat="46.260747201740742" lon="8.08019413612783">
        <ele>2852.6700000000001</ele>
        <time>2020-01-09T12:06:57Z</time>
      </trkpt>
      <trkpt lat="46.260742004960775" lon="8.080191118642688">
        <ele>2852.5100000000002</ele>
        <time>2020-01-09T12:07:15Z</time>
      </trkpt>
      <trkpt lat="46.260742843151093" lon="8.080198662355542">
        <ele>2852.5300000000002</ele>
        <time>2020-01-09T12:07:33Z</time>
      </trkpt>
      <trkpt lat="46.260741418227553" lon="8.080193884670734">
        <ele>2852.1999999999998</ele>
        <time>2020-01-09T12:07:54Z</time>
      </trkpt>
      <trkpt lat="46.260738233104348" lon="8.080194219946861">
        <ele>2852</ele>
        <time>2020-01-09T12:08:13Z</time>
      </trkpt>
      <trkpt lat="46.260719960555434" lon="8.080193214118481">
        <ele>2852.0900000000001</ele>
        <time>2020-01-09T12:08:35Z</time>
      </trkpt>
      <trkpt lat="46.260747285559773" lon="8.080204194411635">
        <ele>2852.04</ele>
        <time>2020-01-09T12:08:57Z</time>
      </trkpt>
      <trkpt lat="46.26074954867363" lon="8.080187430605292">
        <ele>2852.1300000000001</ele>
        <time>2020-01-09T12:09:25Z</time>
      </trkpt>
      <trkpt lat="46.260750303044915" lon="8.080175444483757">
        <ele>2852.1100000000001</ele>
        <time>2020-01-09T12:10:00Z</time>
      </trkpt>
      <trkpt lat="46.26075055450201" lon="8.08018097653985">
        <ele>2852.4400000000001</ele>
        <time>2020-01-09T12:10:24Z</time>
      </trkpt>
      <trkpt lat="46.260736891999841" lon="8.080167565494776">
        <ele>2852.5500000000002</ele>
        <time>2020-01-09T12:10:39Z</time>
      </trkpt>
      <trkpt lat="46.260738987475634" lon="8.080184664577246">
        <ele>2850.7600000000002</ele>
        <time>2020-01-09T12:10:59Z</time>
      </trkpt>
      <trkpt lat="46.260751392692327" lon="8.080156082287431">
        <ele>2852.3200000000002</ele>
        <time>2020-01-09T12:11:12Z</time>
      </trkpt>
      <trkpt lat="46.26078668050468" lon="8.08008668012917">
        <ele>2850.02</ele>
        <time>2020-01-09T12:11:20Z</time>
      </trkpt>
      <trkpt lat="46.260802606120706" lon="8.080040831118822">
        <ele>2847.5</ele>
        <time>2020-01-09T12:11:30Z</time>
      </trkpt>
      <trkpt lat="46.260814340785146" lon="8.080021552741528">
        <ele>2848.3800000000001</ele>
        <time>2020-01-09T12:11:48Z</time>
      </trkpt>
      <trkpt lat="46.260814340785146" lon="8.080005124211311">
        <ele>2848.5700000000002</ele>
        <time>2020-01-09T12:11:50Z</time>
      </trkpt>
      <trkpt lat="46.260811910033226" lon="8.079938236624003">
        <ele>2846.6599999999999</ele>
        <time>2020-01-09T12:11:55Z</time>
      </trkpt>
      <trkpt lat="46.260814508423209" lon="8.079908899962902">
        <ele>2844.5799999999999</ele>
        <time>2020-01-09T12:12:05Z</time>
      </trkpt>
      <trkpt lat="46.260814508423209" lon="8.07988584972918">
        <ele>2845.8299999999999</ele>
        <time>2020-01-09T12:12:13Z</time>
      </trkpt>
      <trkpt lat="46.260813670232892" lon="8.079859614372253">
        <ele>2845.4000000000001</ele>
        <time>2020-01-09T12:12:15Z</time>
      </trkpt>
      <trkpt lat="46.26078131608665" lon="8.079641684889793">
        <ele>2842.3499999999999</ele>
        <time>2020-01-09T12:12:30Z</time>
      </trkpt>
      <trkpt lat="46.260739993304014" lon="8.079425934702158">
        <ele>2839.6399999999999</ele>
        <time>2020-01-09T12:12:45Z</time>
      </trkpt>
      <trkpt lat="46.260713590309024" lon="8.079205742105842">
        <ele>2836.6599999999999</ele>
        <time>2020-01-09T12:13:00Z</time>
      </trkpt>
      <trkpt lat="46.260672016069293" lon="8.079028129577637">
        <ele>2833.5999999999999</ele>
        <time>2020-01-09T12:13:14Z</time>
      </trkpt>
      <trkpt lat="46.260650893673301" lon="8.078848840668798">
        <ele>2830.3200000000002</ele>
        <time>2020-01-09T12:13:29Z</time>
      </trkpt>
      <trkpt lat="46.260650726035237" lon="8.078754208981991">
        <ele>2828.8400000000001</ele>
        <time>2020-01-09T12:13:36Z</time>
      </trkpt>
      <trkpt lat="46.260631615296006" lon="8.078566370531917">
        <ele>2825.3699999999999</ele>
        <time>2020-01-09T12:13:49Z</time>
      </trkpt>
      <trkpt lat="46.260554417967796" lon="8.078345423564315">
        <ele>2824.0500000000002</ele>
        <time>2020-01-09T12:14:04Z</time>
      </trkpt>
      <trkpt lat="46.260476047173142" lon="8.078104108572006">
        <ele>2822.5599999999999</ele>
        <time>2020-01-09T12:14:19Z</time>
      </trkpt>
      <trkpt lat="46.260387701913714" lon="8.077879138290882">
        <ele>2821.6999999999998</ele>
        <time>2020-01-09T12:14:34Z</time>
      </trkpt>
      <trkpt lat="46.260258872061968" lon="8.077670512720943">
        <ele>2820.0500000000002</ele>
        <time>2020-01-09T12:14:50Z</time>
      </trkpt>
      <trkpt lat="46.260149572044611" lon="8.077428443357348">
        <ele>2818.02</ele>
        <time>2020-01-09T12:15:07Z</time>
      </trkpt>
      <trkpt lat="46.260064244270325" lon="8.077192660421133">
        <ele>2815.5300000000002</ele>
        <time>2020-01-09T12:15:23Z</time>
      </trkpt>
      <trkpt lat="46.260018227621913" lon="8.077027201652527">
        <ele>2813.9000000000001</ele>
        <time>2020-01-09T12:15:37Z</time>
      </trkpt>
      <trkpt lat="46.260016802698374" lon="8.077012617141008">
        <ele>2813.4499999999998</ele>
        <time>2020-01-09T12:15:41Z</time>
      </trkpt>
      <trkpt lat="46.260006409138441" lon="8.076974144205451">
        <ele>2812.8400000000001</ele>
        <time>2020-01-09T12:15:44Z</time>
      </trkpt>
      <trkpt lat="46.259987382218242" lon="8.076900383457542">
        <ele>2812.0300000000002</ele>
        <time>2020-01-09T12:15:49Z</time>
      </trkpt>
      <trkpt lat="46.259947568178177" lon="8.076748587191105">
        <ele>2808.9400000000001</ele>
        <time>2020-01-09T12:15:59Z</time>
      </trkpt>
      <trkpt lat="46.259916052222252" lon="8.076587235555053">
        <ele>2805.7199999999998</ele>
        <time>2020-01-09T12:16:09Z</time>
      </trkpt>
      <trkpt lat="46.259863162413239" lon="8.07630761526525">
        <ele>2802.9699999999998</ele>
        <time>2020-01-09T12:16:26Z</time>
      </trkpt>
      <trkpt lat="46.259811948984861" lon="8.076095134019852">
        <ele>2802.8099999999999</ele>
        <time>2020-01-09T12:16:41Z</time>
      </trkpt>
      <trkpt lat="46.259752353653312" lon="8.075872091576457">
        <ele>2801.1399999999999</ele>
        <time>2020-01-09T12:16:58Z</time>
      </trkpt>
      <trkpt lat="46.259701810777187" lon="8.075727922841907">
        <ele>2799.9400000000001</ele>
        <time>2020-01-09T12:17:11Z</time>
      </trkpt>
      <trkpt lat="46.259630648419261" lon="8.075628597289324">
        <ele>2796.6399999999999</ele>
        <time>2020-01-09T12:17:23Z</time>
      </trkpt>
      <trkpt lat="46.259575914591551" lon="8.075582245364785">
        <ele>2792.9400000000001</ele>
        <time>2020-01-09T12:17:32Z</time>
      </trkpt>
      <trkpt lat="46.25956317409873" lon="8.075575204566121">
        <ele>2792.3000000000002</ele>
        <time>2020-01-09T12:17:34Z</time>
      </trkpt>
      <trkpt lat="46.259552026167512" lon="8.075574869289994">
        <ele>2791.5100000000002</ele>
        <time>2020-01-09T12:17:36Z</time>
      </trkpt>
      <trkpt lat="46.25953484326601" lon="8.07556833140552">
        <ele>2790.8000000000002</ele>
        <time>2020-01-09T12:17:38Z</time>
      </trkpt>
      <trkpt lat="46.259492347016931" lon="8.075548298656941">
        <ele>2790.1300000000001</ele>
        <time>2020-01-09T12:17:42Z</time>
      </trkpt>
      <trkpt lat="46.259349267929792" lon="8.07543933391571">
        <ele>2787.27</ele>
        <time>2020-01-09T12:17:57Z</time>
      </trkpt>
      <trkpt lat="46.259236866608262" lon="8.075378313660622">
        <ele>2784.25</ele>
        <time>2020-01-09T12:18:08Z</time>
      </trkpt>
      <trkpt lat="46.259063277393579" lon="8.075242275372148">
        <ele>2782.3099999999999</ele>
        <time>2020-01-09T12:18:23Z</time>
      </trkpt>
      <trkpt lat="46.258873511105776" lon="8.075105398893356">
        <ele>2781.1399999999999</ele>
        <time>2020-01-09T12:18:39Z</time>
      </trkpt>
      <trkpt lat="46.258708219975233" lon="8.075008587911725">
        <ele>2779.6799999999998</ele>
        <time>2020-01-09T12:18:52Z</time>
      </trkpt>
      <trkpt lat="46.258465144783258" lon="8.074895264580846">
        <ele>2777.9000000000001</ele>
        <time>2020-01-09T12:19:11Z</time>
      </trkpt>
      <trkpt lat="46.258272528648376" lon="8.074798118323088">
        <ele>2776.8800000000001</ele>
        <time>2020-01-09T12:19:28Z</time>
      </trkpt>
      <trkpt lat="46.258169179782271" lon="8.074768194928765">
        <ele>2774.5999999999999</ele>
        <time>2020-01-09T12:19:36Z</time>
      </trkpt>
      <trkpt lat="46.258002128452063" lon="8.074768278747797">
        <ele>2774.3200000000002</ele>
        <time>2020-01-09T12:19:51Z</time>
      </trkpt>
      <trkpt lat="46.257864665240049" lon="8.074818151071668">
        <ele>2772.6100000000001</ele>
        <time>2020-01-09T12:20:04Z</time>
      </trkpt>
      <trkpt lat="46.257651429623365" lon="8.074943544343114">
        <ele>2771.23</ele>
        <time>2020-01-09T12:20:23Z</time>
      </trkpt>
      <trkpt lat="46.257489658892155" lon="8.075056867673993">
        <ele>2772.0599999999999</ele>
        <time>2020-01-09T12:20:40Z</time>
      </trkpt>
      <trkpt lat="46.257342472672462" lon="8.075154013931751">
        <ele>2773.2199999999998</ele>
        <time>2020-01-09T12:20:56Z</time>
      </trkpt>
      <trkpt lat="46.257189335301518" lon="8.075267001986504">
        <ele>2771.77</ele>
        <time>2020-01-09T12:21:12Z</time>
      </trkpt>
      <trkpt lat="46.257045837119222" lon="8.075354425236583">
        <ele>2771.9000000000001</ele>
        <time>2020-01-09T12:21:27Z</time>
      </trkpt>
      <trkpt lat="46.256905775517225" lon="8.075468586757779">
        <ele>2771.4200000000001</ele>
        <time>2020-01-09T12:21:42Z</time>
      </trkpt>
      <trkpt lat="46.256793709471822" lon="8.075568415224552">
        <ele>2771.75</ele>
        <time>2020-01-09T12:21:55Z</time>
      </trkpt>
      <trkpt lat="46.25668658874929" lon="8.075666651129723">
        <ele>2772.5900000000001</ele>
        <time>2020-01-09T12:22:09Z</time>
      </trkpt>
      <trkpt lat="46.256551723927259" lon="8.075796319171786">
        <ele>2772.2600000000002</ele>
        <time>2020-01-09T12:22:25Z</time>
      </trkpt>
      <trkpt lat="46.25640956684947" lon="8.075868906453252">
        <ele>2772.9699999999998</ele>
        <time>2020-01-09T12:22:39Z</time>
      </trkpt>
      <trkpt lat="46.256240420043468" lon="8.075897740200162">
        <ele>2771.1700000000001</ele>
        <time>2020-01-09T12:22:54Z</time>
      </trkpt>
      <trkpt lat="46.256131958216429" lon="8.07593185454607">
        <ele>2769.7399999999998</ele>
        <time>2020-01-09T12:23:06Z</time>
      </trkpt>
      <trkpt lat="46.256131874397397" lon="8.075930932536721">
        <ele>2769.8400000000001</ele>
        <time>2020-01-09T12:23:21Z</time>
      </trkpt>
      <trkpt lat="46.256118128076196" lon="8.075944595038891">
        <ele>2768.6199999999999</ele>
        <time>2020-01-09T12:23:32Z</time>
      </trkpt>
      <trkpt lat="46.256102286279202" lon="8.07599438354373">
        <ele>2770.0500000000002</ele>
        <time>2020-01-09T12:23:41Z</time>
      </trkpt>
      <trkpt lat="46.25609734095633" lon="8.07600075379014">
        <ele>2769.5599999999999</ele>
        <time>2020-01-09T12:23:42Z</time>
      </trkpt>
      <trkpt lat="46.256021484732628" lon="8.075987594202161">
        <ele>2769.0999999999999</ele>
        <time>2020-01-09T12:23:53Z</time>
      </trkpt>
      <trkpt lat="46.256002122536302" lon="8.075970327481628">
        <ele>2768.29</ele>
        <time>2020-01-09T12:24:07Z</time>
      </trkpt>
      <trkpt lat="46.255943784490228" lon="8.075976613909006">
        <ele>2767.1199999999999</ele>
        <time>2020-01-09T12:24:30Z</time>
      </trkpt>
      <trkpt lat="46.255898103117943" lon="8.075983822345734">
        <ele>2766.8200000000002</ele>
        <time>2020-01-09T12:24:40Z</time>
      </trkpt>
      <trkpt lat="46.255873711779714" lon="8.075987175107002">
        <ele>2766.4000000000001</ele>
        <time>2020-01-09T12:24:46Z</time>
      </trkpt>
      <trkpt lat="46.255854014307261" lon="8.075990024954081">
        <ele>2766</ele>
        <time>2020-01-09T12:24:48Z</time>
      </trkpt>
      <trkpt lat="46.255765836685896" lon="8.075987510383129">
        <ele>2762.54</ele>
        <time>2020-01-09T12:25:02Z</time>
      </trkpt>
      <trkpt lat="46.255691237747669" lon="8.0760408192873">
        <ele>2760.25</ele>
        <time>2020-01-09T12:25:15Z</time>
      </trkpt>
      <trkpt lat="46.255602054297924" lon="8.076077699661255">
        <ele>2757.0999999999999</ele>
        <time>2020-01-09T12:25:25Z</time>
      </trkpt>
      <trkpt lat="46.255470290780067" lon="8.076122207567096">
        <ele>2753.8400000000001</ele>
        <time>2020-01-09T12:25:39Z</time>
      </trkpt>
      <trkpt lat="46.255376078188419" lon="8.076172079890966">
        <ele>2750.23</ele>
        <time>2020-01-09T12:25:50Z</time>
      </trkpt>
      <trkpt lat="46.255277926102281" lon="8.076275428757072">
        <ele>2747.21</ele>
        <time>2020-01-09T12:26:03Z</time>
      </trkpt>
      <trkpt lat="46.255218330770731" lon="8.076367042958736">
        <ele>2744.7199999999998</ele>
        <time>2020-01-09T12:26:15Z</time>
      </trkpt>
      <trkpt lat="46.255178432911634" lon="8.076425129547715">
        <ele>2741.6199999999999</ele>
        <time>2020-01-09T12:26:23Z</time>
      </trkpt>
      <trkpt lat="46.255162172019482" lon="8.07643418200314">
        <ele>2741.1199999999999</ele>
        <time>2020-01-09T12:26:25Z</time>
      </trkpt>
      <trkpt lat="46.255102409049869" lon="8.076471481472254">
        <ele>2743</ele>
        <time>2020-01-09T12:26:35Z</time>
      </trkpt>
      <trkpt lat="46.255088578909636" lon="8.076481791213155">
        <ele>2739.6900000000001</ele>
        <time>2020-01-09T12:26:39Z</time>
      </trkpt>
      <trkpt lat="46.255082041025162" lon="8.076482629403472">
        <ele>2741.6700000000001</ele>
        <time>2020-01-09T12:26:53Z</time>
      </trkpt>
      <trkpt lat="46.255078604444861" lon="8.076479528099299">
        <ele>2742.52</ele>
        <time>2020-01-09T12:27:01Z</time>
      </trkpt>
      <trkpt lat="46.255080280825496" lon="8.076477516442537">
        <ele>2738.73</ele>
        <time>2020-01-09T12:27:08Z</time>
      </trkpt>
      <trkpt lat="46.255076508969069" lon="8.076477851718664">
        <ele>2742.0700000000002</ele>
        <time>2020-01-09T12:27:13Z</time>
      </trkpt>
      <trkpt lat="46.255075335502625" lon="8.076478186994791">
        <ele>2742.9499999999998</ele>
        <time>2020-01-09T12:27:15Z</time>
      </trkpt>
      <trkpt lat="46.255061589181423" lon="8.076494950801134">
        <ele>2739.6799999999998</ele>
        <time>2020-01-09T12:27:19Z</time>
      </trkpt>
      <trkpt lat="46.25505312345922" lon="8.076502662152052">
        <ele>2738.8899999999999</ele>
        <time>2020-01-09T12:27:20Z</time>
      </trkpt>
      <trkpt lat="46.255025798454881" lon="8.076525293290615">
        <ele>2737.3899999999999</ele>
        <time>2020-01-09T12:27:23Z</time>
      </trkpt>
      <trkpt lat="46.254935944452882" lon="8.076618583872914">
        <ele>2735.02</ele>
        <time>2020-01-09T12:27:36Z</time>
      </trkpt>
      <trkpt lat="46.254871906712651" lon="8.076601652428508">
        <ele>2735</ele>
        <time>2020-01-09T12:27:43Z</time>
      </trkpt>
      <trkpt lat="46.254841731861234" lon="8.076589666306973">
        <ele>2732.9699999999998</ele>
        <time>2020-01-09T12:27:48Z</time>
      </trkpt>
      <trkpt lat="46.254834020510316" lon="8.076599221676588">
        <ele>2732.52</ele>
        <time>2020-01-09T12:27:59Z</time>
      </trkpt>
      <trkpt lat="46.254837540909648" lon="8.07660274207592">
        <ele>2732.25</ele>
        <time>2020-01-09T12:28:13Z</time>
      </trkpt>
      <trkpt lat="46.254834271967411" lon="8.076604334637523">
        <ele>2732.3099999999999</ele>
        <time>2020-01-09T12:28:14Z</time>
      </trkpt>
      <trkpt lat="46.254764283075929" lon="8.076573824509978">
        <ele>2730.8000000000002</ele>
        <time>2020-01-09T12:28:22Z</time>
      </trkpt>
      <trkpt lat="46.254691192880273" lon="8.076540129259229">
        <ele>2728.46</ele>
        <time>2020-01-09T12:28:30Z</time>
      </trkpt>
      <trkpt lat="46.254600835964084" lon="8.076516576111317">
        <ele>2725.4099999999999</ele>
        <time>2020-01-09T12:28:40Z</time>
      </trkpt>
      <trkpt lat="46.254545766860247" lon="8.076492520049214">
        <ele>2723.1900000000001</ele>
        <time>2020-01-09T12:28:46Z</time>
      </trkpt>
      <trkpt lat="46.254482567310333" lon="8.076471565291286">
        <ele>2722.1700000000001</ele>
        <time>2020-01-09T12:28:59Z</time>
      </trkpt>
      <trkpt lat="46.254472676664591" lon="8.076471481472254">
        <ele>2722.2800000000002</ele>
        <time>2020-01-09T12:29:08Z</time>
      </trkpt>
      <trkpt lat="46.254452392458916" lon="8.076463351026177">
        <ele>2721.1999999999998</ele>
        <time>2020-01-09T12:29:10Z</time>
      </trkpt>
      <trkpt lat="46.254431437700987" lon="8.076452538371086">
        <ele>2720.1399999999999</ele>
        <time>2020-01-09T12:29:12Z</time>
      </trkpt>
      <trkpt lat="46.254305625334382" lon="8.076372072100639">
        <ele>2716.9499999999998</ele>
        <time>2020-01-09T12:29:24Z</time>
      </trkpt>
      <trkpt lat="46.254169503226876" lon="8.076209044083953">
        <ele>2714.3299999999999</ele>
        <time>2020-01-09T12:29:40Z</time>
      </trkpt>
      <trkpt lat="46.254065232351422" lon="8.076035622507334">
        <ele>2711.1700000000001</ele>
        <time>2020-01-09T12:29:54Z</time>
      </trkpt>
      <trkpt lat="46.253942521288991" lon="8.075860105454922">
        <ele>2709.1700000000001</ele>
        <time>2020-01-09T12:30:10Z</time>
      </trkpt>
      <trkpt lat="46.253862306475639" lon="8.075703363865614">
        <ele>2705.9200000000001</ele>
        <time>2020-01-09T12:30:23Z</time>
      </trkpt>
      <trkpt lat="46.253804052248597" lon="8.075653910636902">
        <ele>2704.7199999999998</ele>
        <time>2020-01-09T12:30:30Z</time>
      </trkpt>
      <trkpt lat="46.253787120804191" lon="8.075528265908361">
        <ele>2701.3400000000001</ele>
        <time>2020-01-09T12:30:40Z</time>
      </trkpt>
      <trkpt lat="46.253785276785493" lon="8.075516782701016">
        <ele>2701.1100000000001</ele>
        <time>2020-01-09T12:30:41Z</time>
      </trkpt>
      <trkpt lat="46.253777565434575" lon="8.07536649517715">
        <ele>2697.6399999999999</ele>
        <time>2020-01-09T12:30:53Z</time>
      </trkpt>
      <trkpt lat="46.253754431381822" lon="8.075299104675651">
        <ele>2695.27</ele>
        <time>2020-01-09T12:31:00Z</time>
      </trkpt>
      <trkpt lat="46.253720568493009" lon="8.075218051671982">
        <ele>2692.8699999999999</ele>
        <time>2020-01-09T12:31:08Z</time>
      </trkpt>
      <trkpt lat="46.253686370328069" lon="8.075188212096691">
        <ele>2691.96</ele>
        <time>2020-01-09T12:31:12Z</time>
      </trkpt>
      <trkpt lat="46.253649573773146" lon="8.075076313689351">
        <ele>2689.1900000000001</ele>
        <time>2020-01-09T12:31:23Z</time>
      </trkpt>
      <trkpt lat="46.253629541024566" lon="8.07495997287333">
        <ele>2686.8699999999999</ele>
        <time>2020-01-09T12:31:35Z</time>
      </trkpt>
      <trkpt lat="46.253616968169808" lon="8.074838016182184">
        <ele>2683.8000000000002</ele>
        <time>2020-01-09T12:31:45Z</time>
      </trkpt>
      <trkpt lat="46.253597605973482" lon="8.074702816084027">
        <ele>2680.77</ele>
        <time>2020-01-09T12:31:54Z</time>
      </trkpt>
      <trkpt lat="46.253568101674318" lon="8.074551103636622">
        <ele>2677.5999999999999</ele>
        <time>2020-01-09T12:32:04Z</time>
      </trkpt>
      <trkpt lat="46.253552930429578" lon="8.074442725628614">
        <ele>2676.4400000000001</ele>
        <time>2020-01-09T12:32:17Z</time>
      </trkpt>
      <trkpt lat="46.253534406423569" lon="8.074348513036966">
        <ele>2674.77</ele>
        <time>2020-01-09T12:32:23Z</time>
      </trkpt>
      <trkpt lat="46.253518061712384" lon="8.074236614629626">
        <ele>2673.4299999999998</ele>
        <time>2020-01-09T12:32:38Z</time>
      </trkpt>
      <trkpt lat="46.253514541313052" lon="8.074231669306755">
        <ele>2673.1999999999998</ele>
        <time>2020-01-09T12:32:41Z</time>
      </trkpt>
      <trkpt lat="46.253503393381834" lon="8.07418548502028">
        <ele>2672.4200000000001</ele>
        <time>2020-01-09T12:32:44Z</time>
      </trkpt>
      <trkpt lat="46.253469614312053" lon="8.074016589671373">
        <ele>2669.0100000000002</ele>
        <time>2020-01-09T12:32:54Z</time>
      </trkpt>
      <trkpt lat="46.253459556028247" lon="8.073836294934154">
        <ele>2665.8400000000001</ele>
        <time>2020-01-09T12:33:05Z</time>
      </trkpt>
      <trkpt lat="46.253452347591519" lon="8.073687264695764">
        <ele>2662.5999999999999</ele>
        <time>2020-01-09T12:33:14Z</time>
      </trkpt>
      <trkpt lat="46.253441786393523" lon="8.073535049334168">
        <ele>2659.4000000000001</ele>
        <time>2020-01-09T12:33:23Z</time>
      </trkpt>
      <trkpt lat="46.253431309014559" lon="8.073371518403292">
        <ele>2656.2800000000002</ele>
        <time>2020-01-09T12:33:32Z</time>
      </trkpt>
      <trkpt lat="46.253420244902372" lon="8.073201617226005">
        <ele>2653.2199999999998</ele>
        <time>2020-01-09T12:33:41Z</time>
      </trkpt>
      <trkpt lat="46.253407252952456" lon="8.073023753240705">
        <ele>2650.1500000000001</ele>
        <time>2020-01-09T12:33:51Z</time>
      </trkpt>
      <trkpt lat="46.253394596278667" lon="8.072843039408326">
        <ele>2647.1199999999999</ele>
        <time>2020-01-09T12:34:02Z</time>
      </trkpt>
      <trkpt lat="46.253378754481673" lon="8.072656206786633">
        <ele>2643.9200000000001</ele>
        <time>2020-01-09T12:34:13Z</time>
      </trkpt>
      <trkpt lat="46.253335755318403" lon="8.072432242333889">
        <ele>2640.5900000000001</ele>
        <time>2020-01-09T12:34:26Z</time>
      </trkpt>
      <trkpt lat="46.253313375636935" lon="8.072237195447087">
        <ele>2637.3800000000001</ele>
        <time>2020-01-09T12:34:37Z</time>
      </trkpt>
      <trkpt lat="46.253274735063314" lon="8.072037789970636">
        <ele>2634.2199999999998</ele>
        <time>2020-01-09T12:34:49Z</time>
      </trkpt>
      <trkpt lat="46.253236010670662" lon="8.071951875463128">
        <ele>2632.6599999999999</ele>
        <time>2020-01-09T12:35:03Z</time>
      </trkpt>
      <trkpt lat="46.253237770870328" lon="8.071959754452109">
        <ele>2634.1599999999999</ele>
        <time>2020-01-09T12:35:16Z</time>
      </trkpt>
      <trkpt lat="46.253237351775169" lon="8.071958413347602">
        <ele>2632.3600000000001</ele>
        <time>2020-01-09T12:35:20Z</time>
      </trkpt>
      <trkpt lat="46.253236681222916" lon="8.071959251537919">
        <ele>2633.3400000000001</ele>
        <time>2020-01-09T12:35:22Z</time>
      </trkpt>
      <trkpt lat="46.253232154995203" lon="8.071941565722227">
        <ele>2632.48</ele>
        <time>2020-01-09T12:35:25Z</time>
      </trkpt>
      <trkpt lat="46.253205584362149" lon="8.071712907403708">
        <ele>2629.21</ele>
        <time>2020-01-09T12:35:40Z</time>
      </trkpt>
      <trkpt lat="46.253156717866659" lon="8.071529846638441">
        <ele>2626.0300000000002</ele>
        <time>2020-01-09T12:35:51Z</time>
      </trkpt>
      <trkpt lat="46.253111539408565" lon="8.071312168613076">
        <ele>2622.8899999999999</ele>
        <time>2020-01-09T12:36:05Z</time>
      </trkpt>
      <trkpt lat="46.25304632820189" lon="8.071118295192719">
        <ele>2620.1399999999999</ele>
        <time>2020-01-09T12:36:18Z</time>
      </trkpt>
      <trkpt lat="46.252972315996885" lon="8.070924086496234">
        <ele>2617.0599999999999</ele>
        <time>2020-01-09T12:36:32Z</time>
      </trkpt>
      <trkpt lat="46.252888832241297" lon="8.07074555195868">
        <ele>2614.04</ele>
        <time>2020-01-09T12:36:46Z</time>
      </trkpt>
      <trkpt lat="46.252772323787212" lon="8.070551678538322">
        <ele>2611.02</ele>
        <time>2020-01-09T12:37:02Z</time>
      </trkpt>
      <trkpt lat="46.252678027376533" lon="8.070386974141002">
        <ele>2610.1999999999998</ele>
        <time>2020-01-09T12:37:16Z</time>
      </trkpt>
      <trkpt lat="46.252617761492729" lon="8.070247499272227">
        <ele>2607.0500000000002</ele>
        <time>2020-01-09T12:37:26Z</time>
      </trkpt>
      <trkpt lat="46.252557998523116" lon="8.070082040503621">
        <ele>2603.9699999999998</ele>
        <time>2020-01-09T12:37:38Z</time>
      </trkpt>
      <trkpt lat="46.252511646598577" lon="8.069946421310306">
        <ele>2600.8800000000001</ele>
        <time>2020-01-09T12:37:48Z</time>
      </trkpt>
      <trkpt lat="46.252466719597578" lon="8.069770652800798">
        <ele>2597.6300000000001</ele>
        <time>2020-01-09T12:38:00Z</time>
      </trkpt>
      <trkpt lat="46.252408884465694" lon="8.069629250094295">
        <ele>2594.2199999999998</ele>
        <time>2020-01-09T12:38:10Z</time>
      </trkpt>
      <trkpt lat="46.252331519499421" lon="8.069513160735369">
        <ele>2591.1799999999998</ele>
        <time>2020-01-09T12:38:20Z</time>
      </trkpt>
      <trkpt lat="46.252212161198258" lon="8.069382570683956">
        <ele>2588.25</ele>
        <time>2020-01-09T12:38:34Z</time>
      </trkpt>
      <trkpt lat="46.252079727128148" lon="8.069259524345398">
        <ele>2585.0100000000002</ele>
        <time>2020-01-09T12:38:49Z</time>
      </trkpt>
      <trkpt lat="46.251994734629989" lon="8.069160114973784">
        <ele>2581.98</ele>
        <time>2020-01-09T12:39:00Z</time>
      </trkpt>
      <trkpt lat="46.251885518431664" lon="8.069023825228214">
        <ele>2580.6900000000001</ele>
        <time>2020-01-09T12:39:13Z</time>
      </trkpt>
      <trkpt lat="46.251773033291101" lon="8.068878650665283">
        <ele>2578.9299999999998</ele>
        <time>2020-01-09T12:39:27Z</time>
      </trkpt>
      <trkpt lat="46.251663481816649" lon="8.0687465518713">
        <ele>2576.7600000000002</ele>
        <time>2020-01-09T12:39:40Z</time>
      </trkpt>
      <trkpt lat="46.251514032483101" lon="8.068590983748436">
        <ele>2574.3200000000002</ele>
        <time>2020-01-09T12:39:56Z</time>
      </trkpt>
      <trkpt lat="46.251392159610987" lon="8.068444132804871">
        <ele>2572.1900000000001</ele>
        <time>2020-01-09T12:40:11Z</time>
      </trkpt>
      <trkpt lat="46.25128042884171" lon="8.068299544975162">
        <ele>2569.98</ele>
        <time>2020-01-09T12:40:25Z</time>
      </trkpt>
      <trkpt lat="46.251170542091131" lon="8.068114304915071">
        <ele>2569.5700000000002</ele>
        <time>2020-01-09T12:40:41Z</time>
      </trkpt>
      <trkpt lat="46.251065684482455" lon="8.067959658801556">
        <ele>2569.5900000000001</ele>
        <time>2020-01-09T12:40:56Z</time>
      </trkpt>
      <trkpt lat="46.250945320352912" lon="8.067841893061996">
        <ele>2569.4699999999998</ele>
        <time>2020-01-09T12:41:12Z</time>
      </trkpt>
      <trkpt lat="46.250845827162266" lon="8.067773329094052">
        <ele>2568.2399999999998</ele>
        <time>2020-01-09T12:41:25Z</time>
      </trkpt>
      <trkpt lat="46.250753626227379" lon="8.067685235291719">
        <ele>2567.8899999999999</ele>
        <time>2020-01-09T12:41:40Z</time>
      </trkpt>
      <trkpt lat="46.250654133036733" lon="8.067636452615261">
        <ele>2566.3699999999999</ele>
        <time>2020-01-09T12:41:53Z</time>
      </trkpt>
      <trkpt lat="46.250585149973631" lon="8.0676051042974">
        <ele>2564.48</ele>
        <time>2020-01-09T12:42:07Z</time>
      </trkpt>
      <trkpt lat="46.250515412539244" lon="8.067612480372191">
        <ele>2563.6399999999999</ele>
        <time>2020-01-09T12:42:18Z</time>
      </trkpt>
      <trkpt lat="46.250398736447096" lon="8.067596387118101">
        <ele>2561.25</ele>
        <time>2020-01-09T12:42:32Z</time>
      </trkpt>
      <trkpt lat="46.250359090045094" lon="8.06759194470942">
        <ele>2559.6700000000001</ele>
        <time>2020-01-09T12:42:45Z</time>
      </trkpt>
      <trkpt lat="46.250304691493511" lon="8.067579455673695">
        <ele>2559.8600000000001</ele>
        <time>2020-01-09T12:42:56Z</time>
      </trkpt>
      <trkpt lat="46.250324975699186" lon="8.067507287487388">
        <ele>2558.1199999999999</ele>
        <time>2020-01-09T12:43:08Z</time>
      </trkpt>
      <trkpt lat="46.25035640783608" lon="8.067449619993568">
        <ele>2555.1900000000001</ele>
        <time>2020-01-09T12:43:17Z</time>
      </trkpt>
      <trkpt lat="46.250371495261788" lon="8.067393628880382">
        <ele>2553.8000000000002</ele>
        <time>2020-01-09T12:43:26Z</time>
      </trkpt>
      <trkpt lat="46.250387588515878" lon="8.067321460694075">
        <ele>2551.8899999999999</ele>
        <time>2020-01-09T12:43:36Z</time>
      </trkpt>
      <trkpt lat="46.250399742275476" lon="8.067223560065031">
        <ele>2549.1100000000001</ele>
        <time>2020-01-09T12:43:49Z</time>
      </trkpt>
      <trkpt lat="46.250409800559282" lon="8.06714728474617">
        <ele>2546.0300000000002</ele>
        <time>2020-01-09T12:43:59Z</time>
      </trkpt>
      <trkpt lat="46.2504175119102" lon="8.067065812647343">
        <ele>2543</ele>
        <time>2020-01-09T12:44:09Z</time>
      </trkpt>
      <trkpt lat="46.250433688983321" lon="8.066961877048016">
        <ele>2541.0100000000002</ele>
        <time>2020-01-09T12:44:22Z</time>
      </trkpt>
      <trkpt lat="46.25044584274292" lon="8.066926002502441">
        <ele>2539.4499999999998</ele>
        <time>2020-01-09T12:44:33Z</time>
      </trkpt>
      <trkpt lat="46.250451626256108" lon="8.066926002502441">
        <ele>2539.71</ele>
        <time>2020-01-09T12:44:48Z</time>
      </trkpt>
      <trkpt lat="46.250456906855106" lon="8.06685115210712">
        <ele>2538.3899999999999</ele>
        <time>2020-01-09T12:45:00Z</time>
      </trkpt>
      <trkpt lat="46.250467803329229" lon="8.066733637824655">
        <ele>2534.6799999999998</ele>
        <time>2020-01-09T12:45:11Z</time>
      </trkpt>
      <trkpt lat="46.250443663448095" lon="8.066642610356212">
        <ele>2532.6900000000001</ele>
        <time>2020-01-09T12:45:22Z</time>
      </trkpt>
      <trkpt lat="46.250398401170969" lon="8.066578656435013">
        <ele>2529.9099999999999</ele>
        <time>2020-01-09T12:45:33Z</time>
      </trkpt>
      <trkpt lat="46.250395970419049" lon="8.066575890406966">
        <ele>2528.27</ele>
        <time>2020-01-09T12:45:36Z</time>
      </trkpt>
      <trkpt lat="46.250316509976983" lon="8.066584020853043">
        <ele>2527.1199999999999</ele>
        <time>2020-01-09T12:45:45Z</time>
      </trkpt>
      <trkpt lat="46.250184578821063" lon="8.066615955904126">
        <ele>2523.9699999999998</ele>
        <time>2020-01-09T12:46:01Z</time>
      </trkpt>
      <trkpt lat="46.250199163332582" lon="8.066623080521822">
        <ele>2523.8299999999999</ele>
        <time>2020-01-09T12:46:24Z</time>
      </trkpt>
      <trkpt lat="46.250213161110878" lon="8.066627439111471">
        <ele>2523.7600000000002</ele>
        <time>2020-01-09T12:46:47Z</time>
      </trkpt>
      <trkpt lat="46.250158092007041" lon="8.066618135198951">
        <ele>2523.8699999999999</ele>
        <time>2020-01-09T12:46:58Z</time>
      </trkpt>
      <trkpt lat="46.25004124827683" lon="8.066630624234676">
        <ele>2520.98</ele>
        <time>2020-01-09T12:47:10Z</time>
      </trkpt>
      <trkpt lat="46.249875286594033" lon="8.066594665870071">
        <ele>2518.5799999999999</ele>
        <time>2020-01-09T12:47:25Z</time>
      </trkpt>
      <trkpt lat="46.249763807281852" lon="8.066515373066068">
        <ele>2517.7399999999998</ele>
        <time>2020-01-09T12:47:38Z</time>
      </trkpt>
      <trkpt lat="46.249682921916246" lon="8.066428871825337">
        <ele>2516.8400000000001</ele>
        <time>2020-01-09T12:47:50Z</time>
      </trkpt>
      <trkpt lat="46.249656602740288" lon="8.066403977572918">
        <ele>2516.75</ele>
        <time>2020-01-09T12:47:54Z</time>
      </trkpt>
      <trkpt lat="46.249632714316249" lon="8.066385202109814">
        <ele>2516.3299999999999</ele>
        <time>2020-01-09T12:47:57Z</time>
      </trkpt>
      <trkpt lat="46.249516205862164" lon="8.066271711140871">
        <ele>2516.3200000000002</ele>
        <time>2020-01-09T12:48:13Z</time>
      </trkpt>
      <trkpt lat="46.249500196427107" lon="8.06624136865139">
        <ele>2516.96</ele>
        <time>2020-01-09T12:48:26Z</time>
      </trkpt>
      <trkpt lat="46.249498855322599" lon="8.066238686442375">
        <ele>2517.23</ele>
        <time>2020-01-09T12:48:45Z</time>
      </trkpt>
      <trkpt lat="46.249456610530615" lon="8.066166266798973">
        <ele>2517.8299999999999</ele>
        <time>2020-01-09T12:49:00Z</time>
      </trkpt>
      <trkpt lat="46.249394668266177" lon="8.066057469695807">
        <ele>2519.3699999999999</ele>
        <time>2020-01-09T12:49:13Z</time>
      </trkpt>
      <trkpt lat="46.249320153146982" lon="8.065962502732873">
        <ele>2520.9699999999998</ele>
        <time>2020-01-09T12:49:26Z</time>
      </trkpt>
      <trkpt lat="46.24923842959106" lon="8.06590081192553">
        <ele>2522.77</ele>
        <time>2020-01-09T12:49:40Z</time>
      </trkpt>
      <trkpt lat="46.249166931957006" lon="8.065861081704497">
        <ele>2524.2199999999998</ele>
        <time>2020-01-09T12:49:53Z</time>
      </trkpt>
      <trkpt lat="46.249104151502252" lon="8.065829649567604">
        <ele>2524.3000000000002</ele>
        <time>2020-01-09T12:50:04Z</time>
      </trkpt>
      <trkpt lat="46.249064840376377" lon="8.065804084762931">
        <ele>2525.1700000000001</ele>
        <time>2020-01-09T12:50:16Z</time>
      </trkpt>
      <trkpt lat="46.249019410461187" lon="8.065784638747573">
        <ele>2526.3299999999999</ele>
        <time>2020-01-09T12:50:27Z</time>
      </trkpt>
      <trkpt lat="46.248960988596082" lon="8.065747674554586">
        <ele>2527.3299999999999</ele>
        <time>2020-01-09T12:50:39Z</time>
      </trkpt>
      <trkpt lat="46.248910948634148" lon="8.065711129456759">
        <ele>2528.8800000000001</ele>
        <time>2020-01-09T12:50:51Z</time>
      </trkpt>
      <trkpt lat="46.248861998319626" lon="8.065659999847412">
        <ele>2530</ele>
        <time>2020-01-09T12:51:04Z</time>
      </trkpt>
      <trkpt lat="46.248831236734986" lon="8.065628064796329">
        <ele>2530.8600000000001</ele>
        <time>2020-01-09T12:51:18Z</time>
      </trkpt>
      <trkpt lat="46.24875663779676" lon="8.065554639324546">
        <ele>2531.6199999999999</ele>
        <time>2020-01-09T12:51:32Z</time>
      </trkpt>
      <trkpt lat="46.248692264780402" lon="8.065477525815368">
        <ele>2531.9899999999998</ele>
        <time>2020-01-09T12:51:45Z</time>
      </trkpt>
      <trkpt lat="46.248610205948353" lon="8.065341152250767">
        <ele>2531.6799999999998</ele>
        <time>2020-01-09T12:52:01Z</time>
      </trkpt>
      <trkpt lat="46.248548263683915" lon="8.065181393176317">
        <ele>2529.5</ele>
        <time>2020-01-09T12:52:16Z</time>
      </trkpt>
      <trkpt lat="46.24849914573133" lon="8.06503931991756">
        <ele>2528</ele>
        <time>2020-01-09T12:52:30Z</time>
      </trkpt>
      <trkpt lat="46.248483555391431" lon="8.064981065690517">
        <ele>2527.5300000000002</ele>
        <time>2020-01-09T12:52:35Z</time>
      </trkpt>
      <trkpt lat="46.248452961444855" lon="8.064846117049456">
        <ele>2526.9699999999998</ele>
        <time>2020-01-09T12:52:47Z</time>
      </trkpt>
      <trkpt lat="46.248447764664888" lon="8.064815774559975">
        <ele>2526.54</ele>
        <time>2020-01-09T12:52:59Z</time>
      </trkpt>
      <trkpt lat="46.248440220952034" lon="8.064787024632096">
        <ele>2526.3600000000001</ele>
        <time>2020-01-09T12:53:05Z</time>
      </trkpt>
      <trkpt lat="46.24843074940145" lon="8.064746288582683">
        <ele>2526.02</ele>
        <time>2020-01-09T12:53:08Z</time>
      </trkpt>
      <trkpt lat="46.248377859592438" lon="8.064536824822426">
        <ele>2524.0500000000002</ele>
        <time>2020-01-09T12:53:24Z</time>
      </trkpt>
      <trkpt lat="46.248342655599117" lon="8.064349321648479">
        <ele>2522.5799999999999</ele>
        <time>2020-01-09T12:53:39Z</time>
      </trkpt>
      <trkpt lat="46.248333267867565" lon="8.064200542867184">
        <ele>2520.04</ele>
        <time>2020-01-09T12:53:52Z</time>
      </trkpt>
      <trkpt lat="46.248323041945696" lon="8.064050003886223">
        <ele>2517.2600000000002</ele>
        <time>2020-01-09T12:54:07Z</time>
      </trkpt>
      <trkpt lat="46.248299991711974" lon="8.063904326409102">
        <ele>2515.3000000000002</ele>
        <time>2020-01-09T12:54:23Z</time>
      </trkpt>
      <trkpt lat="46.248300410807133" lon="8.06384950876236">
        <ele>2514</ele>
        <time>2020-01-09T12:54:33Z</time>
      </trkpt>
      <trkpt lat="46.24829052016139" lon="8.063740292564035">
        <ele>2511.3400000000001</ele>
        <time>2020-01-09T12:54:45Z</time>
      </trkpt>
      <trkpt lat="46.248297980055213" lon="8.063604924827814">
        <ele>2509.98</ele>
        <time>2020-01-09T12:54:58Z</time>
      </trkpt>
      <trkpt lat="46.248339889571071" lon="8.063459331169725">
        <ele>2508.0700000000002</ele>
        <time>2020-01-09T12:55:13Z</time>
      </trkpt>
      <trkpt lat="46.248369393870234" lon="8.063348019495606">
        <ele>2507.3899999999999</ele>
        <time>2020-01-09T12:55:26Z</time>
      </trkpt>
      <trkpt lat="46.248358497396111" lon="8.063269229605794">
        <ele>2504.6700000000001</ele>
        <time>2020-01-09T12:55:38Z</time>
      </trkpt>
      <trkpt lat="46.248368807137012" lon="8.063259171321988">
        <ele>2504.8699999999999</ele>
        <time>2020-01-09T12:55:51Z</time>
      </trkpt>
      <trkpt lat="46.248337626457214" lon="8.063221033662558">
        <ele>2504.3400000000001</ele>
        <time>2020-01-09T12:56:03Z</time>
      </trkpt>
      <trkpt lat="46.248336788266897" lon="8.063228996470571">
        <ele>2504.5599999999999</ele>
        <time>2020-01-09T12:56:22Z</time>
      </trkpt>
      <trkpt lat="46.248333938419819" lon="8.063223883509636">
        <ele>2503.0799999999999</ele>
        <time>2020-01-09T12:56:27Z</time>
      </trkpt>
      <trkpt lat="46.248331088572741" lon="8.063242491334677">
        <ele>2503.6399999999999</ele>
        <time>2020-01-09T12:57:01Z</time>
      </trkpt>
      <trkpt lat="46.248334692791104" lon="8.063248274847865">
        <ele>2504.3699999999999</ele>
        <time>2020-01-09T12:57:53Z</time>
      </trkpt>
      <trkpt lat="46.248330418020487" lon="8.063245927914977">
        <ele>2505.02</ele>
        <time>2020-01-09T12:58:07Z</time>
      </trkpt>
      <trkpt lat="46.248330334201455" lon="8.063244083896279">
        <ele>2504.8000000000002</ele>
        <time>2020-01-09T12:58:28Z</time>
      </trkpt>
      <trkpt lat="46.248325137421489" lon="8.063236540183425">
        <ele>2504.7199999999998</ele>
        <time>2020-01-09T12:58:46Z</time>
      </trkpt>
      <trkpt lat="46.248297309502959" lon="8.063192702829838">
        <ele>2504.4299999999998</ele>
        <time>2020-01-09T12:59:01Z</time>
      </trkpt>
      <trkpt lat="46.248213741928339" lon="8.063062280416489">
        <ele>2502.23</ele>
        <time>2020-01-09T12:59:16Z</time>
      </trkpt>
      <trkpt lat="46.248154062777758" lon="8.062901934608817">
        <ele>2499.6999999999998</ele>
        <time>2020-01-09T12:59:31Z</time>
      </trkpt>
      <trkpt lat="46.248098323121667" lon="8.062731279060245">
        <ele>2497.3299999999999</ele>
        <time>2020-01-09T12:59:46Z</time>
      </trkpt>
      <trkpt lat="46.248039314523339" lon="8.062607394531369">
        <ele>2496.2399999999998</ele>
        <time>2020-01-09T13:00:00Z</time>
      </trkpt>
      <trkpt lat="46.247999835759401" lon="8.062544781714678">
        <ele>2495.9000000000001</ele>
        <time>2020-01-09T13:00:11Z</time>
      </trkpt>
      <trkpt lat="46.247896403074265" lon="8.062374545261264">
        <ele>2492.9200000000001</ele>
        <time>2020-01-09T13:00:30Z</time>
      </trkpt>
      <trkpt lat="46.247820295393467" lon="8.062244290485978">
        <ele>2490.5900000000001</ele>
        <time>2020-01-09T13:00:44Z</time>
      </trkpt>
      <trkpt lat="46.247745780274272" lon="8.062096266075969">
        <ele>2488.02</ele>
        <time>2020-01-09T13:00:59Z</time>
      </trkpt>
      <trkpt lat="46.247699595987797" lon="8.061988977715373">
        <ele>2486.3200000000002</ele>
        <time>2020-01-09T13:01:11Z</time>
      </trkpt>
      <trkpt lat="46.247646873816848" lon="8.061844725161791">
        <ele>2483.6599999999999</ele>
        <time>2020-01-09T13:01:26Z</time>
      </trkpt>
      <trkpt lat="46.247609406709671" lon="8.06172201409936">
        <ele>2481.1199999999999</ele>
        <time>2020-01-09T13:01:38Z</time>
      </trkpt>
      <trkpt lat="46.247550901025534" lon="8.061574157327414">
        <ele>2478.9899999999998</ele>
        <time>2020-01-09T13:01:53Z</time>
      </trkpt>
      <trkpt lat="46.247518379241228" lon="8.061467539519072">
        <ele>2476.3800000000001</ele>
        <time>2020-01-09T13:02:04Z</time>
      </trkpt>
      <trkpt lat="46.247481415048242" lon="8.061348265036941">
        <ele>2474.3899999999999</ele>
        <time>2020-01-09T13:02:17Z</time>
      </trkpt>
      <trkpt lat="46.247449815273285" lon="8.061302416026592">
        <ele>2473.25</ele>
        <time>2020-01-09T13:02:29Z</time>
      </trkpt>
      <trkpt lat="46.247450737282634" lon="8.061307277530432">
        <ele>2473.0999999999999</ele>
        <time>2020-01-09T13:02:42Z</time>
      </trkpt>
      <trkpt lat="46.247405391186476" lon="8.061236282810569">
        <ele>2472.0500000000002</ele>
        <time>2020-01-09T13:02:55Z</time>
      </trkpt>
      <trkpt lat="46.247329786419868" lon="8.061119271442294">
        <ele>2469.0100000000002</ele>
        <time>2020-01-09T13:03:08Z</time>
      </trkpt>
      <trkpt lat="46.247253762558103" lon="8.060982394963503">
        <ele>2466.0599999999999</ele>
        <time>2020-01-09T13:03:22Z</time>
      </trkpt>
      <trkpt lat="46.24719399958849" lon="8.060808386653662">
        <ele>2464.8000000000002</ele>
        <time>2020-01-09T13:03:37Z</time>
      </trkpt>
      <trkpt lat="46.247133482247591" lon="8.060673354193568">
        <ele>2463.8400000000001</ele>
        <time>2020-01-09T13:03:51Z</time>
      </trkpt>
      <trkpt lat="46.247062319889665" lon="8.060545530170202">
        <ele>2461.73</ele>
        <time>2020-01-09T13:04:05Z</time>
      </trkpt>
      <trkpt lat="46.246981183066964" lon="8.06040714494884">
        <ele>2461</ele>
        <time>2020-01-09T13:04:20Z</time>
      </trkpt>
      <trkpt lat="46.246904488652945" lon="8.060251660645008">
        <ele>2460.8000000000002</ele>
        <time>2020-01-09T13:04:36Z</time>
      </trkpt>
      <trkpt lat="46.246849168092012" lon="8.06011687964201">
        <ele>2460.3600000000001</ele>
        <time>2020-01-09T13:04:51Z</time>
      </trkpt>
      <trkpt lat="46.246839445084333" lon="8.060086704790592">
        <ele>2460.21</ele>
        <time>2020-01-09T13:04:54Z</time>
      </trkpt>
      <trkpt lat="46.246830811724067" lon="8.06005091406405">
        <ele>2460.4699999999998</ele>
        <time>2020-01-09T13:05:06Z</time>
      </trkpt>
      <trkpt lat="46.246799882501364" lon="8.059939937666059">
        <ele>2459.4499999999998</ele>
        <time>2020-01-09T13:05:17Z</time>
      </trkpt>
      <trkpt lat="46.24674984253943" lon="8.059827201068401">
        <ele>2459.1199999999999</ele>
        <time>2020-01-09T13:05:30Z</time>
      </trkpt>
      <trkpt lat="46.246734168380499" lon="8.059784872457385">
        <ele>2458.8499999999999</ele>
        <time>2020-01-09T13:05:34Z</time>
      </trkpt>
      <trkpt lat="46.246671807020903" lon="8.059612875804305">
        <ele>2458.1900000000001</ele>
        <time>2020-01-09T13:05:49Z</time>
      </trkpt>
      <trkpt lat="46.246633920818567" lon="8.059487231075764">
        <ele>2457.6500000000001</ele>
        <time>2020-01-09T13:06:02Z</time>
      </trkpt>
      <trkpt lat="46.246594106778502" lon="8.059355802834034">
        <ele>2456.4899999999998</ele>
        <time>2020-01-09T13:06:15Z</time>
      </trkpt>
      <trkpt lat="46.246575666591525" lon="8.059303918853402">
        <ele>2455.48</ele>
        <time>2020-01-09T13:06:28Z</time>
      </trkpt>
      <trkpt lat="46.246536187827587" lon="8.059119684621692">
        <ele>2454.23</ele>
        <time>2020-01-09T13:06:44Z</time>
      </trkpt>
      <trkpt lat="46.246530823409557" lon="8.059100741520524">
        <ele>2454.27</ele>
        <time>2020-01-09T13:06:46Z</time>
      </trkpt>
      <trkpt lat="46.246495619416237" lon="8.058965373784304">
        <ele>2453.4499999999998</ele>
        <time>2020-01-09T13:06:59Z</time>
      </trkpt>
      <trkpt lat="46.246461337432265" lon="8.05882497690618">
        <ele>2453.0700000000002</ele>
        <time>2020-01-09T13:07:13Z</time>
      </trkpt>
      <trkpt lat="46.24644105322659" lon="8.058745767921209">
        <ele>2452.7800000000002</ele>
        <time>2020-01-09T13:07:26Z</time>
      </trkpt>
      <trkpt lat="46.246433258056641" lon="8.058740990236402">
        <ele>2452.4200000000001</ele>
        <time>2020-01-09T13:07:41Z</time>
      </trkpt>
      <trkpt lat="46.246418757364154" lon="8.058633534237742">
        <ele>2451.3800000000001</ele>
        <time>2020-01-09T13:07:51Z</time>
      </trkpt>
      <trkpt lat="46.246383553370833" lon="8.058516858145595">
        <ele>2449.9699999999998</ele>
        <time>2020-01-09T13:08:02Z</time>
      </trkpt>
      <trkpt lat="46.246337369084358" lon="8.058387357741594">
        <ele>2448.3499999999999</ele>
        <time>2020-01-09T13:08:14Z</time>
      </trkpt>
      <trkpt lat="46.246332926675677" lon="8.058379562571645">
        <ele>2448.1300000000001</ele>
        <time>2020-01-09T13:08:15Z</time>
      </trkpt>
      <trkpt lat="46.24625681899488" lon="8.05821561254561">
        <ele>2446.5599999999999</ele>
        <time>2020-01-09T13:08:31Z</time>
      </trkpt>
      <trkpt lat="46.246207701042295" lon="8.058103378862143">
        <ele>2444.52</ele>
        <time>2020-01-09T13:08:43Z</time>
      </trkpt>
      <trkpt lat="46.246139807626605" lon="8.057949906215072">
        <ele>2441.7800000000002</ele>
        <time>2020-01-09T13:08:58Z</time>
      </trkpt>
      <trkpt lat="46.246076608076692" lon="8.057806240394712">
        <ele>2439.4200000000001</ele>
        <time>2020-01-09T13:09:12Z</time>
      </trkpt>
      <trkpt lat="46.246012905612588" lon="8.057649247348309">
        <ele>2438</ele>
        <time>2020-01-09T13:09:26Z</time>
      </trkpt>
      <trkpt lat="46.245933948084712" lon="8.057518070563674">
        <ele>2435.3099999999999</ele>
        <time>2020-01-09T13:09:40Z</time>
      </trkpt>
      <trkpt lat="46.245902515947819" lon="8.057428551837802">
        <ele>2432.2199999999998</ele>
        <time>2020-01-09T13:09:49Z</time>
      </trkpt>
      <trkpt lat="46.245885333046317" lon="8.057304499670863">
        <ele>2429.1599999999999</ele>
        <time>2020-01-09T13:10:01Z</time>
      </trkpt>
      <trkpt lat="46.245897067710757" lon="8.057184973731637">
        <ele>2425.98</ele>
        <time>2020-01-09T13:10:13Z</time>
      </trkpt>
      <trkpt lat="46.245929338037968" lon="8.057090258225799">
        <ele>2422.9699999999998</ele>
        <time>2020-01-09T13:10:23Z</time>
      </trkpt>
      <trkpt lat="46.245936462655663" lon="8.057071650400758">
        <ele>2422.4299999999998</ele>
        <time>2020-01-09T13:10:25Z</time>
      </trkpt>
      <trkpt lat="46.245951633900404" lon="8.057029908522964">
        <ele>2421.3899999999999</ele>
        <time>2020-01-09T13:10:35Z</time>
      </trkpt>
      <trkpt lat="46.245979210361838" lon="8.056976012885571">
        <ele>2419.5700000000002</ele>
        <time>2020-01-09T13:10:54Z</time>
      </trkpt>
      <trkpt lat="46.2460398953408" lon="8.05696570314467">
        <ele>2416.5599999999999</ele>
        <time>2020-01-09T13:11:05Z</time>
      </trkpt>
      <trkpt lat="46.246066382154822" lon="8.056903341785073">
        <ele>2413.7600000000002</ele>
        <time>2020-01-09T13:11:17Z</time>
      </trkpt>
      <trkpt lat="46.246068980544806" lon="8.056852547451854">
        <ele>2414.1799999999998</ele>
        <time>2020-01-09T13:11:28Z</time>
      </trkpt>
      <trkpt lat="46.2460657954216" lon="8.056716592982411">
        <ele>2413.2199999999998</ele>
        <time>2020-01-09T13:11:43Z</time>
      </trkpt>
      <trkpt lat="46.246088007465005" lon="8.056625397875905">
        <ele>2411.8899999999999</ele>
        <time>2020-01-09T13:11:56Z</time>
      </trkpt>
      <trkpt lat="46.246101753786206" lon="8.056553145870566">
        <ele>2410.0900000000001</ele>
        <time>2020-01-09T13:12:07Z</time>
      </trkpt>
      <trkpt lat="46.2461107224226" lon="8.056501010432839">
        <ele>2409.5300000000002</ele>
        <time>2020-01-09T13:12:28Z</time>
      </trkpt>
      <trkpt lat="46.246121535077691" lon="8.056370001286268">
        <ele>2407.1500000000001</ele>
        <time>2020-01-09T13:12:42Z</time>
      </trkpt>
      <trkpt lat="46.24613075517118" lon="8.056257013231516">
        <ele>2405.8699999999999</ele>
        <time>2020-01-09T13:12:54Z</time>
      </trkpt>
      <trkpt lat="46.246086582541466" lon="8.056136900559068">
        <ele>2405.6199999999999</ele>
        <time>2020-01-09T13:13:07Z</time>
      </trkpt>
      <trkpt lat="46.246066298335791" lon="8.056085016578436">
        <ele>2405.0100000000002</ele>
        <time>2020-01-09T13:13:12Z</time>
      </trkpt>
      <trkpt lat="46.246045008301735" lon="8.056044531986117">
        <ele>2404.27</ele>
        <time>2020-01-09T13:13:21Z</time>
      </trkpt>
      <trkpt lat="46.24599639326334" lon="8.055945038795471">
        <ele>2403.4099999999999</ele>
        <time>2020-01-09T13:13:35Z</time>
      </trkpt>
      <trkpt lat="46.245959848165512" lon="8.055886114016175">
        <ele>2403.02</ele>
        <time>2020-01-09T13:13:50Z</time>
      </trkpt>
      <trkpt lat="46.245883489027619" lon="8.055745549499989">
        <ele>2400.8200000000002</ele>
        <time>2020-01-09T13:14:07Z</time>
      </trkpt>
      <trkpt lat="46.245831018313766" lon="8.055660976096988">
        <ele>2399.8400000000001</ele>
        <time>2020-01-09T13:14:21Z</time>
      </trkpt>
      <trkpt lat="46.245768740773201" lon="8.055499037727714">
        <ele>2398.0799999999999</ele>
        <time>2020-01-09T13:14:37Z</time>
      </trkpt>
      <trkpt lat="46.245731525123119" lon="8.05536593310535">
        <ele>2396.6700000000001</ele>
        <time>2020-01-09T13:14:51Z</time>
      </trkpt>
      <trkpt lat="46.245690286159515" lon="8.055227380245924">
        <ele>2395.0300000000002</ele>
        <time>2020-01-09T13:15:07Z</time>
      </trkpt>
      <trkpt lat="46.245642174035311" lon="8.055052030831575">
        <ele>2393.52</ele>
        <time>2020-01-09T13:15:24Z</time>
      </trkpt>
      <trkpt lat="46.245605712756515" lon="8.054906688630581">
        <ele>2392.8499999999999</ele>
        <time>2020-01-09T13:15:39Z</time>
      </trkpt>
      <trkpt lat="46.245585428550839" lon="8.054742403328419">
        <ele>2390.6700000000001</ele>
        <time>2020-01-09T13:15:55Z</time>
      </trkpt>
      <trkpt lat="46.245572520419955" lon="8.054590271785855">
        <ele>2388.46</ele>
        <time>2020-01-09T13:16:09Z</time>
      </trkpt>
      <trkpt lat="46.245559277012944" lon="8.054428836330771">
        <ele>2386.0900000000001</ele>
        <time>2020-01-09T13:16:24Z</time>
      </trkpt>
      <trkpt lat="46.245544943958521" lon="8.054285421967506">
        <ele>2383.8499999999999</ele>
        <time>2020-01-09T13:16:37Z</time>
      </trkpt>
      <trkpt lat="46.245535053312778" lon="8.054148545488715">
        <ele>2382.29</ele>
        <time>2020-01-09T13:16:49Z</time>
      </trkpt>
      <trkpt lat="46.245526922866702" lon="8.054124740883708">
        <ele>2382.21</ele>
        <time>2020-01-09T13:17:05Z</time>
      </trkpt>
      <trkpt lat="46.245523318648338" lon="8.054135972633958">
        <ele>2382.2399999999998</ele>
        <time>2020-01-09T13:17:30Z</time>
      </trkpt>
      <trkpt lat="46.245521390810609" lon="8.054064474999905">
        <ele>2381.5700000000002</ele>
        <time>2020-01-09T13:17:48Z</time>
      </trkpt>
      <trkpt lat="46.245495658367872" lon="8.053944446146488">
        <ele>2381.8800000000001</ele>
        <time>2020-01-09T13:18:01Z</time>
      </trkpt>
      <trkpt lat="46.245448887348175" lon="8.053849982097745">
        <ele>2382.6300000000001</ele>
        <time>2020-01-09T13:18:13Z</time>
      </trkpt>
      <trkpt lat="46.245390716940165" lon="8.053760128095746">
        <ele>2383.29</ele>
        <time>2020-01-09T13:18:27Z</time>
      </trkpt>
      <trkpt lat="46.245311507955194" lon="8.053632136434317">
        <ele>2383.79</ele>
        <time>2020-01-09T13:18:44Z</time>
      </trkpt>
      <trkpt lat="46.245250990614295" lon="8.053576983511448">
        <ele>2383.9899999999998</ele>
        <time>2020-01-09T13:18:55Z</time>
      </trkpt>
      <trkpt lat="46.245185360312462" lon="8.053477741777897">
        <ele>2382.8600000000001</ele>
        <time>2020-01-09T13:19:07Z</time>
      </trkpt>
      <trkpt lat="46.245138505473733" lon="8.053403310477734">
        <ele>2381.4200000000001</ele>
        <time>2020-01-09T13:19:16Z</time>
      </trkpt>
      <trkpt lat="46.245075054466724" lon="8.053297698497772">
        <ele>2379.6100000000001</ele>
        <time>2020-01-09T13:19:29Z</time>
      </trkpt>
      <trkpt lat="46.245001712813973" lon="8.053143052384257">
        <ele>2378</ele>
        <time>2020-01-09T13:19:44Z</time>
      </trkpt>
      <trkpt lat="46.244989894330502" lon="8.052974240854383">
        <ele>2376.0999999999999</ele>
        <time>2020-01-09T13:19:59Z</time>
      </trkpt>
      <trkpt lat="46.244986290112138" lon="8.052856307476759">
        <ele>2374.7399999999998</ele>
        <time>2020-01-09T13:20:13Z</time>
      </trkpt>
      <trkpt lat="46.244966089725494" lon="8.052780032157898">
        <ele>2374.21</ele>
        <time>2020-01-09T13:20:28Z</time>
      </trkpt>
      <trkpt lat="46.244933903217316" lon="8.052693111822009">
        <ele>2374.4699999999998</ele>
        <time>2020-01-09T13:20:39Z</time>
      </trkpt>
      <trkpt lat="46.24491848051548" lon="8.052652711048722">
        <ele>2374.3899999999999</ele>
        <time>2020-01-09T13:20:50Z</time>
      </trkpt>
      <trkpt lat="46.244892328977585" lon="8.052609963342547">
        <ele>2374.54</ele>
        <time>2020-01-09T13:21:00Z</time>
      </trkpt>
      <trkpt lat="46.244884952902794" lon="8.052569730207324">
        <ele>2373.9499999999998</ele>
        <time>2020-01-09T13:21:11Z</time>
      </trkpt>
      <trkpt lat="46.244885288178921" lon="8.052532011643052">
        <ele>2373.29</ele>
        <time>2020-01-09T13:21:23Z</time>
      </trkpt>
      <trkpt lat="46.244879588484764" lon="8.052487084642053">
        <ele>2372.9400000000001</ele>
        <time>2020-01-09T13:21:38Z</time>
      </trkpt>
      <trkpt lat="46.244872799143195" lon="8.052419777959585">
        <ele>2372</ele>
        <time>2020-01-09T13:21:55Z</time>
      </trkpt>
      <trkpt lat="46.244882019236684" lon="8.052387088537216">
        <ele>2371.27</ele>
        <time>2020-01-09T13:22:07Z</time>
      </trkpt>
      <trkpt lat="46.244894843548536" lon="8.052358841523528">
        <ele>2370.5700000000002</ele>
        <time>2020-01-09T13:22:19Z</time>
      </trkpt>
      <trkpt lat="46.244888305664063" lon="8.052356326952577">
        <ele>2370.5</ele>
        <time>2020-01-09T13:22:31Z</time>
      </trkpt>
      <trkpt lat="46.244890317320824" lon="8.052318692207336">
        <ele>2370.1500000000001</ele>
        <time>2020-01-09T13:22:45Z</time>
      </trkpt>
      <trkpt lat="46.244909428060055" lon="8.052316512912512">
        <ele>2369.48</ele>
        <time>2020-01-09T13:22:57Z</time>
      </trkpt>
      <trkpt lat="46.244894089177251" lon="8.052297988906503">
        <ele>2369.6599999999999</ele>
        <time>2020-01-09T13:23:11Z</time>
      </trkpt>
      <trkpt lat="46.244923425838351" lon="8.052266221493483">
        <ele>2369.1900000000001</ele>
        <time>2020-01-09T13:23:26Z</time>
      </trkpt>
      <trkpt lat="46.244910433888435" lon="8.052203860133886">
        <ele>2367.9299999999998</ele>
        <time>2020-01-09T13:23:42Z</time>
      </trkpt>
      <trkpt lat="46.244923425838351" lon="8.0521444324404">
        <ele>2366.9200000000001</ele>
        <time>2020-01-09T13:23:57Z</time>
      </trkpt>
      <trkpt lat="46.244932478293777" lon="8.052115933969617">
        <ele>2366.3400000000001</ele>
        <time>2020-01-09T13:24:09Z</time>
      </trkpt>
      <trkpt lat="46.244945470243692" lon="8.052052399143577">
        <ele>2365.8099999999999</ele>
        <time>2020-01-09T13:24:25Z</time>
      </trkpt>
      <trkpt lat="46.244961647316813" lon="8.052019206807017">
        <ele>2364.3800000000001</ele>
        <time>2020-01-09T13:24:37Z</time>
      </trkpt>
      <trkpt lat="46.244971454143524" lon="8.051941087469459">
        <ele>2363.1199999999999</ele>
        <time>2020-01-09T13:24:50Z</time>
      </trkpt>
      <trkpt lat="46.244968269020319" lon="8.051881911233068">
        <ele>2362.73</ele>
        <time>2020-01-09T13:25:03Z</time>
      </trkpt>
      <trkpt lat="46.244976650923491" lon="8.051804713904858">
        <ele>2361.98</ele>
        <time>2020-01-09T13:25:16Z</time>
      </trkpt>
      <trkpt lat="46.244977153837681" lon="8.05176917463541">
        <ele>2361.5999999999999</ele>
        <time>2020-01-09T13:25:25Z</time>
      </trkpt>
      <trkpt lat="46.244985787197948" lon="8.051749393343926">
        <ele>2361.3400000000001</ele>
        <time>2020-01-09T13:25:37Z</time>
      </trkpt>
      <trkpt lat="46.245015542954206" lon="8.051656354218721">
        <ele>2360.8899999999999</ele>
        <time>2020-01-09T13:25:49Z</time>
      </trkpt>
      <trkpt lat="46.245040521025658" lon="8.051605559885502">
        <ele>2359.79</ele>
        <time>2020-01-09T13:26:01Z</time>
      </trkpt>
      <trkpt lat="46.245057787746191" lon="8.051512269303203">
        <ele>2359.1799999999998</ele>
        <time>2020-01-09T13:26:13Z</time>
      </trkpt>
      <trkpt lat="46.245082849636674" lon="8.051461474969983">
        <ele>2358.6399999999999</ele>
        <time>2020-01-09T13:26:19Z</time>
      </trkpt>
      <trkpt lat="46.245107743889093" lon="8.051452841609716">
        <ele>2357.8699999999999</ele>
        <time>2020-01-09T13:26:30Z</time>
      </trkpt>
      <trkpt lat="46.245127944275737" lon="8.051469270139933">
        <ele>2357.71</ele>
        <time>2020-01-09T13:26:47Z</time>
      </trkpt>
      <trkpt lat="46.24513984657824" lon="8.051456613466144">
        <ele>2357.7399999999998</ele>
        <time>2020-01-09T13:26:53Z</time>
      </trkpt>
      <trkpt lat="46.245144288986921" lon="8.051391234621406">
        <ele>2358.3499999999999</ele>
        <time>2020-01-09T13:27:03Z</time>
      </trkpt>
      <trkpt lat="46.245234813541174" lon="8.051403723657131">
        <ele>2359.0300000000002</ele>
        <time>2020-01-09T13:27:10Z</time>
      </trkpt>
      <trkpt lat="46.24529960565269" lon="8.051404980942607">
        <ele>2358.3600000000001</ele>
        <time>2020-01-09T13:27:27Z</time>
      </trkpt>
      <trkpt lat="46.245315028354526" lon="8.051402801647782">
        <ele>2358.8299999999999</ele>
        <time>2020-01-09T13:27:34Z</time>
      </trkpt>
      <trkpt lat="46.24533724039793" lon="8.051404729485512">
        <ele>2359</ele>
        <time>2020-01-09T13:27:54Z</time>
      </trkpt>
      <trkpt lat="46.245353082194924" lon="8.051374470815063">
        <ele>2359.1900000000001</ele>
        <time>2020-01-09T13:28:12Z</time>
      </trkpt>
      <trkpt lat="46.245376719161868" lon="8.051264332607389">
        <ele>2359.77</ele>
        <time>2020-01-09T13:28:23Z</time>
      </trkpt>
      <trkpt lat="46.245390884578228" lon="8.051154529675841">
        <ele>2360.3699999999999</ele>
        <time>2020-01-09T13:28:34Z</time>
      </trkpt>
      <trkpt lat="46.245405720546842" lon="8.051038105040789">
        <ele>2360.8499999999999</ele>
        <time>2020-01-09T13:28:46Z</time>
      </trkpt>
      <trkpt lat="46.245413767173886" lon="8.050926709547639">
        <ele>2362.04</ele>
        <time>2020-01-09T13:28:59Z</time>
      </trkpt>
      <trkpt lat="46.245432291179895" lon="8.050782540813088">
        <ele>2363.77</ele>
        <time>2020-01-09T13:29:16Z</time>
      </trkpt>
      <trkpt lat="46.245449390262365" lon="8.050700062885881">
        <ele>2364.27</ele>
        <time>2020-01-09T13:29:27Z</time>
      </trkpt>
      <trkpt lat="46.245473446324468" lon="8.050607526674867">
        <ele>2364.46</ele>
        <time>2020-01-09T13:29:36Z</time>
      </trkpt>
      <trkpt lat="46.245496664196253" lon="8.050527730956674">
        <ele>2364.5999999999999</ele>
        <time>2020-01-09T13:29:45Z</time>
      </trkpt>
      <trkpt lat="46.245517786592245" lon="8.050485150888562">
        <ele>2364.3200000000002</ele>
        <time>2020-01-09T13:29:56Z</time>
      </trkpt>
      <trkpt lat="46.24551510438323" lon="8.050491353496909">
        <ele>2364.5599999999999</ele>
        <time>2020-01-09T13:30:18Z</time>
      </trkpt>
      <trkpt lat="46.245515858754516" lon="8.050508787855506">
        <ele>2364.3600000000001</ele>
        <time>2020-01-09T13:30:46Z</time>
      </trkpt>
      <trkpt lat="46.245501441881061" lon="8.050511553883553">
        <ele>2363.6300000000001</ele>
        <time>2020-01-09T13:30:56Z</time>
      </trkpt>
      <trkpt lat="46.24549113214016" lon="8.050496634095907">
        <ele>2363.1900000000001</ele>
        <time>2020-01-09T13:31:21Z</time>
      </trkpt>
      <trkpt lat="46.245500855147839" lon="8.050488503649831">
        <ele>2364.0799999999999</ele>
        <time>2020-01-09T13:31:35Z</time>
      </trkpt>
      <trkpt lat="46.245499346405268" lon="8.050500825047493">
        <ele>2363.6900000000001</ele>
        <time>2020-01-09T13:31:51Z</time>
      </trkpt>
      <trkpt lat="46.245482331141829" lon="8.050504429265857">
        <ele>2365.1700000000001</ele>
        <time>2020-01-09T13:32:07Z</time>
      </trkpt>
      <trkpt lat="46.245492557063699" lon="8.050494873896241">
        <ele>2363.48</ele>
        <time>2020-01-09T13:32:16Z</time>
      </trkpt>
      <trkpt lat="46.245489455759525" lon="8.050506776198745">
        <ele>2363.6500000000001</ele>
        <time>2020-01-09T13:32:45Z</time>
      </trkpt>
      <trkpt lat="46.245506722480059" lon="8.050504010170698">
        <ele>2363.71</ele>
        <time>2020-01-09T13:33:14Z</time>
      </trkpt>
      <trkpt lat="46.245500268414617" lon="8.050520354881883">
        <ele>2364.5799999999999</ele>
        <time>2020-01-09T13:33:42Z</time>
      </trkpt>
      <trkpt lat="46.245491970330477" lon="8.050517085939646">
        <ele>2364.6799999999998</ele>
        <time>2020-01-09T13:33:56Z</time>
      </trkpt>
      <trkpt lat="46.245501274242997" lon="8.05050409398973">
        <ele>2364.5999999999999</ele>
        <time>2020-01-09T13:34:09Z</time>
      </trkpt>
      <trkpt lat="46.245507225394249" lon="8.050492778420448">
        <ele>2364.6700000000001</ele>
        <time>2020-01-09T13:34:10Z</time>
      </trkpt>
      <trkpt lat="46.245552571490407" lon="8.050359003245831">
        <ele>2364.4299999999998</ele>
        <time>2020-01-09T13:34:22Z</time>
      </trkpt>
      <trkpt lat="46.245573777705431" lon="8.050318602472544">
        <ele>2364.3800000000001</ele>
        <time>2020-01-09T13:34:34Z</time>
      </trkpt>
      <trkpt lat="46.245574448257685" lon="8.050312986597419">
        <ele>2364.2800000000002</ele>
        <time>2020-01-09T13:34:51Z</time>
      </trkpt>
      <trkpt lat="46.24559179879725" lon="8.050208212807775">
        <ele>2364.46</ele>
        <time>2020-01-09T13:35:05Z</time>
      </trkpt>
      <trkpt lat="46.245594648644328" lon="8.050184743478894">
        <ele>2364.6300000000001</ele>
        <time>2020-01-09T13:35:07Z</time>
      </trkpt>
      <trkpt lat="46.245609987527132" lon="8.050039485096932">
        <ele>2364.5</ele>
        <time>2020-01-09T13:35:21Z</time>
      </trkpt>
      <trkpt lat="46.24557226896286" lon="8.049948792904615">
        <ele>2365.8099999999999</ele>
        <time>2020-01-09T13:35:33Z</time>
      </trkpt>
      <trkpt lat="46.245517283678055" lon="8.04983857087791">
        <ele>2367.0500000000002</ele>
        <time>2020-01-09T13:35:48Z</time>
      </trkpt>
      <trkpt lat="46.245462046936154" lon="8.049737233668566">
        <ele>2368.3099999999999</ele>
        <time>2020-01-09T13:36:04Z</time>
      </trkpt>
      <trkpt lat="46.245424579828978" lon="8.049626257270575">
        <ele>2368.9499999999998</ele>
        <time>2020-01-09T13:36:17Z</time>
      </trkpt>
      <trkpt lat="46.245394572615623" lon="8.049516202881932">
        <ele>2369.79</ele>
        <time>2020-01-09T13:36:29Z</time>
      </trkpt>
      <trkpt lat="46.245365403592587" lon="8.049346636980772">
        <ele>2369.52</ele>
        <time>2020-01-09T13:36:44Z</time>
      </trkpt>
      <trkpt lat="46.245304634794593" lon="8.049212191253901">
        <ele>2367.9499999999998</ele>
        <time>2020-01-09T13:36:57Z</time>
      </trkpt>
      <trkpt lat="46.245296252891421" lon="8.049189141020179">
        <ele>2367.4400000000001</ele>
        <time>2020-01-09T13:36:59Z</time>
      </trkpt>
      <trkpt lat="46.245270352810621" lon="8.049011277034879">
        <ele>2366.4699999999998</ele>
        <time>2020-01-09T13:37:15Z</time>
      </trkpt>
      <trkpt lat="46.245290720835328" lon="8.048897534608841">
        <ele>2365.1799999999998</ele>
        <time>2020-01-09T13:37:27Z</time>
      </trkpt>
      <trkpt lat="46.245285691693425" lon="8.048801142722368">
        <ele>2364.3499999999999</ele>
        <time>2020-01-09T13:37:40Z</time>
      </trkpt>
      <trkpt lat="46.245271526277065" lon="8.048805082216859">
        <ele>2363.1900000000001</ele>
        <time>2020-01-09T13:37:57Z</time>
      </trkpt>
      <trkpt lat="46.245276471599936" lon="8.04879586212337">
        <ele>2364.0999999999999</ele>
        <time>2020-01-09T13:38:12Z</time>
      </trkpt>
      <trkpt lat="46.245278902351856" lon="8.048717826604843">
        <ele>2363.54</ele>
        <time>2020-01-09T13:38:26Z</time>
      </trkpt>
      <trkpt lat="46.245273957028985" lon="8.04858966730535">
        <ele>2362.0999999999999</ele>
        <time>2020-01-09T13:38:39Z</time>
      </trkpt>
      <trkpt lat="46.245287619531155" lon="8.048497969284654">
        <ele>2360.1999999999998</ele>
        <time>2020-01-09T13:38:51Z</time>
      </trkpt>
      <trkpt lat="46.245307819917798" lon="8.048432422801852">
        <ele>2358.3099999999999</ele>
        <time>2020-01-09T13:39:02Z</time>
      </trkpt>
      <trkpt lat="46.245321650058031" lon="8.048380622640252">
        <ele>2356.8600000000001</ele>
        <time>2020-01-09T13:39:18Z</time>
      </trkpt>
      <trkpt lat="46.24534310773015" lon="8.048338126391172">
        <ele>2354.71</ele>
        <time>2020-01-09T13:39:39Z</time>
      </trkpt>
      <trkpt lat="46.245385436341166" lon="8.048268472775817">
        <ele>2351.5599999999999</ele>
        <time>2020-01-09T13:39:50Z</time>
      </trkpt>
      <trkpt lat="46.245444612577558" lon="8.048214074224234">
        <ele>2348.4499999999998</ele>
        <time>2020-01-09T13:40:00Z</time>
      </trkpt>
      <trkpt lat="46.245513092726469" lon="8.04816110059619">
        <ele>2345.5999999999999</ele>
        <time>2020-01-09T13:40:11Z</time>
      </trkpt>
      <trkpt lat="46.245561707764864" lon="8.048099158331752">
        <ele>2342.1700000000001</ele>
        <time>2020-01-09T13:40:20Z</time>
      </trkpt>
      <trkpt lat="46.245591631159186" lon="8.048069989308715">
        <ele>2340.0100000000002</ele>
        <time>2020-01-09T13:40:26Z</time>
      </trkpt>
      <trkpt lat="46.245631445199251" lon="8.048059679567814">
        <ele>2338.4899999999998</ele>
        <time>2020-01-09T13:40:30Z</time>
      </trkpt>
      <trkpt lat="46.245658854022622" lon="8.047967562451959">
        <ele>2336.4000000000001</ele>
        <time>2020-01-09T13:40:40Z</time>
      </trkpt>
      <trkpt lat="46.245718952268362" lon="8.047875529155135">
        <ele>2333.0599999999999</ele>
        <time>2020-01-09T13:40:53Z</time>
      </trkpt>
      <trkpt lat="46.245748959481716" lon="8.04781417362392">
        <ele>2329.9699999999998</ele>
        <time>2020-01-09T13:41:02Z</time>
      </trkpt>
      <trkpt lat="46.245757089927793" lon="8.047673022374511">
        <ele>2326.8499999999999</ele>
        <time>2020-01-09T13:41:14Z</time>
      </trkpt>
      <trkpt lat="46.245815763249993" lon="8.047649217769504">
        <ele>2324.1799999999998</ele>
        <time>2020-01-09T13:41:23Z</time>
      </trkpt>
      <trkpt lat="46.245905868709087" lon="8.047617198899388">
        <ele>2320.5900000000001</ele>
        <time>2020-01-09T13:41:33Z</time>
      </trkpt>
      <trkpt lat="46.246003266423941" lon="8.047578055411577">
        <ele>2317.2199999999998</ele>
        <time>2020-01-09T13:41:44Z</time>
      </trkpt>
      <trkpt lat="46.246051713824272" lon="8.047525249421597">
        <ele>2314.1199999999999</ele>
        <time>2020-01-09T13:41:52Z</time>
      </trkpt>
      <trkpt lat="46.246089432388544" lon="8.047492392361164">
        <ele>2311.5900000000001</ele>
        <time>2020-01-09T13:41:58Z</time>
      </trkpt>
      <trkpt lat="46.246147686615586" lon="8.047446794807911">
        <ele>2308.5300000000002</ele>
        <time>2020-01-09T13:42:06Z</time>
      </trkpt>
      <trkpt lat="46.24617769382894" lon="8.047377644106746">
        <ele>2305.4499999999998</ele>
        <time>2020-01-09T13:42:14Z</time>
      </trkpt>
      <trkpt lat="46.246185321360826" lon="8.047355599701405">
        <ele>2304.6399999999999</ele>
        <time>2020-01-09T13:42:16Z</time>
      </trkpt>
      <trkpt lat="46.246191021054983" lon="8.047313438728452">
        <ele>2302.75</ele>
        <time>2020-01-09T13:42:31Z</time>
      </trkpt>
      <trkpt lat="46.246209209784865" lon="8.047209167852998">
        <ele>2299.6900000000001</ele>
        <time>2020-01-09T13:42:43Z</time>
      </trkpt>
      <trkpt lat="46.246211640536785" lon="8.047114871442318">
        <ele>2296.6199999999999</ele>
        <time>2020-01-09T13:42:51Z</time>
      </trkpt>
      <trkpt lat="46.246227649971843" lon="8.047046139836311">
        <ele>2294.3499999999999</ele>
        <time>2020-01-09T13:42:57Z</time>
      </trkpt>
      <trkpt lat="46.246236534789205" lon="8.046968607231975">
        <ele>2291.3299999999999</ele>
        <time>2020-01-09T13:43:04Z</time>
      </trkpt>
      <trkpt lat="46.246252628043294" lon="8.04686039686203">
        <ele>2288.3499999999999</ele>
        <time>2020-01-09T13:43:14Z</time>
      </trkpt>
      <trkpt lat="46.2462661229074" lon="8.046733159571886">
        <ele>2285.1399999999999</ele>
        <time>2020-01-09T13:43:26Z</time>
      </trkpt>
      <trkpt lat="46.246274840086699" lon="8.046642132103443">
        <ele>2283.1999999999998</ele>
        <time>2020-01-09T13:43:38Z</time>
      </trkpt>
      <trkpt lat="46.246271068230271" lon="8.046626038849354">
        <ele>2283.1300000000001</ele>
        <time>2020-01-09T13:43:47Z</time>
      </trkpt>
      <trkpt lat="46.246257992461324" lon="8.04654817096889">
        <ele>2281.23</ele>
        <time>2020-01-09T13:43:59Z</time>
      </trkpt>
      <trkpt lat="46.246236367151141" lon="8.04647097364068">
        <ele>2279.0599999999999</ele>
        <time>2020-01-09T13:44:12Z</time>
      </trkpt>
      <trkpt lat="46.246213149279356" lon="8.046382963657379">
        <ele>2276.7399999999998</ele>
        <time>2020-01-09T13:44:24Z</time>
      </trkpt>
      <trkpt lat="46.24628322198987" lon="8.04635320790112">
        <ele>2273.7199999999998</ele>
        <time>2020-01-09T13:44:35Z</time>
      </trkpt>
      <trkpt lat="46.246290011331439" lon="8.046328816562891">
        <ele>2272.4899999999998</ele>
        <time>2020-01-09T13:44:46Z</time>
      </trkpt>
      <trkpt lat="46.246289173141122" lon="8.046295791864395">
        <ele>2271</ele>
        <time>2020-01-09T13:44:55Z</time>
      </trkpt>
      <trkpt lat="46.246297638863325" lon="8.046245919540525">
        <ele>2268.48</ele>
        <time>2020-01-09T13:45:00Z</time>
      </trkpt>
      <trkpt lat="46.246299482882023" lon="8.046207530423999">
        <ele>2266.5300000000002</ele>
        <time>2020-01-09T13:45:11Z</time>
      </trkpt>
      <trkpt lat="46.24629395082593" lon="8.046141481027007">
        <ele>2265.1199999999999</ele>
        <time>2020-01-09T13:45:24Z</time>
      </trkpt>
      <trkpt lat="46.246327729895711" lon="8.046053135767579">
        <ele>2262.1599999999999</ele>
        <time>2020-01-09T13:45:38Z</time>
      </trkpt>
      <trkpt lat="46.246357653290033" lon="8.045971998944879">
        <ele>2259</ele>
        <time>2020-01-09T13:45:47Z</time>
      </trkpt>
      <trkpt lat="46.24635404907167" lon="8.045870745554566">
        <ele>2257.1300000000001</ele>
        <time>2020-01-09T13:46:00Z</time>
      </trkpt>
      <trkpt lat="46.24635161831975" lon="8.045861274003983">
        <ele>2257.25</ele>
        <time>2020-01-09T13:46:01Z</time>
      </trkpt>
      <trkpt lat="46.24636285007" lon="8.045697659254074">
        <ele>2253.9699999999998</ele>
        <time>2020-01-09T13:46:16Z</time>
      </trkpt>
      <trkpt lat="46.246382966637611" lon="8.045557849109173">
        <ele>2250.9200000000001</ele>
        <time>2020-01-09T13:46:27Z</time>
      </trkpt>
      <trkpt lat="46.246412554755807" lon="8.0454062204808">
        <ele>2248.5300000000002</ele>
        <time>2020-01-09T13:46:40Z</time>
      </trkpt>
      <trkpt lat="46.246423199772835" lon="8.045279067009687">
        <ele>2245.54</ele>
        <time>2020-01-09T13:46:51Z</time>
      </trkpt>
      <trkpt lat="46.246458739042282" lon="8.045172784477472">
        <ele>2242.54</ele>
        <time>2020-01-09T13:47:01Z</time>
      </trkpt>
      <trkpt lat="46.24645714648068" lon="8.045145040377975">
        <ele>2242.0900000000001</ele>
        <time>2020-01-09T13:47:03Z</time>
      </trkpt>
      <trkpt lat="46.246494948863983" lon="8.045015791431069">
        <ele>2239.0599999999999</ele>
        <time>2020-01-09T13:47:16Z</time>
      </trkpt>
      <trkpt lat="46.246490674093366" lon="8.045004643499851">
        <ele>2238.98</ele>
        <time>2020-01-09T13:47:20Z</time>
      </trkpt>
      <trkpt lat="46.246483633294702" lon="8.044960387051106">
        <ele>2238.8000000000002</ele>
        <time>2020-01-09T13:47:23Z</time>
      </trkpt>
      <trkpt lat="46.246476592496037" lon="8.044721838086844">
        <ele>2236.5100000000002</ele>
        <time>2020-01-09T13:47:39Z</time>
      </trkpt>
      <trkpt lat="46.246509784832597" lon="8.044519750401378">
        <ele>2233.5900000000001</ele>
        <time>2020-01-09T13:47:53Z</time>
      </trkpt>
      <trkpt lat="46.246532164514065" lon="8.044311543926597">
        <ele>2230.9899999999998</ele>
        <time>2020-01-09T13:48:08Z</time>
      </trkpt>
      <trkpt lat="46.246562171727419" lon="8.044129991903901">
        <ele>2229.3000000000002</ele>
        <time>2020-01-09T13:48:21Z</time>
      </trkpt>
      <trkpt lat="46.246565943583846" lon="8.044104930013418">
        <ele>2228.8600000000001</ele>
        <time>2020-01-09T13:48:23Z</time>
      </trkpt>
      <trkpt lat="46.246584467589855" lon="8.043890437111259">
        <ele>2225.7399999999998</ele>
        <time>2020-01-09T13:48:38Z</time>
      </trkpt>
      <trkpt lat="46.246575498953462" lon="8.043699497357011">
        <ele>2223.5999999999999</ele>
        <time>2020-01-09T13:48:51Z</time>
      </trkpt>
      <trkpt lat="46.246572732925415" lon="8.0436378903687">
        <ele>2222.3299999999999</ele>
        <time>2020-01-09T13:49:02Z</time>
      </trkpt>
      <trkpt lat="46.246565524488688" lon="8.043634286150336">
        <ele>2222.3000000000002</ele>
        <time>2020-01-09T13:49:23Z</time>
      </trkpt>
      <trkpt lat="46.246584551408887" lon="8.043554071336985">
        <ele>2220.75</ele>
        <time>2020-01-09T13:49:33Z</time>
      </trkpt>
      <trkpt lat="46.246616737917066" lon="8.043514089658856">
        <ele>2218.6300000000001</ele>
        <time>2020-01-09T13:49:45Z</time>
      </trkpt>
      <trkpt lat="46.246620258316398" lon="8.043446699157357">
        <ele>2217.4000000000001</ele>
        <time>2020-01-09T13:49:57Z</time>
      </trkpt>
      <trkpt lat="46.246619252488017" lon="8.043416608124971">
        <ele>2216.1599999999999</ele>
        <time>2020-01-09T13:50:00Z</time>
      </trkpt>
      <trkpt lat="46.246615815907717" lon="8.043361874297261">
        <ele>2213.9699999999998</ele>
        <time>2020-01-09T13:50:06Z</time>
      </trkpt>
      <trkpt lat="46.246623694896698" lon="8.043274870142341">
        <ele>2211.8600000000001</ele>
        <time>2020-01-09T13:50:20Z</time>
      </trkpt>
      <trkpt lat="46.246618833392859" lon="8.043186441063881">
        <ele>2209.9499999999998</ele>
        <time>2020-01-09T13:50:33Z</time>
      </trkpt>
      <trkpt lat="46.246606176719069" lon="8.0430818349123">
        <ele>2206.9299999999998</ele>
        <time>2020-01-09T13:50:42Z</time>
      </trkpt>
      <trkpt lat="46.246588993817568" lon="8.042963147163391">
        <ele>2203.8000000000002</ele>
        <time>2020-01-09T13:50:53Z</time>
      </trkpt>
      <trkpt lat="46.24658077955246" lon="8.042861055582762">
        <ele>2200.75</ele>
        <time>2020-01-09T13:51:02Z</time>
      </trkpt>
      <trkpt lat="46.246572565287352" lon="8.042736332863569">
        <ele>2197.6700000000001</ele>
        <time>2020-01-09T13:51:12Z</time>
      </trkpt>
      <trkpt lat="46.246545240283012" lon="8.0425707064569">
        <ele>2194.8800000000001</ele>
        <time>2020-01-09T13:51:25Z</time>
      </trkpt>
      <trkpt lat="46.246565775945783" lon="8.042449252679944">
        <ele>2191.4099999999999</ele>
        <time>2020-01-09T13:51:35Z</time>
      </trkpt>
      <trkpt lat="46.24658471904695" lon="8.042323607951403">
        <ele>2188.3899999999999</ele>
        <time>2020-01-09T13:51:45Z</time>
      </trkpt>
      <trkpt lat="46.246621096506715" lon="8.042189162224531">
        <ele>2185.2199999999998</ele>
        <time>2020-01-09T13:51:57Z</time>
      </trkpt>
      <trkpt lat="46.246637273579836" lon="8.04203225299716">
        <ele>2182.0799999999999</ele>
        <time>2020-01-09T13:52:09Z</time>
      </trkpt>
      <trkpt lat="46.246632831171155" lon="8.041849862784147">
        <ele>2179.2800000000002</ele>
        <time>2020-01-09T13:52:23Z</time>
      </trkpt>
      <trkpt lat="46.246635429561138" lon="8.041678704321384">
        <ele>2176.6700000000001</ele>
        <time>2020-01-09T13:52:37Z</time>
      </trkpt>
      <trkpt lat="46.246615396812558" lon="8.041494889184833">
        <ele>2176.1199999999999</ele>
        <time>2020-01-09T13:52:52Z</time>
      </trkpt>
      <trkpt lat="46.246591843664646" lon="8.041333118453622">
        <ele>2175.3699999999999</ele>
        <time>2020-01-09T13:53:06Z</time>
      </trkpt>
      <trkpt lat="46.246586730703712" lon="8.04122943431139">
        <ele>2174.5900000000001</ele>
        <time>2020-01-09T13:53:19Z</time>
      </trkpt>
      <trkpt lat="46.246598465368152" lon="8.041029358282685">
        <ele>2173.3099999999999</ele>
        <time>2020-01-09T13:53:33Z</time>
      </trkpt>
      <trkpt lat="46.246607769280672" lon="8.040819056332111">
        <ele>2172.54</ele>
        <time>2020-01-09T13:53:46Z</time>
      </trkpt>
      <trkpt lat="46.246633753180504" lon="8.040590398013592">
        <ele>2172.3699999999999</ele>
        <time>2020-01-09T13:54:00Z</time>
      </trkpt>
      <trkpt lat="46.246668118983507" lon="8.040324356406927">
        <ele>2172.04</ele>
        <time>2020-01-09T13:54:16Z</time>
      </trkpt>
      <trkpt lat="46.24672687612474" lon="8.040091171860695">
        <ele>2171.0799999999999</ele>
        <time>2020-01-09T13:54:31Z</time>
      </trkpt>
      <trkpt lat="46.246797200292349" lon="8.039956977590919">
        <ele>2167.9899999999998</ele>
        <time>2020-01-09T13:54:41Z</time>
      </trkpt>
      <trkpt lat="46.246869117021561" lon="8.039859496057034">
        <ele>2164.5900000000001</ele>
        <time>2020-01-09T13:54:51Z</time>
      </trkpt>
      <trkpt lat="46.246897950768471" lon="8.039800738915801">
        <ele>2162.9200000000001</ele>
        <time>2020-01-09T13:54:55Z</time>
      </trkpt>
      <trkpt lat="46.246962072327733" lon="8.039624886587262">
        <ele>2159.77</ele>
        <time>2020-01-09T13:55:06Z</time>
      </trkpt>
      <trkpt lat="46.24699710868299" lon="8.039473090320826">
        <ele>2156.7399999999998</ele>
        <time>2020-01-09T13:55:15Z</time>
      </trkpt>
      <trkpt lat="46.24705670401454" lon="8.039258513599634">
        <ele>2153.4000000000001</ele>
        <time>2020-01-09T13:55:28Z</time>
      </trkpt>
      <trkpt lat="46.247108923271298" lon="8.039140831679106">
        <ele>2149.96</ele>
        <time>2020-01-09T13:55:36Z</time>
      </trkpt>
      <trkpt lat="46.247170027345419" lon="8.038986269384623">
        <ele>2146.75</ele>
        <time>2020-01-09T13:55:46Z</time>
      </trkpt>
      <trkpt lat="46.247221911326051" lon="8.038845034316182">
        <ele>2143.6599999999999</ele>
        <time>2020-01-09T13:55:56Z</time>
      </trkpt>
      <trkpt lat="46.247232891619205" lon="8.038761047646403">
        <ele>2141.6500000000001</ele>
        <time>2020-01-09T13:56:02Z</time>
      </trkpt>
      <trkpt lat="46.247243620455265" lon="8.038610341027379">
        <ele>2138.0700000000002</ele>
        <time>2020-01-09T13:56:12Z</time>
      </trkpt>
      <trkpt lat="46.24726977199316" lon="8.03849408403039">
        <ele>2134.8400000000001</ele>
        <time>2020-01-09T13:56:20Z</time>
      </trkpt>
      <trkpt lat="46.247270945459604" lon="8.038395093753934">
        <ele>2131.77</ele>
        <time>2020-01-09T13:56:29Z</time>
      </trkpt>
      <trkpt lat="46.24728050082922" lon="8.038309849798679">
        <ele>2128.48</ele>
        <time>2020-01-09T13:56:37Z</time>
      </trkpt>
      <trkpt lat="46.247278908267617" lon="8.038299456238747">
        <ele>2128.2399999999998</ele>
        <time>2020-01-09T13:56:38Z</time>
      </trkpt>
      <trkpt lat="46.247264239937067" lon="8.038235753774643">
        <ele>2125.8499999999999</ele>
        <time>2020-01-09T13:56:44Z</time>
      </trkpt>
      <trkpt lat="46.247237166389823" lon="8.038168530911207">
        <ele>2122.75</ele>
        <time>2020-01-09T13:56:51Z</time>
      </trkpt>
      <trkpt lat="46.247247392311692" lon="8.038060907274485">
        <ele>2119.4499999999998</ele>
        <time>2020-01-09T13:56:59Z</time>
      </trkpt>
      <trkpt lat="46.247234065085649" lon="8.037900310009718">
        <ele>2116</ele>
        <time>2020-01-09T13:57:09Z</time>
      </trkpt>
      <trkpt lat="46.24721989966929" lon="8.037750106304884">
        <ele>2112.77</ele>
        <time>2020-01-09T13:57:19Z</time>
      </trkpt>
      <trkpt lat="46.247214954346418" lon="8.037617756053805">
        <ele>2109.6700000000001</ele>
        <time>2020-01-09T13:57:29Z</time>
      </trkpt>
      <trkpt lat="46.24721746891737" lon="8.037450117990375">
        <ele>2106.4400000000001</ele>
        <time>2020-01-09T13:57:40Z</time>
      </trkpt>
      <trkpt lat="46.247201124206185" lon="8.03732774220407">
        <ele>2103.2600000000002</ele>
        <time>2020-01-09T13:57:48Z</time>
      </trkpt>
      <trkpt lat="46.247198190540075" lon="8.037295555695891">
        <ele>2102.52</ele>
        <time>2020-01-09T13:57:50Z</time>
      </trkpt>
      <trkpt lat="46.247192490845919" lon="8.037248365581036">
        <ele>2101.75</ele>
        <time>2020-01-09T13:57:53Z</time>
      </trkpt>
      <trkpt lat="46.247141109779477" lon="8.037111656740308">
        <ele>2098.3499999999999</ele>
        <time>2020-01-09T13:58:03Z</time>
      </trkpt>
      <trkpt lat="46.247119568288326" lon="8.036963297054172">
        <ele>2095.1399999999999</ele>
        <time>2020-01-09T13:58:13Z</time>
      </trkpt>
      <trkpt lat="46.24710070900619" lon="8.03683128207922">
        <ele>2091.98</ele>
        <time>2020-01-09T13:58:23Z</time>
      </trkpt>
      <trkpt lat="46.247088639065623" lon="8.036718377843499">
        <ele>2088.9299999999998</ele>
        <time>2020-01-09T13:58:32Z</time>
      </trkpt>
      <trkpt lat="46.247077658772469" lon="8.036596421152353">
        <ele>2085.6900000000001</ele>
        <time>2020-01-09T13:58:42Z</time>
      </trkpt>
      <trkpt lat="46.247071037068963" lon="8.036474464461207">
        <ele>2082.4200000000001</ele>
        <time>2020-01-09T13:58:51Z</time>
      </trkpt>
      <trkpt lat="46.247073300182819" lon="8.036355022341013">
        <ele>2079.4000000000001</ele>
        <time>2020-01-09T13:59:01Z</time>
      </trkpt>
      <trkpt lat="46.247067013755441" lon="8.036275897175074">
        <ele>2077.3600000000001</ele>
        <time>2020-01-09T13:59:08Z</time>
      </trkpt>
      <trkpt lat="46.247069612145424" lon="8.036233903840184">
        <ele>2076.7199999999998</ele>
        <time>2020-01-09T13:59:11Z</time>
      </trkpt>
      <trkpt lat="46.247050166130066" lon="8.036020835861564">
        <ele>2073.7800000000002</ele>
        <time>2020-01-09T13:59:26Z</time>
      </trkpt>
      <trkpt lat="46.247044131159782" lon="8.035992169752717">
        <ele>2073.0300000000002</ele>
        <time>2020-01-09T13:59:30Z</time>
      </trkpt>
      <trkpt lat="46.24703373759985" lon="8.035736102610827">
        <ele>2069.6700000000001</ele>
        <time>2020-01-09T13:59:46Z</time>
      </trkpt>
      <trkpt lat="46.247051926329732" lon="8.03556083701551">
        <ele>2066.3200000000002</ele>
        <time>2020-01-09T13:59:57Z</time>
      </trkpt>
      <trkpt lat="46.247065588831902" lon="8.035392947494984">
        <ele>2063.0300000000002</ele>
        <time>2020-01-09T14:00:08Z</time>
      </trkpt>
      <trkpt lat="46.247060811147094" lon="8.03516311571002">
        <ele>2060.3099999999999</ele>
        <time>2020-01-09T14:00:23Z</time>
      </trkpt>
      <trkpt lat="46.247039856389165" lon="8.034960525110364">
        <ele>2057.2600000000002</ele>
        <time>2020-01-09T14:00:36Z</time>
      </trkpt>
      <trkpt lat="46.247036838904023" lon="8.034758856520057">
        <ele>2056.04</ele>
        <time>2020-01-09T14:00:49Z</time>
      </trkpt>
      <trkpt lat="46.247013285756111" lon="8.034557439386845">
        <ele>2055.0300000000002</ele>
        <time>2020-01-09T14:01:04Z</time>
      </trkpt>
      <trkpt lat="46.247012196108699" lon="8.03454696200788">
        <ele>2054.8600000000001</ele>
        <time>2020-01-09T14:01:07Z</time>
      </trkpt>
      <trkpt lat="46.246958300471306" lon="8.034321572631598">
        <ele>2054.1799999999998</ele>
        <time>2020-01-09T14:01:22Z</time>
      </trkpt>
      <trkpt lat="46.246907589957118" lon="8.034119317308068">
        <ele>2051.3000000000002</ele>
        <time>2020-01-09T14:01:35Z</time>
      </trkpt>
      <trkpt lat="46.246868195012212" lon="8.033878840506077">
        <ele>2049.25</ele>
        <time>2020-01-09T14:01:50Z</time>
      </trkpt>
      <trkpt lat="46.246835924685001" lon="8.033601902425289">
        <ele>2046.73</ele>
        <time>2020-01-09T14:02:07Z</time>
      </trkpt>
      <trkpt lat="46.246836762875319" lon="8.033440802246332">
        <ele>2045.8</ele>
        <time>2020-01-09T14:02:21Z</time>
      </trkpt>
      <trkpt lat="46.246837349608541" lon="8.033430241048336">
        <ele>2045.6600000000001</ele>
        <time>2020-01-09T14:02:31Z</time>
      </trkpt>
      <trkpt lat="46.246864087879658" lon="8.033363185822964">
        <ele>2044.6400000000001</ele>
        <time>2020-01-09T14:02:36Z</time>
      </trkpt>
      <trkpt lat="46.246929969638586" lon="8.033165037631989">
        <ele>2041.55</ele>
        <time>2020-01-09T14:02:49Z</time>
      </trkpt>
      <trkpt lat="46.246967688202858" lon="8.032933948561549">
        <ele>2040.26</ele>
        <time>2020-01-09T14:03:04Z</time>
      </trkpt>
      <trkpt lat="46.246973471716046" lon="8.032716102898121">
        <ele>2039.4400000000001</ele>
        <time>2020-01-09T14:03:18Z</time>
      </trkpt>
      <trkpt lat="46.24696877785027" lon="8.032538155093789">
        <ele>2036.4200000000001</ele>
        <time>2020-01-09T14:03:29Z</time>
      </trkpt>
      <trkpt lat="46.246956875547767" lon="8.032404044643045">
        <ele>2033.27</ele>
        <time>2020-01-09T14:03:37Z</time>
      </trkpt>
      <trkpt lat="46.246945559978485" lon="8.032201202586293">
        <ele>2030.1300000000001</ele>
        <time>2020-01-09T14:03:49Z</time>
      </trkpt>
      <trkpt lat="46.246943213045597" lon="8.03192543797195">
        <ele>2028.4200000000001</ele>
        <time>2020-01-09T14:04:05Z</time>
      </trkpt>
      <trkpt lat="46.246931981295347" lon="8.031707005575299">
        <ele>2028.45</ele>
        <time>2020-01-09T14:04:19Z</time>
      </trkpt>
      <trkpt lat="46.246919827535748" lon="8.031567446887493">
        <ele>2025.01</ele>
        <time>2020-01-09T14:04:28Z</time>
      </trkpt>
      <trkpt lat="46.246913457289338" lon="8.031431157141924">
        <ele>2021.8399999999999</ele>
        <time>2020-01-09T14:04:37Z</time>
      </trkpt>
      <trkpt lat="46.246906835585833" lon="8.031331580132246">
        <ele>2019.76</ele>
        <time>2020-01-09T14:04:43Z</time>
      </trkpt>
      <trkpt lat="46.246887724846601" lon="8.031077021732926">
        <ele>2018.1800000000001</ele>
        <time>2020-01-09T14:04:58Z</time>
      </trkpt>
      <trkpt lat="46.246871799230576" lon="8.030827660113573">
        <ele>2016.3499999999999</ele>
        <time>2020-01-09T14:05:13Z</time>
      </trkpt>
      <trkpt lat="46.246867524459958" lon="8.030602689832449">
        <ele>2013.8399999999999</ele>
        <time>2020-01-09T14:05:27Z</time>
      </trkpt>
      <trkpt lat="46.246867524459958" lon="8.030475284904242">
        <ele>2013.0899999999999</ele>
        <time>2020-01-09T14:05:35Z</time>
      </trkpt>
      <trkpt lat="46.246869703754783" lon="8.030249644070864">
        <ele>2012.8099999999999</ele>
        <time>2020-01-09T14:05:50Z</time>
      </trkpt>
      <trkpt lat="46.246870458126068" lon="8.030244363471866">
        <ele>2015.7</ele>
        <time>2020-01-09T14:05:54Z</time>
      </trkpt>
      <trkpt lat="46.24686760827899" lon="8.030229108408094">
        <ele>2014.1800000000001</ele>
        <time>2020-01-09T14:06:00Z</time>
      </trkpt>
      <trkpt lat="46.246873307973146" lon="8.030132800340653">
        <ele>2011.8299999999999</ele>
        <time>2020-01-09T14:06:06Z</time>
      </trkpt>
      <trkpt lat="46.246879510581493" lon="8.029847396537662">
        <ele>2010.0799999999999</ele>
        <time>2020-01-09T14:06:22Z</time>
      </trkpt>
      <trkpt lat="46.246873894706368" lon="8.029625527560711">
        <ele>2010.47</ele>
        <time>2020-01-09T14:06:35Z</time>
      </trkpt>
      <trkpt lat="46.246830811724067" lon="8.029402736574411">
        <ele>2010.5599999999999</ele>
        <time>2020-01-09T14:06:49Z</time>
      </trkpt>
      <trkpt lat="46.246793176978827" lon="8.029341548681259">
        <ele>2008.73</ele>
        <time>2020-01-09T14:06:55Z</time>
      </trkpt>
      <trkpt lat="46.246797116473317" lon="8.029293185099959">
        <ele>2006.8099999999999</ele>
        <time>2020-01-09T14:06:58Z</time>
      </trkpt>
      <trkpt lat="46.246827961876988" lon="8.029167288914323">
        <ele>2007.1800000000001</ele>
        <time>2020-01-09T14:07:11Z</time>
      </trkpt>
      <trkpt lat="46.246831230819225" lon="8.029164019972086">
        <ele>2006.48</ele>
        <time>2020-01-09T14:07:28Z</time>
      </trkpt>
      <trkpt lat="46.246834751218557" lon="8.029162930324674">
        <ele>2006.1700000000001</ele>
        <time>2020-01-09T14:07:40Z</time>
      </trkpt>
      <trkpt lat="46.246829051524401" lon="8.029163936153054">
        <ele>2006.1199999999999</ele>
        <time>2020-01-09T14:07:53Z</time>
      </trkpt>
      <trkpt lat="46.246822094544768" lon="8.029182208701968">
        <ele>2004.9000000000001</ele>
        <time>2020-01-09T14:08:06Z</time>
      </trkpt>
      <trkpt lat="46.246825698763132" lon="8.029182711616159">
        <ele>2004.51</ele>
        <time>2020-01-09T14:08:25Z</time>
      </trkpt>
      <trkpt lat="46.246827626600862" lon="8.029173910617828">
        <ele>2004.8099999999999</ele>
        <time>2020-01-09T14:09:05Z</time>
      </trkpt>
      <trkpt lat="46.246829889714718" lon="8.029185980558395">
        <ele>2005.03</ele>
        <time>2020-01-09T14:10:02Z</time>
      </trkpt>
      <trkpt lat="46.246830644086003" lon="8.029181035235524">
        <ele>2004.6400000000001</ele>
        <time>2020-01-09T14:11:00Z</time>
      </trkpt>
      <trkpt lat="46.246837014332414" lon="8.029192266985774">
        <ele>2005.23</ele>
        <time>2020-01-09T14:11:46Z</time>
      </trkpt>
      <trkpt lat="46.246836092323065" lon="8.029194613918662">
        <ele>2001.49</ele>
        <time>2020-01-09T14:12:04Z</time>
      </trkpt>
      <trkpt lat="46.246835673227906" lon="8.029194446280599">
        <ele>2006.6900000000001</ele>
        <time>2020-01-09T14:12:05Z</time>
      </trkpt>
      <trkpt lat="46.246836679056287" lon="8.029195200651884">
        <ele>2006.8199999999999</ele>
        <time>2020-01-09T14:12:06Z</time>
      </trkpt>
      <trkpt lat="46.246835002675653" lon="8.029205091297627">
        <ele>2004.3399999999999</ele>
        <time>2020-01-09T14:12:40Z</time>
      </trkpt>
      <trkpt lat="46.246834667399526" lon="8.029198301956058">
        <ele>2004.02</ele>
        <time>2020-01-09T14:13:27Z</time>
      </trkpt>
      <trkpt lat="46.246834248304367" lon="8.029198469594121">
        <ele>2006.0699999999999</ele>
        <time>2020-01-09T14:13:33Z</time>
      </trkpt>
      <trkpt lat="46.246834667399526" lon="8.029195284470916">
        <ele>2006.29</ele>
        <time>2020-01-09T14:13:50Z</time>
      </trkpt>
    </trkseg>
  </trk>

</gpx>